Time,TemperatureF,DewpointF,PressureIn,WindDirection,WindDirectionDegrees,WindSpeedMPH,WindSpeedGustMPH,Humidity,HourlyPrecipIn,Conditions,Clouds,dailyrainin,SoftwareType,DateUTC
2013-01-25 00:00:00,22.4,15.7,30.30,WNW,299,0.0,5.0,75,0.00,,---,0.00,VWS V14.01,2013-01-25 05:00:00,
2013-01-25 00:01:00,22.4,15.7,30.30,WNW,299,0.0,4.0,75,0.00,,---,0.00,VWS V14.01,2013-01-25 05:01:00,
2013-01-25 00:02:00,22.4,15.7,30.30,WNW,299,0.0,4.0,75,0.00,,---,0.00,VWS V14.01,2013-01-25 05:02:00,
2013-01-25 00:03:00,22.4,15.7,30.30,WNW,299,0.0,4.0,75,0.00,,---,0.00,VWS V14.01,2013-01-25 05:03:00,
2013-01-25 00:04:00,22.4,15.7,30.30,WNW,299,3.0,4.0,75,0.00,,---,0.00,VWS V14.01,2013-01-25 05:04:00,
2013-01-25 00:05:00,22.4,16.0,30.30,WNW,299,0.0,4.0,76,0.00,,---,0.00,VWS V14.01,2013-01-25 05:05:00,
2013-01-25 00:06:00,22.4,16.0,30.30,WNW,292,0.0,5.0,76,0.00,,---,0.00,VWS V14.01,2013-01-25 05:06:00,
2013-01-25 00:07:00,22.4,16.0,30.30,WNW,292,3.0,5.0,76,0.00,,---,0.00,VWS V14.01,2013-01-25 05:07:00,
2013-01-25 00:08:00,22.4,16.0,30.30,NW,319,5.0,6.0,76,0.00,,---,0.00,VWS V14.01,2013-01-25 05:08:00,
2013-01-25 00:09:00,22.4,16.0,30.30,NW,324,0.0,6.0,76,0.00,,---,0.00,VWS V14.01,2013-01-25 05:09:00,
2013-01-25 00:10:00,22.4,16.0,30.30,NW,324,0.0,6.0,76,0.00,,---,0.00,VWS V14.01,2013-01-25 05:10:00,
2013-01-25 00:11:00,22.4,16.0,30.30,NW,323,2.0,3.0,76,0.00,,---,0.00,VWS V14.01,2013-01-25 05:11:00,
2013-01-25 00:12:00,22.4,16.3,30.30,WNW,283,2.0,4.0,77,0.00,,---,0.00,VWS V14.01,2013-01-25 05:12:00,
2013-01-25 00:13:00,22.4,16.3,30.30,WNW,283,3.0,5.0,77,0.00,,---,0.00,VWS V14.01,2013-01-25 05:13:00,
2013-01-25 00:14:00,22.4,16.3,30.30,WNW,283,1.0,5.0,77,0.00,,---,0.00,VWS V14.01,2013-01-25 05:14:00,
2013-01-25 00:15:00,22.4,16.3,30.29,WNW,283,0.0,5.0,77,0.00,,---,0.00,VWS V14.01,2013-01-25 05:15:00,
2013-01-25 00:16:00,22.4,16.3,30.29,WNW,283,2.0,5.0,77,0.00,,---,0.00,VWS V14.01,2013-01-25 05:16:00,
2013-01-25 00:17:00,22.5,16.4,30.29,WNW,285,3.0,5.0,77,0.00,,---,0.00,VWS V14.01,2013-01-25 05:17:00,
2013-01-25 00:18:00,22.5,16.7,30.29,WNW,283,2.0,5.0,78,0.00,,---,0.00,VWS V14.01,2013-01-25 05:18:00,
2013-01-25 00:19:00,22.5,16.7,30.29,WNW,295,3.0,6.0,78,0.00,,---,0.00,VWS V14.01,2013-01-25 05:19:00,
2013-01-25 00:20:00,22.5,16.7,30.29,WNW,299,2.0,6.0,78,0.00,,---,0.00,VWS V14.01,2013-01-25 05:20:00,
2013-01-25 00:21:00,22.5,16.7,30.29,WNW,299,0.0,2.0,78,0.00,,---,0.00,VWS V14.01,2013-01-25 05:21:00,
2013-01-25 00:22:00,22.5,16.7,30.29,West,271,4.0,5.0,78,0.00,,---,0.00,VWS V14.01,2013-01-25 05:22:00,
2013-01-25 00:23:00,22.7,17.2,30.29,WNW,298,4.0,6.0,79,0.00,,---,0.00,VWS V14.01,2013-01-25 05:23:00,
2013-01-25 00:24:00,22.7,17.2,30.29,NW,313,1.0,6.0,79,0.00,,---,0.00,VWS V14.01,2013-01-25 05:24:00,
2013-01-25 00:25:00,22.7,17.2,30.29,WNW,288,2.0,6.0,79,0.00,,---,0.00,VWS V14.01,2013-01-25 05:25:00,
2013-01-25 00:26:00,22.7,17.2,30.29,WNW,288,2.0,6.0,79,0.00,,---,0.00,VWS V14.01,2013-01-25 05:26:00,
2013-01-25 00:27:00,22.7,17.2,30.29,WNW,289,1.0,6.0,79,0.00,,---,0.00,VWS V14.01,2013-01-25 05:27:00,
2013-01-25 00:28:00,22.7,17.2,30.29,WNW,295,2.0,6.0,79,0.00,,---,0.00,VWS V14.01,2013-01-25 05:28:00,
2013-01-25 00:29:00,22.7,17.2,30.29,WNW,295,2.0,6.0,79,0.00,,---,0.00,VWS V14.01,2013-01-25 05:29:00,
2013-01-25 00:30:00,22.7,17.5,30.27,West,281,4.0,7.0,80,0.00,,---,0.00,VWS V14.01,2013-01-25 05:30:00,
2013-01-25 00:31:00,22.7,17.5,30.27,West,281,0.0,4.0,80,0.00,,---,0.00,VWS V14.01,2013-01-25 05:31:00,
2013-01-25 00:32:00,22.7,17.5,30.27,WNW,283,3.0,7.0,80,0.00,,---,0.00,VWS V14.01,2013-01-25 05:32:00,
2013-01-25 00:33:00,22.9,17.7,30.27,WNW,283,2.0,7.0,80,0.00,,---,0.00,VWS V14.01,2013-01-25 05:33:00,
2013-01-25 00:34:00,22.9,17.7,30.27,WNW,283,0.0,7.0,80,0.00,,---,0.00,VWS V14.01,2013-01-25 05:34:00,
2013-01-25 00:35:00,22.9,17.7,30.27,WNW,283,0.0,7.0,80,0.00,,---,0.00,VWS V14.01,2013-01-25 05:35:00,
2013-01-25 00:36:00,22.9,17.7,30.27,WNW,283,0.0,7.0,80,0.00,,---,0.00,VWS V14.01,2013-01-25 05:36:00,
2013-01-25 00:37:00,22.9,17.7,30.27,WNW,282,0.0,7.0,80,0.00,,---,0.00,VWS V14.01,2013-01-25 05:37:00,
2013-01-25 00:38:00,22.9,17.7,30.27,WNW,282,0.0,7.0,80,0.00,,---,0.00,VWS V14.01,2013-01-25 05:38:00,
2013-01-25 00:39:00,22.9,18.0,30.27,WNW,282,2.0,7.0,81,0.00,,---,0.00,VWS V14.01,2013-01-25 05:39:00,
2013-01-25 00:40:00,22.9,18.0,30.27,WNW,283,2.0,7.0,81,0.00,,---,0.00,VWS V14.01,2013-01-25 05:40:00,
2013-01-25 00:41:00,22.9,18.0,30.27,WNW,283,0.0,3.0,81,0.00,,---,0.00,VWS V14.01,2013-01-25 05:41:00,
2013-01-25 00:42:00,22.9,18.0,30.27,WNW,283,0.0,3.0,81,0.00,,---,0.00,VWS V14.01,2013-01-25 05:42:00,
2013-01-25 00:43:00,22.9,18.0,30.27,WNW,283,0.0,3.0,81,0.00,,---,0.00,VWS V14.01,2013-01-25 05:43:00,
2013-01-25 00:44:00,23.0,18.0,30.27,West,262,6.0,7.0,81,0.00,,---,0.00,VWS V14.01,2013-01-25 05:44:00,
2013-01-25 00:45:00,23.0,18.0,30.26,WNW,282,1.0,7.0,81,0.00,,---,0.00,VWS V14.01,2013-01-25 05:45:00,
2013-01-25 00:46:00,23.0,18.0,30.26,WNW,282,3.0,7.0,81,0.00,,---,0.00,VWS V14.01,2013-01-25 05:46:00,
2013-01-25 00:47:00,23.0,18.0,30.26,WNW,282,0.0,7.0,81,0.00,,---,0.00,VWS V14.01,2013-01-25 05:47:00,
2013-01-25 00:48:00,23.0,18.3,30.26,WNW,282,0.0,7.0,82,0.00,,---,0.00,VWS V14.01,2013-01-25 05:48:00,
2013-01-25 00:49:00,23.0,18.3,30.26,NNW,334,2.0,7.0,82,0.00,,---,0.00,VWS V14.01,2013-01-25 05:49:00,
2013-01-25 00:50:00,23.0,18.3,30.26,NNW,334,0.0,7.0,82,0.00,,---,0.00,VWS V14.01,2013-01-25 05:50:00,
2013-01-25 00:51:00,23.0,18.3,30.26,NNW,334,0.0,0.0,82,0.00,,---,0.00,VWS V14.01,2013-01-25 05:51:00,
2013-01-25 00:52:00,23.2,18.5,30.26,NNW,334,0.0,0.0,82,0.00,,---,0.00,VWS V14.01,2013-01-25 05:52:00,
2013-01-25 00:53:00,23.2,18.5,30.26,NNW,334,2.0,2.0,82,0.00,,---,0.00,VWS V14.01,2013-01-25 05:53:00,
2013-01-25 00:54:00,23.2,18.5,30.26,West,281,5.0,5.0,82,0.00,,---,0.00,VWS V14.01,2013-01-25 05:54:00,
2013-01-25 00:55:00,23.2,18.5,30.26,WNW,282,2.0,6.0,82,0.00,,---,0.00,VWS V14.01,2013-01-25 05:55:00,
2013-01-25 00:56:00,23.2,18.5,30.26,WNW,282,3.0,6.0,82,0.00,,---,0.00,VWS V14.01,2013-01-25 05:56:00,
2013-01-25 00:57:00,23.2,18.5,30.26,WNW,282,3.0,6.0,82,0.00,,---,0.00,VWS V14.01,2013-01-25 05:57:00,
2013-01-25 00:58:00,23.2,18.8,30.26,WNW,282,3.0,6.0,83,0.00,,---,0.00,VWS V14.01,2013-01-25 05:58:00,
2013-01-25 00:59:00,23.3,18.9,30.26,WNW,282,0.0,6.0,83,0.00,,---,0.00,VWS V14.01,2013-01-25 05:59:00,
2013-01-25 01:00:00,23.3,18.9,30.26,WNW,282,2.0,6.0,83,0.00,,---,0.00,VWS V14.01,2013-01-25 06:00:00,
2013-01-25 01:01:00,23.3,18.9,30.26,WNW,282,0.0,2.0,83,0.00,,---,0.00,VWS V14.01,2013-01-25 06:01:00,
2013-01-25 01:02:00,23.3,18.9,30.26,WNW,282,2.0,3.0,83,0.00,,---,0.00,VWS V14.01,2013-01-25 06:02:00,
2013-01-25 01:03:00,23.5,19.4,30.26,WNW,283,0.0,3.0,84,0.00,,---,0.00,VWS V14.01,2013-01-25 06:03:00,
2013-01-25 01:04:00,23.5,19.4,30.26,WNW,283,0.0,3.0,84,0.00,,---,0.00,VWS V14.01,2013-01-25 06:04:00,
2013-01-25 01:05:00,23.5,19.4,30.26,WNW,283,0.0,3.0,84,0.00,,---,0.00,VWS V14.01,2013-01-25 06:05:00,
2013-01-25 01:06:00,23.5,19.4,30.26,WNW,283,0.0,3.0,84,0.00,,---,0.00,VWS V14.01,2013-01-25 06:06:00,
2013-01-25 01:07:00,23.6,19.5,30.26,NW,316,2.0,6.0,84,0.00,,---,0.00,VWS V14.01,2013-01-25 06:07:00,
2013-01-25 01:08:00,23.6,19.5,30.26,NW,317,0.0,6.0,84,0.00,,---,0.00,VWS V14.01,2013-01-25 06:08:00,
2013-01-25 01:09:00,23.6,19.5,30.26,NW,317,2.0,6.0,84,0.00,,---,0.00,VWS V14.01,2013-01-25 06:09:00,
2013-01-25 01:10:00,23.8,20.0,30.26,WNW,295,2.0,6.0,85,0.00,,---,0.00,VWS V14.01,2013-01-25 06:10:00,
2013-01-25 01:11:00,23.8,20.0,30.26,WNW,295,0.0,2.0,85,0.00,,---,0.00,VWS V14.01,2013-01-25 06:11:00,
2013-01-25 01:12:00,23.8,20.0,30.26,WNW,295,0.0,2.0,85,0.00,,---,0.00,VWS V14.01,2013-01-25 06:12:00,
2013-01-25 01:13:00,23.9,20.1,30.26,WNW,295,0.0,2.0,85,0.00,,---,0.00,VWS V14.01,2013-01-25 06:13:00,
2013-01-25 01:14:00,23.9,20.1,30.26,WNW,295,0.0,2.0,85,0.00,,---,0.00,VWS V14.01,2013-01-25 06:14:00,
2013-01-25 01:15:00,23.9,20.1,30.25,WNW,295,0.0,2.0,85,0.00,,---,0.00,VWS V14.01,2013-01-25 06:15:00,
2013-01-25 01:16:00,23.9,20.1,30.25,WNW,295,0.0,2.0,85,0.00,,---,0.00,VWS V14.01,2013-01-25 06:16:00,
2013-01-25 01:17:00,24.1,20.5,30.25,WNW,295,2.0,3.0,86,0.00,,---,0.00,VWS V14.01,2013-01-25 06:17:00,
2013-01-25 01:18:00,24.1,20.5,30.25,WNW,303,2.0,5.0,86,0.00,,---,0.00,VWS V14.01,2013-01-25 06:18:00,
2013-01-25 01:19:00,24.2,20.6,30.25,WNW,303,0.0,5.0,86,0.00,,---,0.00,VWS V14.01,2013-01-25 06:19:00,
2013-01-25 01:20:00,24.2,20.6,30.25,WNW,293,3.0,5.0,86,0.00,,---,0.00,VWS V14.01,2013-01-25 06:20:00,
2013-01-25 01:21:00,24.2,20.6,30.25,WNW,293,0.0,3.0,86,0.00,,---,0.00,VWS V14.01,2013-01-25 06:21:00,
2013-01-25 01:22:00,24.4,20.8,30.25,WNW,293,0.0,3.0,86,0.00,,---,0.00,VWS V14.01,2013-01-25 06:22:00,
2013-01-25 01:23:00,24.4,20.8,30.25,WNW,293,2.0,3.0,86,0.00,,---,0.00,VWS V14.01,2013-01-25 06:23:00,
2013-01-25 01:24:00,24.5,20.9,30.25,WNW,292,2.0,4.0,86,0.00,,---,0.00,VWS V14.01,2013-01-25 06:24:00,
2013-01-25 01:25:00,24.5,20.9,30.25,WNW,292,0.0,4.0,86,0.00,,---,0.00,VWS V14.01,2013-01-25 06:25:00,
2013-01-25 01:26:00,24.5,21.2,30.25,WNW,282,2.0,4.0,87,0.00,,---,0.00,VWS V14.01,2013-01-25 06:26:00,
2013-01-25 01:27:00,24.7,21.4,30.25,WNW,282,0.0,4.0,87,0.00,,---,0.00,VWS V14.01,2013-01-25 06:27:00,
2013-01-25 01:28:00,24.7,21.4,30.25,WNW,282,0.0,4.0,87,0.00,,---,0.00,VWS V14.01,2013-01-25 06:28:00,
2013-01-25 01:29:00,24.8,21.5,30.25,WNW,282,0.0,4.0,87,0.00,,---,0.00,VWS V14.01,2013-01-25 06:29:00,
2013-01-25 01:30:00,24.8,21.5,30.22,WNW,282,0.0,4.0,87,0.00,,---,0.00,VWS V14.01,2013-01-25 06:30:00,
2013-01-25 01:31:00,25.0,21.7,30.22,WNW,288,0.0,0.0,87,0.00,,---,0.00,VWS V14.01,2013-01-25 06:31:00,
2013-01-25 01:32:00,25.0,21.7,30.22,WNW,288,0.0,0.0,87,0.00,,---,0.00,VWS V14.01,2013-01-25 06:32:00,
2013-01-25 01:33:00,25.1,22.0,30.22,WNW,288,1.0,1.0,88,0.00,,---,0.00,VWS V14.01,2013-01-25 06:33:00,
2013-01-25 01:34:00,25.1,22.0,30.22,WNW,288,1.0,2.0,88,0.00,,---,0.00,VWS V14.01,2013-01-25 06:34:00,
2013-01-25 01:35:00,25.3,22.2,30.22,WNW,288,2.0,2.0,88,0.00,,---,0.00,VWS V14.01,2013-01-25 06:35:00,
2013-01-25 01:36:00,25.4,22.4,30.22,WNW,288,0.0,2.0,88,0.00,,---,0.00,VWS V14.01,2013-01-25 06:36:00,
2013-01-25 01:37:00,25.4,22.4,30.22,WNW,288,2.0,3.0,88,0.00,,---,0.00,VWS V14.01,2013-01-25 06:37:00,
2013-01-25 01:38:00,25.6,22.5,30.22,WNW,286,1.0,4.0,88,0.00,,---,0.00,VWS V14.01,2013-01-25 06:38:00,
2013-01-25 01:39:00,25.7,22.6,30.22,WNW,286,2.0,4.0,88,0.00,,---,0.00,VWS V14.01,2013-01-25 06:39:00,
2013-01-25 01:40:00,25.7,22.6,30.22,WNW,286,2.0,4.0,88,0.00,,---,0.00,VWS V14.01,2013-01-25 06:40:00,
2013-01-25 01:41:00,25.8,22.7,30.22,WNW,286,0.0,1.0,88,0.00,,---,0.00,VWS V14.01,2013-01-25 06:41:00,
2013-01-25 01:42:00,25.8,23.0,30.22,WNW,286,1.0,3.0,89,0.00,,---,0.00,VWS V14.01,2013-01-25 06:42:00,
2013-01-25 01:43:00,25.8,23.0,30.22,WNW,286,1.0,4.0,89,0.00,,---,0.00,VWS V14.01,2013-01-25 06:43:00,
2013-01-25 01:44:00,26.0,23.2,30.22,WNW,286,1.0,4.0,89,0.00,,---,0.00,VWS V14.01,2013-01-25 06:44:00,
2013-01-25 01:45:00,26.0,23.2,30.21,WNW,286,0.0,4.0,89,0.00,,---,0.00,VWS V14.01,2013-01-25 06:45:00,
2013-01-25 01:46:00,26.1,23.3,30.21,WNW,286,0.0,4.0,89,0.00,,---,0.00,VWS V14.01,2013-01-25 06:46:00,
2013-01-25 01:47:00,26.1,23.3,30.21,WNW,286,3.0,4.0,89,0.00,,---,0.00,VWS V14.01,2013-01-25 06:47:00,
2013-01-25 01:48:00,26.3,23.5,30.21,WNW,286,3.0,4.0,89,0.00,,---,0.00,VWS V14.01,2013-01-25 06:48:00,
2013-01-25 01:49:00,26.3,23.5,30.21,West,278,1.0,5.0,89,0.00,,---,0.00,VWS V14.01,2013-01-25 06:49:00,
2013-01-25 01:50:00,26.3,23.5,30.21,WNW,286,0.0,5.0,89,0.00,,---,0.00,VWS V14.01,2013-01-25 06:50:00,
2013-01-25 01:51:00,26.4,23.6,30.21,WNW,286,2.0,3.0,89,0.00,,---,0.00,VWS V14.01,2013-01-25 06:51:00,
2013-01-25 01:52:00,26.4,23.6,30.21,WNW,286,1.0,3.0,89,0.00,,---,0.00,VWS V14.01,2013-01-25 06:52:00,
2013-01-25 01:53:00,26.4,23.6,30.21,West,278,0.0,3.0,89,0.00,,---,0.00,VWS V14.01,2013-01-25 06:53:00,
2013-01-25 01:54:00,26.6,23.8,30.21,WNW,286,0.0,3.0,89,0.00,,---,0.00,VWS V14.01,2013-01-25 06:54:00,
2013-01-25 01:55:00,26.6,23.8,30.21,WNW,286,0.0,3.0,89,0.00,,---,0.00,VWS V14.01,2013-01-25 06:55:00,
2013-01-25 01:56:00,26.6,23.8,30.21,WNW,286,2.0,4.0,89,0.00,,---,0.00,VWS V14.01,2013-01-25 06:56:00,
2013-01-25 01:57:00,26.6,23.8,30.21,WNW,286,4.0,4.0,89,0.00,,---,0.00,VWS V14.01,2013-01-25 06:57:00,
2013-01-25 01:58:00,26.7,23.9,30.21,WNW,286,2.0,5.0,89,0.00,,---,0.00,VWS V14.01,2013-01-25 06:58:00,
2013-01-25 01:59:00,26.7,23.9,30.21,WNW,286,2.0,5.0,89,0.00,,---,0.00,VWS V14.01,2013-01-25 06:59:00,
2013-01-25 02:00:00,26.7,23.9,30.20,WNW,286,0.0,5.0,89,0.00,,---,0.00,VWS V14.01,2013-01-25 07:00:00,
2013-01-25 02:01:00,26.7,23.9,30.20,WNW,286,0.0,2.0,89,0.00,,---,0.00,VWS V14.01,2013-01-25 07:01:00,
2013-01-25 02:02:00,26.7,23.9,30.20,WNW,286,0.0,4.0,89,0.00,,---,0.00,VWS V14.01,2013-01-25 07:02:00,
2013-01-25 02:03:00,26.9,24.1,30.20,WNW,286,0.0,4.0,89,0.00,,---,0.00,VWS V14.01,2013-01-25 07:03:00,
2013-01-25 02:04:00,26.9,24.1,30.20,WNW,286,2.0,4.0,89,0.00,,---,0.00,VWS V14.01,2013-01-25 07:04:00,
2013-01-25 02:05:00,26.9,24.1,30.20,WNW,286,4.0,4.0,89,0.00,,---,0.00,VWS V14.01,2013-01-25 07:05:00,
2013-01-25 02:06:00,26.9,24.1,30.20,WNW,282,6.0,7.0,89,0.00,,---,0.00,VWS V14.01,2013-01-25 07:06:00,
2013-01-25 02:07:00,27.0,24.2,30.20,WNW,282,0.0,7.0,89,0.00,,---,0.00,VWS V14.01,2013-01-25 07:07:00,
2013-01-25 02:08:00,27.0,24.2,30.20,WNW,282,0.0,7.0,89,0.00,,---,0.00,VWS V14.01,2013-01-25 07:08:00,
2013-01-25 02:09:00,27.0,24.5,30.20,WNW,282,0.0,7.0,90,0.00,,---,0.00,VWS V14.01,2013-01-25 07:09:00,
2013-01-25 02:10:00,27.2,24.7,30.20,WNW,282,1.0,7.0,90,0.00,,---,0.00,VWS V14.01,2013-01-25 07:10:00,
2013-01-25 02:11:00,27.2,24.7,30.20,WNW,282,1.0,1.0,90,0.00,,---,0.00,VWS V14.01,2013-01-25 07:11:00,
2013-01-25 02:12:00,27.2,24.7,30.20,WNW,282,2.0,3.0,90,0.00,,---,0.00,VWS V14.01,2013-01-25 07:12:00,
2013-01-25 02:13:00,27.3,24.8,30.20,WNW,282,0.0,3.0,90,0.00,,---,0.00,VWS V14.01,2013-01-25 07:13:00,
2013-01-25 02:14:00,27.3,24.8,30.20,WNW,292,3.0,3.0,90,0.00,,---,0.00,VWS V14.01,2013-01-25 07:14:00,
2013-01-25 02:15:00,27.3,24.8,30.19,WNW,292,0.0,3.0,90,0.00,,---,0.00,VWS V14.01,2013-01-25 07:15:00,
2013-01-25 02:16:00,27.3,24.8,30.19,WNW,292,0.0,3.0,90,0.00,,---,0.00,VWS V14.01,2013-01-25 07:16:00,
2013-01-25 02:17:00,27.3,24.8,30.19,WNW,295,2.0,3.0,90,0.00,,---,0.00,VWS V14.01,2013-01-25 07:17:00,
2013-01-25 02:18:00,27.3,24.8,30.19,WNW,296,0.0,3.0,90,0.00,,---,0.00,VWS V14.01,2013-01-25 07:18:00,
2013-01-25 02:19:00,27.3,24.8,30.19,WNW,296,0.0,3.0,90,0.00,,---,0.00,VWS V14.01,2013-01-25 07:19:00,
2013-01-25 02:20:00,27.5,25.0,30.19,WNW,296,1.0,3.0,90,0.00,,---,0.00,VWS V14.01,2013-01-25 07:20:00,
2013-01-25 02:21:00,27.5,25.0,30.19,WNW,296,0.0,1.0,90,0.00,,---,0.00,VWS V14.01,2013-01-25 07:21:00,
2013-01-25 02:22:00,27.5,25.0,30.19,WNW,296,1.0,1.0,90,0.00,,---,0.00,VWS V14.01,2013-01-25 07:22:00,
2013-01-25 02:23:00,27.5,25.0,30.19,West,276,2.0,3.0,90,0.00,,---,0.00,VWS V14.01,2013-01-25 07:23:00,
2013-01-25 02:24:00,27.5,25.0,30.19,West,276,0.0,3.0,90,0.00,,---,0.00,VWS V14.01,2013-01-25 07:24:00,
2013-01-25 02:25:00,27.5,25.0,30.19,West,276,2.0,3.0,90,0.00,,---,0.00,VWS V14.01,2013-01-25 07:25:00,
2013-01-25 02:26:00,27.6,25.1,30.19,West,278,0.0,3.0,90,0.00,,---,0.00,VWS V14.01,2013-01-25 07:26:00,
2013-01-25 02:27:00,27.6,25.1,30.19,West,279,3.0,3.0,90,0.00,,---,0.00,VWS V14.01,2013-01-25 07:27:00,
2013-01-25 02:28:00,27.6,25.1,30.19,West,279,0.0,3.0,90,0.00,,---,0.00,VWS V14.01,2013-01-25 07:28:00,
2013-01-25 02:29:00,27.6,25.1,30.19,WNW,282,0.0,5.0,90,0.00,,---,0.00,VWS V14.01,2013-01-25 07:29:00,
2013-01-25 02:30:00,27.6,25.1,30.17,WNW,282,0.0,5.0,90,0.00,,---,0.00,VWS V14.01,2013-01-25 07:30:00,
2013-01-25 02:31:00,27.6,25.1,30.17,WNW,282,2.0,3.0,90,0.00,,---,0.00,VWS V14.01,2013-01-25 07:31:00,
2013-01-25 02:32:00,27.6,25.1,30.17,WNW,282,0.0,3.0,90,0.00,,---,0.00,VWS V14.01,2013-01-25 07:32:00,
2013-01-25 02:33:00,27.6,25.1,30.17,WNW,282,3.0,3.0,90,0.00,,---,0.00,VWS V14.01,2013-01-25 07:33:00,
2013-01-25 02:34:00,27.6,25.1,30.17,WNW,282,1.0,4.0,90,0.00,,---,0.00,VWS V14.01,2013-01-25 07:34:00,
2013-01-25 02:35:00,27.6,25.1,30.17,WNW,282,0.0,4.0,90,0.00,,---,0.00,VWS V14.01,2013-01-25 07:35:00,
2013-01-25 02:36:00,27.6,25.1,30.17,WNW,282,0.0,4.0,90,0.00,,---,0.00,VWS V14.01,2013-01-25 07:36:00,
2013-01-25 02:37:00,27.8,25.2,30.17,WNW,282,0.0,4.0,90,0.00,,---,0.00,VWS V14.01,2013-01-25 07:37:00,
2013-01-25 02:38:00,27.8,25.2,30.17,WNW,282,2.0,4.0,90,0.00,,---,0.00,VWS V14.01,2013-01-25 07:38:00,
2013-01-25 02:39:00,27.8,25.2,30.17,WNW,282,2.0,4.0,90,0.00,,---,0.00,VWS V14.01,2013-01-25 07:39:00,
2013-01-25 02:40:00,27.8,25.2,30.17,WNW,282,2.0,4.0,90,0.00,,---,0.00,VWS V14.01,2013-01-25 07:40:00,
2013-01-25 02:41:00,27.8,25.2,30.17,WNW,283,3.0,3.0,90,0.00,,---,0.00,VWS V14.01,2013-01-25 07:41:00,
2013-01-25 02:42:00,27.8,25.2,30.17,WNW,283,1.0,3.0,90,0.00,,---,0.00,VWS V14.01,2013-01-25 07:42:00,
2013-01-25 02:43:00,27.9,25.4,30.17,WNW,283,0.0,3.0,90,0.00,,---,0.00,VWS V14.01,2013-01-25 07:43:00,
2013-01-25 02:44:00,27.9,25.4,30.17,WNW,283,0.0,3.0,90,0.00,,---,0.00,VWS V14.01,2013-01-25 07:44:00,
2013-01-25 02:45:00,27.9,25.4,30.15,WNW,283,0.0,3.0,90,0.00,,---,0.00,VWS V14.01,2013-01-25 07:45:00,
2013-01-25 02:46:00,27.9,25.4,30.15,WNW,283,0.0,3.0,90,0.00,,---,0.00,VWS V14.01,2013-01-25 07:46:00,
2013-01-25 02:47:00,27.9,25.4,30.15,WNW,283,0.0,3.0,90,0.00,,---,0.00,VWS V14.01,2013-01-25 07:47:00,
2013-01-25 02:48:00,28.1,25.5,30.15,WNW,283,0.0,3.0,90,0.00,,---,0.00,VWS V14.01,2013-01-25 07:48:00,
2013-01-25 02:49:00,28.1,25.5,30.15,WNW,283,0.0,3.0,90,0.00,,---,0.00,VWS V14.01,2013-01-25 07:49:00,
2013-01-25 02:50:00,28.1,25.5,30.15,WNW,283,0.0,3.0,90,0.00,,---,0.00,VWS V14.01,2013-01-25 07:50:00,
2013-01-25 02:51:00,28.1,25.5,30.15,WNW,283,0.0,0.0,90,0.00,,---,0.00,VWS V14.01,2013-01-25 07:51:00,
2013-01-25 02:52:00,28.1,25.5,30.15,WNW,283,0.0,0.0,90,0.00,,---,0.00,VWS V14.01,2013-01-25 07:52:00,
2013-01-25 02:53:00,28.1,25.5,30.15,WNW,283,0.0,0.0,90,0.00,,---,0.00,VWS V14.01,2013-01-25 07:53:00,
2013-01-25 02:54:00,28.1,25.5,30.15,WNW,283,0.0,0.0,90,0.00,,---,0.00,VWS V14.01,2013-01-25 07:54:00,
2013-01-25 02:55:00,28.1,25.5,30.15,WNW,283,0.0,0.0,90,0.00,,---,0.00,VWS V14.01,2013-01-25 07:55:00,
2013-01-25 02:56:00,28.1,25.5,30.15,WNW,283,0.0,1.0,90,0.00,,---,0.00,VWS V14.01,2013-01-25 07:56:00,
2013-01-25 02:57:00,28.1,25.5,30.15,WNW,283,0.0,1.0,90,0.00,,---,0.00,VWS V14.01,2013-01-25 07:57:00,
2013-01-25 02:58:00,28.2,25.6,30.15,WNW,283,0.0,1.0,90,0.00,,---,0.00,VWS V14.01,2013-01-25 07:58:00,
2013-01-25 02:59:00,28.2,25.6,30.15,WNW,283,0.0,1.0,90,0.00,,---,0.00,VWS V14.01,2013-01-25 07:59:00,
2013-01-25 03:00:00,28.2,25.6,30.15,WNW,283,2.0,3.0,90,0.00,,---,0.00,VWS V14.01,2013-01-25 08:00:00,
2013-01-25 03:01:00,28.2,25.6,30.15,WNW,283,0.0,2.0,90,0.00,,---,0.00,VWS V14.01,2013-01-25 08:01:00,
2013-01-25 03:02:00,28.2,25.6,30.15,WNW,283,0.0,2.0,90,0.00,,---,0.00,VWS V14.01,2013-01-25 08:02:00,
2013-01-25 03:03:00,28.2,25.6,30.15,WNW,283,0.0,2.0,90,0.00,,---,0.00,VWS V14.01,2013-01-25 08:03:00,
2013-01-25 03:04:00,28.2,25.6,30.15,WNW,283,3.0,3.0,90,0.00,,---,0.00,VWS V14.01,2013-01-25 08:04:00,
2013-01-25 03:05:00,28.4,25.9,30.15,WNW,283,0.0,3.0,90,0.00,,---,0.00,VWS V14.01,2013-01-25 08:05:00,
2013-01-25 03:06:00,28.4,25.9,30.15,WNW,283,0.0,3.0,90,0.00,,---,0.00,VWS V14.01,2013-01-25 08:06:00,
2013-01-25 03:07:00,28.4,25.9,30.15,WNW,283,3.0,3.0,90,0.00,,---,0.00,VWS V14.01,2013-01-25 08:07:00,
2013-01-25 03:08:00,28.4,25.9,30.15,WNW,283,0.0,3.0,90,0.00,,---,0.00,VWS V14.01,2013-01-25 08:08:00,
2013-01-25 03:09:00,28.5,26.2,30.15,WNW,283,2.0,3.0,91,0.00,,---,0.00,VWS V14.01,2013-01-25 08:09:00,
2013-01-25 03:10:00,28.5,26.2,30.15,WNW,283,0.0,3.0,91,0.00,,---,0.00,VWS V14.01,2013-01-25 08:10:00,
2013-01-25 03:11:00,28.5,26.2,30.15,WNW,283,2.0,2.0,91,0.00,,---,0.00,VWS V14.01,2013-01-25 08:11:00,
2013-01-25 03:12:00,28.5,26.2,30.15,WNW,283,0.0,2.0,91,0.00,,---,0.00,VWS V14.01,2013-01-25 08:12:00,
2013-01-25 03:13:00,28.5,26.2,30.15,WNW,283,2.0,2.0,91,0.00,,---,0.00,VWS V14.01,2013-01-25 08:13:00,
2013-01-25 03:14:00,28.7,26.4,30.15,WNW,283,0.0,3.0,91,0.00,,---,0.00,VWS V14.01,2013-01-25 08:14:00,
2013-01-25 03:15:00,28.7,26.4,30.15,WNW,283,0.0,3.0,91,0.00,,---,0.00,VWS V14.01,2013-01-25 08:15:00,
2013-01-25 03:16:00,28.7,26.4,30.15,WNW,283,0.0,3.0,91,0.00,,---,0.00,VWS V14.01,2013-01-25 08:16:00,
2013-01-25 03:17:00,28.7,26.4,30.15,WNW,283,0.0,3.0,91,0.00,,---,0.00,VWS V14.01,2013-01-25 08:17:00,
2013-01-25 03:18:00,28.7,26.4,30.15,WNW,283,0.0,3.0,91,0.00,,---,0.00,VWS V14.01,2013-01-25 08:18:00,
2013-01-25 03:19:00,28.8,26.5,30.15,WNW,283,0.0,3.0,91,0.00,,---,0.00,VWS V14.01,2013-01-25 08:19:00,
2013-01-25 03:20:00,28.8,26.5,30.15,WNW,283,0.0,3.0,91,0.00,,---,0.00,VWS V14.01,2013-01-25 08:20:00,
2013-01-25 03:21:00,28.8,26.5,30.15,WNW,283,0.0,1.0,91,0.00,,---,0.00,VWS V14.01,2013-01-25 08:21:00,
2013-01-25 03:22:00,28.8,26.5,30.15,WNW,283,0.0,1.0,91,0.00,,---,0.00,VWS V14.01,2013-01-25 08:22:00,
2013-01-25 03:23:00,28.8,26.5,30.15,WNW,283,0.0,1.0,91,0.00,,---,0.00,VWS V14.01,2013-01-25 08:23:00,
2013-01-25 03:24:00,28.8,26.5,30.15,WNW,283,0.0,1.0,91,0.00,,---,0.00,VWS V14.01,2013-01-25 08:24:00,
2013-01-25 03:25:00,28.8,26.5,30.15,WNW,283,0.0,1.0,91,0.00,,---,0.00,VWS V14.01,2013-01-25 08:25:00,
2013-01-25 03:26:00,28.8,26.5,30.15,WNW,283,0.0,1.0,91,0.00,,---,0.00,VWS V14.01,2013-01-25 08:26:00,
2013-01-25 03:27:00,28.8,26.5,30.15,WNW,283,0.0,1.0,91,0.00,,---,0.00,VWS V14.01,2013-01-25 08:27:00,
2013-01-25 03:28:00,29.0,26.7,30.15,WNW,283,0.0,1.0,91,0.00,,---,0.00,VWS V14.01,2013-01-25 08:28:00,
2013-01-25 03:29:00,29.0,26.7,30.15,WNW,283,0.0,1.0,91,0.00,,---,0.00,VWS V14.01,2013-01-25 08:29:00,
2013-01-25 03:30:00,29.0,26.7,30.13,WNW,283,0.0,1.0,91,0.00,,---,0.00,VWS V14.01,2013-01-25 08:30:00,
2013-01-25 03:31:00,29.0,26.7,30.13,WNW,283,0.0,0.0,91,0.00,,---,0.00,VWS V14.01,2013-01-25 08:31:00,
2013-01-25 03:32:00,29.0,26.7,30.13,WNW,283,0.0,2.0,91,0.00,,---,0.00,VWS V14.01,2013-01-25 08:32:00,
2013-01-25 03:33:00,29.0,26.7,30.13,WNW,283,0.0,2.0,91,0.00,,---,0.00,VWS V14.01,2013-01-25 08:33:00,
2013-01-25 03:34:00,29.0,26.7,30.13,WNW,283,0.0,2.0,91,0.00,,---,0.00,VWS V14.01,2013-01-25 08:34:00,
2013-01-25 03:35:00,29.1,26.8,30.13,WNW,283,2.0,3.0,91,0.00,,---,0.00,VWS V14.01,2013-01-25 08:35:00,
2013-01-25 03:36:00,29.1,26.8,30.13,WNW,283,0.0,3.0,91,0.00,,---,0.00,VWS V14.01,2013-01-25 08:36:00,
2013-01-25 03:37:00,29.1,26.8,30.13,WNW,283,0.0,3.0,91,0.00,,---,0.00,VWS V14.01,2013-01-25 08:37:00,
2013-01-25 03:38:00,29.1,26.8,30.13,WNW,283,0.0,3.0,91,0.00,,---,0.00,VWS V14.01,2013-01-25 08:38:00,
2013-01-25 03:39:00,29.1,26.8,30.13,WNW,283,0.0,3.0,91,0.00,,---,0.00,VWS V14.01,2013-01-25 08:39:00,
2013-01-25 03:40:00,29.3,27.0,30.13,WNW,283,0.0,3.0,91,0.00,,---,0.00,VWS V14.01,2013-01-25 08:40:00,
2013-01-25 03:41:00,29.3,27.0,30.13,WNW,283,0.0,0.0,91,0.00,,---,0.00,VWS V14.01,2013-01-25 08:41:00,
2013-01-25 03:42:00,29.3,27.0,30.13,WNW,283,0.0,0.0,91,0.00,,---,0.00,VWS V14.01,2013-01-25 08:42:00,
2013-01-25 03:43:00,29.3,27.0,30.13,WNW,283,0.0,0.0,91,0.00,,---,0.00,VWS V14.01,2013-01-25 08:43:00,
2013-01-25 03:44:00,29.3,27.0,30.13,WNW,283,0.0,0.0,91,0.00,,---,0.00,VWS V14.01,2013-01-25 08:44:00,
2013-01-25 03:45:00,29.3,27.0,30.12,WNW,283,0.0,0.0,91,0.00,,---,0.00,VWS V14.01,2013-01-25 08:45:00,
2013-01-25 03:46:00,29.4,27.1,30.12,WNW,283,0.0,0.0,91,0.00,,---,0.00,VWS V14.01,2013-01-25 08:46:00,
2013-01-25 03:47:00,29.4,27.1,30.12,WNW,283,0.0,2.0,91,0.00,,---,0.00,VWS V14.01,2013-01-25 08:47:00,
2013-01-25 03:48:00,29.4,27.1,30.12,WNW,283,1.0,2.0,91,0.00,,---,0.00,VWS V14.01,2013-01-25 08:48:00,
2013-01-25 03:49:00,29.4,27.1,30.12,WNW,283,0.0,2.0,91,0.00,,---,0.00,VWS V14.01,2013-01-25 08:49:00,
2013-01-25 03:50:00,29.4,27.1,30.12,WNW,283,0.0,2.0,91,0.00,,---,0.00,VWS V14.01,2013-01-25 08:50:00,
2013-01-25 03:51:00,29.4,27.1,30.12,WNW,283,0.0,0.0,91,0.00,,---,0.00,VWS V14.01,2013-01-25 08:51:00,
2013-01-25 03:52:00,29.4,27.1,30.12,WNW,283,0.0,0.0,91,0.00,,---,0.00,VWS V14.01,2013-01-25 08:52:00,
2013-01-25 03:53:00,29.5,27.2,30.12,WNW,283,0.0,0.0,91,0.00,,---,0.00,VWS V14.01,2013-01-25 08:53:00,
2013-01-25 03:54:00,29.5,27.2,30.12,WNW,283,1.0,2.0,91,0.00,,---,0.00,VWS V14.01,2013-01-25 08:54:00,
2013-01-25 03:55:00,29.5,27.2,30.12,WNW,283,1.0,2.0,91,0.00,,---,0.00,VWS V14.01,2013-01-25 08:55:00,
2013-01-25 03:56:00,29.5,27.2,30.12,WNW,283,0.0,2.0,91,0.00,,---,0.00,VWS V14.01,2013-01-25 08:56:00,
2013-01-25 03:57:00,29.5,27.2,30.12,WNW,283,0.0,2.0,91,0.00,,---,0.00,VWS V14.01,2013-01-25 08:57:00,
2013-01-25 03:58:00,29.5,27.2,30.12,WNW,283,0.0,2.0,91,0.00,,---,0.00,VWS V14.01,2013-01-25 08:58:00,
2013-01-25 03:59:00,29.5,27.2,30.12,West,275,0.0,2.0,91,0.00,,---,0.00,VWS V14.01,2013-01-25 08:59:00,
2013-01-25 04:00:00,29.5,27.2,30.11,WNW,283,0.0,2.0,91,0.00,,---,0.00,VWS V14.01,2013-01-25 09:00:00,
2013-01-25 04:01:00,29.5,27.2,30.11,WNW,283,0.0,0.0,91,0.00,,---,0.00,VWS V14.01,2013-01-25 09:01:00,
2013-01-25 04:02:00,29.5,27.2,30.11,WNW,283,0.0,0.0,91,0.00,,---,0.00,VWS V14.01,2013-01-25 09:02:00,
2013-01-25 04:03:00,29.5,27.2,30.11,WNW,283,0.0,0.0,91,0.00,,---,0.00,VWS V14.01,2013-01-25 09:03:00,
2013-01-25 04:04:00,29.5,27.2,30.11,WNW,283,0.0,0.0,91,0.00,,---,0.00,VWS V14.01,2013-01-25 09:04:00,
2013-01-25 04:05:00,29.5,27.2,30.11,WNW,283,0.0,0.0,91,0.00,,---,0.00,VWS V14.01,2013-01-25 09:05:00,
2013-01-25 04:06:00,29.7,27.4,30.11,WNW,283,0.0,0.0,91,0.00,,---,0.00,VWS V14.01,2013-01-25 09:06:00,
2013-01-25 04:07:00,29.7,27.4,30.11,WNW,283,0.0,0.0,91,0.00,,---,0.00,VWS V14.01,2013-01-25 09:07:00,
2013-01-25 04:08:00,29.7,27.4,30.11,WNW,283,0.0,0.0,91,0.00,,---,0.00,VWS V14.01,2013-01-25 09:08:00,
2013-01-25 04:09:00,29.7,27.4,30.11,WNW,283,0.0,0.0,91,0.00,,---,0.00,VWS V14.01,2013-01-25 09:09:00,
2013-01-25 04:10:00,29.7,27.4,30.11,WNW,283,0.0,0.0,91,0.00,,---,0.00,VWS V14.01,2013-01-25 09:10:00,
2013-01-25 04:11:00,29.7,27.4,30.11,WNW,283,0.0,0.0,91,0.00,,---,0.00,VWS V14.01,2013-01-25 09:11:00,
2013-01-25 04:12:00,29.7,27.4,30.11,WNW,283,0.0,0.0,91,0.00,,---,0.00,VWS V14.01,2013-01-25 09:12:00,
2013-01-25 04:13:00,29.7,27.4,30.11,WNW,283,0.0,0.0,91,0.00,,---,0.00,VWS V14.01,2013-01-25 09:13:00,
2013-01-25 04:14:00,29.7,27.4,30.11,WNW,283,0.0,0.0,91,0.00,,---,0.00,VWS V14.01,2013-01-25 09:14:00,
2013-01-25 04:15:00,29.7,27.4,30.11,WNW,283,0.0,0.0,91,0.00,,---,0.00,VWS V14.01,2013-01-25 09:15:00,
2013-01-25 04:16:00,29.7,27.4,30.11,WNW,283,0.0,0.0,91,0.00,,---,0.00,VWS V14.01,2013-01-25 09:16:00,
2013-01-25 04:17:00,29.8,27.5,30.11,WNW,283,0.0,0.0,91,0.00,,---,0.00,VWS V14.01,2013-01-25 09:17:00,
2013-01-25 04:18:00,29.8,27.5,30.11,WNW,283,0.0,0.0,91,0.00,,---,0.00,VWS V14.01,2013-01-25 09:18:00,
2013-01-25 04:19:00,29.8,27.5,30.11,WNW,283,0.0,0.0,91,0.00,,---,0.00,VWS V14.01,2013-01-25 09:19:00,
2013-01-25 04:20:00,29.8,27.5,30.11,WNW,283,0.0,0.0,91,0.00,,---,0.00,VWS V14.01,2013-01-25 09:20:00,
2013-01-25 04:21:00,29.8,27.5,30.11,WNW,283,0.0,0.0,91,0.00,,---,0.00,VWS V14.01,2013-01-25 09:21:00,
2013-01-25 04:22:00,29.8,27.5,30.11,WNW,283,0.0,0.0,91,0.00,,---,0.00,VWS V14.01,2013-01-25 09:22:00,
2013-01-25 04:23:00,29.8,27.5,30.11,WNW,283,0.0,0.0,91,0.00,,---,0.00,VWS V14.01,2013-01-25 09:23:00,
2013-01-25 04:24:00,29.8,27.5,30.11,WNW,283,2.0,2.0,91,0.00,,---,0.00,VWS V14.01,2013-01-25 09:24:00,
2013-01-25 04:25:00,29.8,27.5,30.11,WNW,283,0.0,2.0,91,0.00,,---,0.00,VWS V14.01,2013-01-25 09:25:00,
2013-01-25 04:26:00,29.8,27.5,30.11,WNW,283,0.0,2.0,91,0.00,,---,0.00,VWS V14.01,2013-01-25 09:26:00,
2013-01-25 04:27:00,29.8,27.5,30.11,WNW,283,0.0,2.0,91,0.00,,---,0.00,VWS V14.01,2013-01-25 09:27:00,
2013-01-25 04:28:00,29.8,27.5,30.11,WNW,283,0.0,2.0,91,0.00,,---,0.00,VWS V14.01,2013-01-25 09:28:00,
2013-01-25 04:29:00,29.8,27.5,30.11,WNW,283,0.0,2.0,91,0.00,,---,0.00,VWS V14.01,2013-01-25 09:29:00,
2013-01-25 04:30:00,29.8,27.5,30.11,WNW,283,0.0,2.0,91,0.00,,---,0.00,VWS V14.01,2013-01-25 09:30:00,
2013-01-25 04:31:00,29.8,27.5,30.11,WNW,283,0.0,0.0,91,0.00,,---,0.00,VWS V14.01,2013-01-25 09:31:00,
2013-01-25 04:32:00,29.8,27.5,30.11,WNW,283,0.0,0.0,91,0.00,,---,0.00,VWS V14.01,2013-01-25 09:32:00,
2013-01-25 04:33:00,29.8,27.5,30.11,WNW,283,0.0,0.0,91,0.00,,---,0.00,VWS V14.01,2013-01-25 09:33:00,
2013-01-25 04:34:00,29.8,27.5,30.11,WNW,283,0.0,0.0,91,0.00,,---,0.00,VWS V14.01,2013-01-25 09:34:00,
2013-01-25 04:35:00,29.8,27.5,30.11,WNW,283,0.0,0.0,91,0.00,,---,0.00,VWS V14.01,2013-01-25 09:35:00,
2013-01-25 04:36:00,29.8,27.5,30.11,WNW,283,0.0,0.0,91,0.00,,---,0.00,VWS V14.01,2013-01-25 09:36:00,
2013-01-25 04:37:00,29.8,27.5,30.11,WNW,283,0.0,0.0,91,0.00,,---,0.00,VWS V14.01,2013-01-25 09:37:00,
2013-01-25 04:38:00,29.8,27.8,30.11,WNW,283,0.0,0.0,92,0.00,,---,0.00,VWS V14.01,2013-01-25 09:38:00,
2013-01-25 04:39:00,29.8,27.8,30.11,WNW,283,0.0,0.0,92,0.00,,---,0.00,VWS V14.01,2013-01-25 09:39:00,
2013-01-25 04:40:00,29.8,27.8,30.11,WNW,283,0.0,0.0,92,0.00,,---,0.00,VWS V14.01,2013-01-25 09:40:00,
2013-01-25 04:41:00,30.0,28.0,30.11,WNW,283,0.0,0.0,92,0.00,,---,0.00,VWS V14.01,2013-01-25 09:41:00,
2013-01-25 04:42:00,30.0,28.0,30.11,WNW,283,0.0,0.0,92,0.00,,---,0.00,VWS V14.01,2013-01-25 09:42:00,
2013-01-25 04:43:00,30.0,28.0,30.11,WNW,283,0.0,0.0,92,0.00,,---,0.00,VWS V14.01,2013-01-25 09:43:00,
2013-01-25 04:44:00,30.0,28.0,30.11,WNW,283,0.0,0.0,92,0.00,,---,0.00,VWS V14.01,2013-01-25 09:44:00,
2013-01-25 04:45:00,30.0,28.0,30.11,WNW,283,0.0,0.0,92,0.00,,---,0.00,VWS V14.01,2013-01-25 09:45:00,
2013-01-25 04:46:00,30.0,28.0,30.11,WNW,283,0.0,0.0,92,0.00,,---,0.00,VWS V14.01,2013-01-25 09:46:00,
2013-01-25 04:47:00,30.0,28.0,30.11,WNW,283,0.0,0.0,92,0.00,,---,0.00,VWS V14.01,2013-01-25 09:47:00,
2013-01-25 04:48:00,30.0,28.0,30.11,WNW,283,0.0,0.0,92,0.00,,---,0.00,VWS V14.01,2013-01-25 09:48:00,
2013-01-25 04:49:00,30.0,28.0,30.11,WNW,283,0.0,0.0,92,0.00,,---,0.00,VWS V14.01,2013-01-25 09:49:00,
2013-01-25 04:50:00,30.0,28.0,30.11,WNW,283,0.0,0.0,92,0.00,,---,0.00,VWS V14.01,2013-01-25 09:50:00,
2013-01-25 04:51:00,30.0,28.0,30.11,WNW,283,0.0,0.0,92,0.00,,---,0.00,VWS V14.01,2013-01-25 09:51:00,
2013-01-25 04:52:00,30.0,28.0,30.11,WNW,283,0.0,0.0,92,0.00,,---,0.00,VWS V14.01,2013-01-25 09:52:00,
2013-01-25 04:53:00,30.0,28.0,30.11,WNW,283,0.0,0.0,92,0.00,,---,0.00,VWS V14.01,2013-01-25 09:53:00,
2013-01-25 04:54:00,30.1,28.1,30.11,WNW,283,0.0,0.0,92,0.00,,---,0.00,VWS V14.01,2013-01-25 09:54:00,
2013-01-25 04:55:00,30.1,28.1,30.11,WNW,283,0.0,0.0,92,0.00,,---,0.00,VWS V14.01,2013-01-25 09:55:00,
2013-01-25 04:56:00,30.1,28.1,30.11,WNW,283,0.0,0.0,92,0.00,,---,0.00,VWS V14.01,2013-01-25 09:56:00,
2013-01-25 04:57:00,30.1,28.1,30.11,WNW,283,0.0,0.0,92,0.00,,---,0.00,VWS V14.01,2013-01-25 09:57:00,
2013-01-25 04:58:00,30.1,28.1,30.11,WNW,283,0.0,0.0,92,0.00,,---,0.00,VWS V14.01,2013-01-25 09:58:00,
2013-01-25 04:59:00,30.1,28.1,30.11,WNW,283,0.0,0.0,92,0.00,,---,0.00,VWS V14.01,2013-01-25 09:59:00,
2013-01-25 05:00:00,30.1,28.1,30.09,WNW,283,0.0,0.0,92,0.00,,---,0.00,VWS V14.01,2013-01-25 10:00:00,
2013-01-25 05:01:00,30.1,28.1,30.09,WNW,283,0.0,0.0,92,0.00,,---,0.00,VWS V14.01,2013-01-25 10:01:00,
2013-01-25 05:02:00,30.1,28.1,30.09,WNW,283,0.0,0.0,92,0.00,,---,0.00,VWS V14.01,2013-01-25 10:02:00,
2013-01-25 05:03:00,30.1,28.1,30.09,WNW,283,1.0,3.0,92,0.00,,---,0.00,VWS V14.01,2013-01-25 10:03:00,
2013-01-25 05:04:00,30.1,28.1,30.09,WNW,283,0.0,3.0,92,0.00,,---,0.00,VWS V14.01,2013-01-25 10:04:00,
2013-01-25 05:05:00,30.3,28.3,30.09,WNW,283,1.0,3.0,92,0.00,,---,0.00,VWS V14.01,2013-01-25 10:05:00,
2013-01-25 05:06:00,30.3,28.3,30.09,WNW,283,0.0,3.0,92,0.00,,---,0.00,VWS V14.01,2013-01-25 10:06:00,
2013-01-25 05:07:00,30.3,28.3,30.09,WNW,283,0.0,3.0,92,0.00,,---,0.00,VWS V14.01,2013-01-25 10:07:00,
2013-01-25 05:08:00,30.3,28.3,30.09,WNW,283,0.0,3.0,92,0.00,,---,0.00,VWS V14.01,2013-01-25 10:08:00,
2013-01-25 05:09:00,30.3,28.3,30.09,WNW,283,0.0,3.0,92,0.00,,---,0.00,VWS V14.01,2013-01-25 10:09:00,
2013-01-25 05:10:00,30.3,28.3,30.09,WNW,283,0.0,3.0,92,0.00,,---,0.00,VWS V14.01,2013-01-25 10:10:00,
2013-01-25 05:11:00,30.3,28.3,30.09,WNW,283,0.0,0.0,92,0.00,,---,0.00,VWS V14.01,2013-01-25 10:11:00,
2013-01-25 05:12:00,30.3,28.3,30.09,WNW,283,0.0,0.0,92,0.00,,---,0.00,VWS V14.01,2013-01-25 10:12:00,
2013-01-25 05:13:00,30.3,28.3,30.09,WNW,283,0.0,0.0,92,0.00,,---,0.00,VWS V14.01,2013-01-25 10:13:00,
2013-01-25 05:14:00,30.3,28.3,30.09,WNW,283,2.0,2.0,92,0.00,,---,0.00,VWS V14.01,2013-01-25 10:14:00,
2013-01-25 05:15:00,30.4,28.4,30.10,WNW,283,0.0,2.0,92,0.00,,---,0.00,VWS V14.01,2013-01-25 10:15:00,
2013-01-25 05:16:00,30.4,28.4,30.10,WNW,283,0.0,2.0,92,0.00,,---,0.00,VWS V14.01,2013-01-25 10:16:00,
2013-01-25 05:17:00,30.4,28.4,30.10,WNW,283,0.0,2.0,92,0.00,,---,0.00,VWS V14.01,2013-01-25 10:17:00,
2013-01-25 05:18:00,30.4,28.4,30.10,WNW,283,0.0,2.0,92,0.00,,---,0.00,VWS V14.01,2013-01-25 10:18:00,
2013-01-25 05:19:00,30.4,28.4,30.10,WNW,283,0.0,2.0,92,0.00,,---,0.00,VWS V14.01,2013-01-25 10:19:00,
2013-01-25 05:20:00,30.4,28.4,30.10,WNW,283,0.0,2.0,92,0.00,,---,0.00,VWS V14.01,2013-01-25 10:20:00,
2013-01-25 05:21:00,30.4,28.4,30.10,WNW,283,0.0,2.0,92,0.00,,---,0.00,VWS V14.01,2013-01-25 10:21:00,
2013-01-25 05:22:00,30.4,28.4,30.10,WNW,283,0.0,2.0,92,0.00,,---,0.00,VWS V14.01,2013-01-25 10:22:00,
2013-01-25 05:23:00,30.4,28.4,30.10,WNW,283,0.0,2.0,92,0.00,,---,0.00,VWS V14.01,2013-01-25 10:23:00,
2013-01-25 05:24:00,30.4,28.4,30.10,WNW,283,2.0,3.0,92,0.00,,---,0.00,VWS V14.01,2013-01-25 10:24:00,
2013-01-25 05:25:00,30.4,28.4,30.10,WNW,283,0.0,5.0,92,0.00,,---,0.00,VWS V14.01,2013-01-25 10:25:00,
2013-01-25 05:26:00,30.4,28.4,30.10,WNW,283,4.0,5.0,92,0.00,,---,0.00,VWS V14.01,2013-01-25 10:26:00,
2013-01-25 05:27:00,30.4,28.4,30.10,WNW,283,2.0,5.0,92,0.00,,---,0.00,VWS V14.01,2013-01-25 10:27:00,
2013-01-25 05:28:00,30.4,28.4,30.10,WNW,283,1.0,5.0,92,0.00,,---,0.00,VWS V14.01,2013-01-25 10:28:00,
2013-01-25 05:29:00,30.4,28.4,30.10,WNW,283,1.0,5.0,92,0.00,,---,0.00,VWS V14.01,2013-01-25 10:29:00,
2013-01-25 05:30:00,30.6,28.6,30.09,WNW,283,0.0,5.0,92,0.00,,---,0.00,VWS V14.01,2013-01-25 10:30:00,
2013-01-25 05:31:00,30.6,28.6,30.09,WNW,283,0.0,2.0,92,0.00,,---,0.00,VWS V14.01,2013-01-25 10:31:00,
2013-01-25 05:32:00,30.6,28.6,30.09,WNW,283,1.0,2.0,92,0.00,,---,0.00,VWS V14.01,2013-01-25 10:32:00,
2013-01-25 05:33:00,30.6,28.6,30.09,WNW,283,0.0,2.0,92,0.00,,---,0.00,VWS V14.01,2013-01-25 10:33:00,
2013-01-25 05:34:00,30.6,28.6,30.09,WNW,283,0.0,2.0,92,0.00,,---,0.00,VWS V14.01,2013-01-25 10:34:00,
2013-01-25 05:35:00,30.6,28.6,30.09,WNW,283,0.0,2.0,92,0.00,,---,0.00,VWS V14.01,2013-01-25 10:35:00,
2013-01-25 05:36:00,30.6,28.6,30.09,WNW,283,0.0,2.0,92,0.00,,---,0.00,VWS V14.01,2013-01-25 10:36:00,
2013-01-25 05:37:00,30.6,28.6,30.09,WNW,283,1.0,3.0,92,0.00,,---,0.00,VWS V14.01,2013-01-25 10:37:00,
2013-01-25 05:38:00,30.6,28.6,30.09,WNW,283,1.0,3.0,92,0.00,,---,0.00,VWS V14.01,2013-01-25 10:38:00,
2013-01-25 05:39:00,30.6,28.6,30.09,West,275,1.0,3.0,92,0.00,,---,0.00,VWS V14.01,2013-01-25 10:39:00,
2013-01-25 05:40:00,30.6,28.6,30.09,WNW,283,2.0,3.0,92,0.00,,---,0.00,VWS V14.01,2013-01-25 10:40:00,
2013-01-25 05:41:00,30.6,28.6,30.09,WNW,283,2.0,2.0,92,0.00,,---,0.00,VWS V14.01,2013-01-25 10:41:00,
2013-01-25 05:42:00,30.6,28.6,30.09,WNW,283,0.0,3.0,92,0.00,,---,0.00,VWS V14.01,2013-01-25 10:42:00,
2013-01-25 05:43:00,30.6,28.6,30.09,WNW,283,2.0,3.0,92,0.00,,---,0.00,VWS V14.01,2013-01-25 10:43:00,
2013-01-25 05:44:00,30.7,28.7,30.09,WNW,283,2.0,3.0,92,0.00,,---,0.00,VWS V14.01,2013-01-25 10:44:00,
2013-01-25 05:45:00,30.7,28.7,30.10,WNW,283,2.0,3.0,92,0.00,,---,0.00,VWS V14.01,2013-01-25 10:45:00,
2013-01-25 05:46:00,30.7,28.7,30.10,WNW,283,2.0,3.0,92,0.00,,---,0.00,VWS V14.01,2013-01-25 10:46:00,
2013-01-25 05:47:00,30.7,28.7,30.10,WNW,283,0.0,3.0,92,0.00,,---,0.00,VWS V14.01,2013-01-25 10:47:00,
2013-01-25 05:48:00,30.7,28.7,30.10,WNW,283,1.0,3.0,92,0.00,,---,0.00,VWS V14.01,2013-01-25 10:48:00,
2013-01-25 05:49:00,30.7,28.7,30.10,WNW,283,0.0,3.0,92,0.00,,---,0.00,VWS V14.01,2013-01-25 10:49:00,
2013-01-25 05:50:00,30.7,28.7,30.10,WNW,283,0.0,3.0,92,0.00,,---,0.00,VWS V14.01,2013-01-25 10:50:00,
2013-01-25 05:51:00,30.7,28.7,30.10,WNW,283,0.0,0.0,92,0.00,,---,0.00,VWS V14.01,2013-01-25 10:51:00,
2013-01-25 05:52:00,30.7,28.7,30.10,WNW,283,0.0,2.0,92,0.00,,---,0.00,VWS V14.01,2013-01-25 10:52:00,
2013-01-25 05:53:00,30.9,28.9,30.10,WNW,283,0.0,2.0,92,0.00,,---,0.00,VWS V14.01,2013-01-25 10:53:00,
2013-01-25 05:54:00,30.9,28.9,30.10,WNW,283,0.0,2.0,92,0.00,,---,0.00,VWS V14.01,2013-01-25 10:54:00,
2013-01-25 05:55:00,30.9,28.9,30.10,WNW,283,0.0,2.0,92,0.00,,---,0.00,VWS V14.01,2013-01-25 10:55:00,
2013-01-25 05:56:00,30.9,28.9,30.10,WNW,283,0.0,2.0,92,0.00,,---,0.00,VWS V14.01,2013-01-25 10:56:00,
2013-01-25 05:57:00,30.9,28.9,30.10,WNW,283,0.0,2.0,92,0.00,,---,0.00,VWS V14.01,2013-01-25 10:57:00,
2013-01-25 05:58:00,30.9,28.9,30.10,WNW,283,0.0,2.0,92,0.00,,---,0.00,VWS V14.01,2013-01-25 10:58:00,
2013-01-25 05:59:00,30.9,28.9,30.10,WNW,283,0.0,2.0,92,0.00,,---,0.00,VWS V14.01,2013-01-25 10:59:00,
2013-01-25 06:00:00,31.0,29.0,30.10,WNW,283,0.0,2.0,92,0.00,,---,0.00,VWS V14.01,2013-01-25 11:00:00,
2013-01-25 06:01:00,31.0,29.0,30.10,WNW,283,0.0,2.0,92,0.00,,---,0.00,VWS V14.01,2013-01-25 11:01:00,
2013-01-25 06:02:00,31.0,29.0,30.10,WNW,283,0.0,2.0,92,0.00,,---,0.00,VWS V14.01,2013-01-25 11:02:00,
2013-01-25 06:03:00,31.0,29.0,30.10,WNW,283,0.0,2.0,92,0.00,,---,0.00,VWS V14.01,2013-01-25 11:03:00,
2013-01-25 06:04:00,31.0,29.0,30.10,West,275,0.0,2.0,92,0.00,,---,0.00,VWS V14.01,2013-01-25 11:04:00,
2013-01-25 06:05:00,31.0,29.0,30.10,WNW,283,0.0,2.0,92,0.00,,---,0.00,VWS V14.01,2013-01-25 11:05:00,
2013-01-25 06:06:00,31.0,29.0,30.10,WNW,283,0.0,2.0,92,0.00,,---,0.00,VWS V14.01,2013-01-25 11:06:00,
2013-01-25 06:07:00,31.0,29.0,30.10,WNW,283,2.0,2.0,92,0.00,,---,0.00,VWS V14.01,2013-01-25 11:07:00,
2013-01-25 06:08:00,31.0,29.0,30.10,WNW,283,0.0,2.0,92,0.00,,---,0.00,VWS V14.01,2013-01-25 11:08:00,
2013-01-25 06:09:00,31.0,29.0,30.10,WNW,283,1.0,3.0,92,0.00,,---,0.00,VWS V14.01,2013-01-25 11:09:00,
2013-01-25 06:10:00,31.0,29.0,30.10,WNW,283,3.0,3.0,92,0.00,,---,0.00,VWS V14.01,2013-01-25 11:10:00,
2013-01-25 06:11:00,31.0,29.0,30.10,WNW,283,2.0,3.0,92,0.00,,---,0.00,VWS V14.01,2013-01-25 11:11:00,
2013-01-25 06:12:00,31.0,29.0,30.10,WNW,283,1.0,3.0,92,0.00,,---,0.00,VWS V14.01,2013-01-25 11:12:00,
2013-01-25 06:13:00,31.2,29.1,30.10,WNW,283,0.0,3.0,92,0.00,,---,0.00,VWS V14.01,2013-01-25 11:13:00,
2013-01-25 06:14:00,31.2,29.1,30.10,WNW,283,1.0,3.0,92,0.00,,---,0.00,VWS V14.01,2013-01-25 11:14:00,
2013-01-25 06:15:00,31.2,29.1,30.10,WNW,283,0.0,3.0,92,0.00,,---,0.00,VWS V14.01,2013-01-25 11:15:00,
2013-01-25 06:16:00,31.2,29.1,30.10,WNW,283,2.0,3.0,92,0.00,,---,0.00,VWS V14.01,2013-01-25 11:16:00,
2013-01-25 06:17:00,31.2,29.1,30.10,WNW,283,2.0,3.0,92,0.00,,---,0.00,VWS V14.01,2013-01-25 11:17:00,
2013-01-25 06:18:00,31.2,29.1,30.10,WNW,283,1.0,3.0,92,0.00,,---,0.00,VWS V14.01,2013-01-25 11:18:00,
2013-01-25 06:19:00,31.2,29.1,30.10,WNW,283,1.0,3.0,92,0.00,,---,0.00,VWS V14.01,2013-01-25 11:19:00,
2013-01-25 06:20:00,31.2,29.1,30.10,WNW,283,2.0,3.0,92,0.00,,---,0.00,VWS V14.01,2013-01-25 11:20:00,
2013-01-25 06:21:00,31.2,29.1,30.10,WNW,283,2.0,2.0,92,0.00,,---,0.00,VWS V14.01,2013-01-25 11:21:00,
2013-01-25 06:22:00,31.2,29.1,30.10,WNW,283,1.0,2.0,92,0.00,,---,0.00,VWS V14.01,2013-01-25 11:22:00,
2013-01-25 06:23:00,31.2,29.1,30.10,WNW,283,0.0,2.0,92,0.00,,---,0.00,VWS V14.01,2013-01-25 11:23:00,
2013-01-25 06:24:00,31.2,29.1,30.10,WNW,283,0.0,2.0,92,0.00,,---,0.00,VWS V14.01,2013-01-25 11:24:00,
2013-01-25 06:25:00,31.2,29.1,30.10,WNW,283,0.0,2.0,92,0.00,,---,0.00,VWS V14.01,2013-01-25 11:25:00,
2013-01-25 06:26:00,31.2,29.1,30.10,WNW,283,0.0,2.0,92,0.00,,---,0.00,VWS V14.01,2013-01-25 11:26:00,
2013-01-25 06:27:00,31.2,29.1,30.10,WNW,283,0.0,2.0,92,0.00,,---,0.00,VWS V14.01,2013-01-25 11:27:00,
2013-01-25 06:28:00,31.2,29.1,30.10,WNW,283,0.0,2.0,92,0.00,,---,0.00,VWS V14.01,2013-01-25 11:28:00,
2013-01-25 06:29:00,31.2,29.1,30.10,WNW,283,3.0,3.0,92,0.00,,---,0.00,VWS V14.01,2013-01-25 11:29:00,
2013-01-25 06:30:00,31.2,29.1,30.10,WNW,283,0.0,3.0,92,0.00,,---,0.00,VWS V14.01,2013-01-25 11:30:00,
2013-01-25 06:31:00,31.2,29.4,30.10,WNW,283,0.0,1.0,93,0.00,,---,0.00,VWS V14.01,2013-01-25 11:31:00,
2013-01-25 06:32:00,31.2,29.4,30.10,WNW,283,3.0,3.0,93,0.00,,---,0.00,VWS V14.01,2013-01-25 11:32:00,
2013-01-25 06:33:00,31.2,29.4,30.10,WNW,283,1.0,3.0,93,0.00,,---,0.00,VWS V14.01,2013-01-25 11:33:00,
2013-01-25 06:34:00,31.3,29.2,30.10,WNW,283,2.0,3.0,92,0.00,,---,0.00,VWS V14.01,2013-01-25 11:34:00,
2013-01-25 06:35:00,31.2,29.1,30.10,WNW,283,1.0,4.0,92,0.00,,---,0.00,VWS V14.01,2013-01-25 11:35:00,
2013-01-25 06:36:00,31.2,29.1,30.10,WNW,283,0.0,4.0,92,0.00,,---,0.00,VWS V14.01,2013-01-25 11:36:00,
2013-01-25 06:37:00,31.2,29.1,30.10,WNW,283,0.0,4.0,92,0.00,,---,0.00,VWS V14.01,2013-01-25 11:37:00,
2013-01-25 06:38:00,31.2,29.1,30.10,WNW,283,0.0,4.0,92,0.00,,---,0.00,VWS V14.01,2013-01-25 11:38:00,
2013-01-25 06:39:00,31.2,29.1,30.10,WNW,283,0.0,4.0,92,0.00,,---,0.00,VWS V14.01,2013-01-25 11:39:00,
2013-01-25 06:40:00,31.2,29.1,30.10,WNW,283,0.0,4.0,92,0.00,,---,0.00,VWS V14.01,2013-01-25 11:40:00,
2013-01-25 06:41:00,31.2,29.1,30.10,WNW,283,0.0,0.0,92,0.00,,---,0.00,VWS V14.01,2013-01-25 11:41:00,
2013-01-25 06:42:00,31.2,29.1,30.10,WNW,283,0.0,0.0,92,0.00,,---,0.00,VWS V14.01,2013-01-25 11:42:00,
2013-01-25 06:43:00,31.2,29.4,30.10,WNW,283,0.0,0.0,93,0.00,,---,0.00,VWS V14.01,2013-01-25 11:43:00,
2013-01-25 06:44:00,31.2,29.4,30.10,WNW,283,0.0,0.0,93,0.00,,---,0.00,VWS V14.01,2013-01-25 11:44:00,
2013-01-25 06:45:00,31.2,29.4,30.10,WNW,283,0.0,0.0,93,0.00,,---,0.00,VWS V14.01,2013-01-25 11:45:00,
2013-01-25 06:46:00,31.2,29.4,30.10,WNW,283,0.0,0.0,93,0.00,,---,0.00,VWS V14.01,2013-01-25 11:46:00,
2013-01-25 06:47:00,31.2,29.4,30.10,WNW,283,0.0,0.0,93,0.00,,---,0.00,VWS V14.01,2013-01-25 11:47:00,
2013-01-25 06:48:00,31.2,29.4,30.10,WNW,283,0.0,0.0,93,0.00,,---,0.00,VWS V14.01,2013-01-25 11:48:00,
2013-01-25 06:49:00,31.2,29.4,30.10,WNW,283,0.0,0.0,93,0.00,,---,0.00,VWS V14.01,2013-01-25 11:49:00,
2013-01-25 06:50:00,31.2,29.4,30.10,WNW,283,0.0,0.0,93,0.00,,---,0.00,VWS V14.01,2013-01-25 11:50:00,
2013-01-25 06:51:00,31.2,29.4,30.10,WNW,283,0.0,0.0,93,0.00,,---,0.00,VWS V14.01,2013-01-25 11:51:00,
2013-01-25 06:52:00,31.3,29.5,30.10,WNW,283,0.0,0.0,93,0.00,,---,0.00,VWS V14.01,2013-01-25 11:52:00,
2013-01-25 06:53:00,31.3,29.5,30.10,WNW,283,0.0,0.0,93,0.00,,---,0.00,VWS V14.01,2013-01-25 11:53:00,
2013-01-25 06:54:00,31.3,29.5,30.10,WNW,283,0.0,0.0,93,0.00,,---,0.00,VWS V14.01,2013-01-25 11:54:00,
2013-01-25 06:55:00,31.3,29.5,30.10,WNW,283,0.0,0.0,93,0.00,,---,0.00,VWS V14.01,2013-01-25 11:55:00,
2013-01-25 06:56:00,31.3,29.5,30.10,WNW,283,0.0,0.0,93,0.00,,---,0.00,VWS V14.01,2013-01-25 11:56:00,
2013-01-25 06:57:00,31.3,29.5,30.10,WNW,283,0.0,0.0,93,0.00,,---,0.00,VWS V14.01,2013-01-25 11:57:00,
2013-01-25 06:58:00,31.3,29.5,30.10,WNW,283,0.0,0.0,93,0.00,,---,0.00,VWS V14.01,2013-01-25 11:58:00,
2013-01-25 06:59:00,31.3,29.5,30.10,WNW,283,0.0,0.0,93,0.00,,---,0.00,VWS V14.01,2013-01-25 11:59:00,
2013-01-25 07:00:00,31.3,29.5,30.11,WNW,283,0.0,0.0,93,0.00,,---,0.00,VWS V14.01,2013-01-25 12:00:00,
2013-01-25 07:01:00,31.3,29.5,30.11,WNW,283,0.0,0.0,93,0.00,,---,0.00,VWS V14.01,2013-01-25 12:01:00,
2013-01-25 07:02:00,31.3,29.5,30.11,WNW,283,0.0,0.0,93,0.00,,---,0.00,VWS V14.01,2013-01-25 12:02:00,
2013-01-25 07:03:00,31.3,29.5,30.11,WNW,283,0.0,0.0,93,0.00,,---,0.00,VWS V14.01,2013-01-25 12:03:00,
2013-01-25 07:04:00,31.5,29.7,30.11,WNW,283,0.0,0.0,93,0.00,,---,0.00,VWS V14.01,2013-01-25 12:04:00,
2013-01-25 07:05:00,31.5,29.7,30.11,WNW,283,0.0,0.0,93,0.00,,---,0.00,VWS V14.01,2013-01-25 12:05:00,
2013-01-25 07:06:00,31.5,29.7,30.11,WNW,283,0.0,0.0,93,0.00,,---,0.00,VWS V14.01,2013-01-25 12:06:00,
2013-01-25 07:07:00,31.5,29.7,30.11,WNW,283,0.0,0.0,93,0.00,,---,0.00,VWS V14.01,2013-01-25 12:07:00,
2013-01-25 07:08:00,31.5,29.7,30.11,WNW,283,0.0,0.0,93,0.00,,---,0.00,VWS V14.01,2013-01-25 12:08:00,
2013-01-25 07:09:00,31.5,29.7,30.11,WNW,283,0.0,0.0,93,0.00,,---,0.00,VWS V14.01,2013-01-25 12:09:00,
2013-01-25 07:10:00,31.5,29.7,30.11,WNW,283,0.0,0.0,93,0.00,,---,0.00,VWS V14.01,2013-01-25 12:10:00,
2013-01-25 07:11:00,31.5,29.7,30.11,WNW,283,0.0,0.0,93,0.00,,---,0.00,VWS V14.01,2013-01-25 12:11:00,
2013-01-25 07:12:00,31.5,29.7,30.11,WNW,283,0.0,0.0,93,0.00,,---,0.00,VWS V14.01,2013-01-25 12:12:00,
2013-01-25 07:13:00,31.5,29.7,30.11,WNW,283,0.0,0.0,93,0.00,,---,0.00,VWS V14.01,2013-01-25 12:13:00,
2013-01-25 07:14:00,31.5,29.7,30.11,WNW,283,0.0,0.0,93,0.00,,---,0.00,VWS V14.01,2013-01-25 12:14:00,
2013-01-25 07:15:00,31.5,29.7,30.11,WNW,283,0.0,0.0,93,0.00,,---,0.00,VWS V14.01,2013-01-25 12:15:00,
2013-01-25 07:16:00,31.5,29.7,30.11,WNW,283,0.0,0.0,93,0.00,,---,0.00,VWS V14.01,2013-01-25 12:16:00,
2013-01-25 07:17:00,31.6,29.8,30.11,WNW,283,0.0,0.0,93,0.00,,---,0.00,VWS V14.01,2013-01-25 12:17:00,
2013-01-25 07:18:00,31.6,29.8,30.11,WNW,283,0.0,0.0,93,0.00,,---,0.00,VWS V14.01,2013-01-25 12:18:00,
2013-01-25 07:19:00,31.6,29.8,30.11,WNW,283,0.0,0.0,93,0.00,,---,0.00,VWS V14.01,2013-01-25 12:19:00,
2013-01-25 07:20:00,31.6,29.8,30.11,WNW,283,0.0,0.0,93,0.00,,---,0.00,VWS V14.01,2013-01-25 12:20:00,
2013-01-25 07:21:00,31.6,29.8,30.11,WNW,283,0.0,0.0,93,0.00,,---,0.00,VWS V14.01,2013-01-25 12:21:00,
2013-01-25 07:22:00,31.6,29.8,30.11,WNW,283,0.0,0.0,93,0.00,,---,0.00,VWS V14.01,2013-01-25 12:22:00,
2013-01-25 07:23:00,31.6,29.8,30.11,WNW,283,0.0,0.0,93,0.00,,---,0.00,VWS V14.01,2013-01-25 12:23:00,
2013-01-25 07:24:00,31.6,29.8,30.11,WNW,283,0.0,0.0,93,0.00,,---,0.00,VWS V14.01,2013-01-25 12:24:00,
2013-01-25 07:25:00,31.6,29.8,30.11,WNW,283,0.0,0.0,93,0.00,,---,0.00,VWS V14.01,2013-01-25 12:25:00,
2013-01-25 07:26:00,31.6,29.8,30.11,WNW,283,0.0,0.0,93,0.00,,---,0.00,VWS V14.01,2013-01-25 12:26:00,
2013-01-25 07:27:00,31.6,29.8,30.11,WNW,283,0.0,0.0,93,0.00,,---,0.00,VWS V14.01,2013-01-25 12:27:00,
2013-01-25 07:28:00,31.6,29.8,30.11,WNW,283,0.0,0.0,93,0.00,,---,0.00,VWS V14.01,2013-01-25 12:28:00,
2013-01-25 07:29:00,31.8,30.0,30.11,WNW,283,0.0,0.0,93,0.00,,---,0.00,VWS V14.01,2013-01-25 12:29:00,
2013-01-25 07:30:00,31.8,30.0,30.10,WNW,283,0.0,0.0,93,0.00,,---,0.00,VWS V14.01,2013-01-25 12:30:00,
2013-01-25 07:31:00,31.8,30.0,30.10,WNW,283,0.0,0.0,93,0.00,,---,0.00,VWS V14.01,2013-01-25 12:31:00,
2013-01-25 07:32:00,31.8,30.0,30.10,WNW,283,0.0,0.0,93,0.00,,---,0.00,VWS V14.01,2013-01-25 12:32:00,
2013-01-25 07:33:00,31.8,30.0,30.10,WNW,283,0.0,0.0,93,0.00,,---,0.00,VWS V14.01,2013-01-25 12:33:00,
2013-01-25 07:34:00,31.8,30.0,30.10,WNW,283,0.0,0.0,93,0.00,,---,0.00,VWS V14.01,2013-01-25 12:34:00,
2013-01-25 07:35:00,31.8,30.0,30.10,WNW,283,0.0,0.0,93,0.00,,---,0.00,VWS V14.01,2013-01-25 12:35:00,
2013-01-25 07:36:00,31.8,30.0,30.10,WNW,283,0.0,0.0,93,0.00,,---,0.00,VWS V14.01,2013-01-25 12:36:00,
2013-01-25 07:37:00,31.8,30.0,30.10,WNW,283,0.0,0.0,93,0.00,,---,0.00,VWS V14.01,2013-01-25 12:37:00,
2013-01-25 07:38:00,31.8,30.0,30.10,WNW,283,0.0,0.0,93,0.00,,---,0.00,VWS V14.01,2013-01-25 12:38:00,
2013-01-25 07:39:00,31.8,30.0,30.10,WNW,283,0.0,0.0,93,0.00,,---,0.00,VWS V14.01,2013-01-25 12:39:00,
2013-01-25 07:40:00,31.8,30.0,30.10,WNW,283,0.0,0.0,93,0.00,,---,0.00,VWS V14.01,2013-01-25 12:40:00,
2013-01-25 07:41:00,31.8,30.0,30.10,WNW,283,0.0,1.0,93,0.00,,---,0.00,VWS V14.01,2013-01-25 12:41:00,
2013-01-25 07:42:00,31.8,30.0,30.10,WNW,283,2.0,2.0,93,0.00,,---,0.00,VWS V14.01,2013-01-25 12:42:00,
2013-01-25 07:43:00,31.8,30.0,30.10,WNW,283,0.0,2.0,93,0.00,,---,0.00,VWS V14.01,2013-01-25 12:43:00,
2013-01-25 07:44:00,31.9,30.1,30.10,WNW,283,0.0,2.0,93,0.00,,---,0.00,VWS V14.01,2013-01-25 12:44:00,
2013-01-25 07:45:00,31.9,30.1,30.10,WNW,283,0.0,2.0,93,0.00,,---,0.00,VWS V14.01,2013-01-25 12:45:00,
2013-01-25 07:46:00,31.9,30.1,30.10,WNW,283,0.0,2.0,93,0.00,,---,0.00,VWS V14.01,2013-01-25 12:46:00,
2013-01-25 07:47:00,31.9,30.1,30.10,WNW,283,0.0,2.0,93,0.00,,---,0.00,VWS V14.01,2013-01-25 12:47:00,
2013-01-25 07:48:00,31.9,30.1,30.10,WNW,283,0.0,2.0,93,0.00,,---,0.00,VWS V14.01,2013-01-25 12:48:00,
2013-01-25 07:49:00,31.9,30.1,30.10,WNW,283,0.0,2.0,93,0.00,,---,0.00,VWS V14.01,2013-01-25 12:49:00,
2013-01-25 07:50:00,31.9,30.1,30.10,WNW,283,0.0,2.0,93,0.00,,---,0.00,VWS V14.01,2013-01-25 12:50:00,
2013-01-25 07:51:00,31.9,30.1,30.10,WNW,283,0.0,0.0,93,0.00,,---,0.00,VWS V14.01,2013-01-25 12:51:00,
2013-01-25 07:52:00,31.9,30.1,30.10,WNW,283,0.0,0.0,93,0.00,,---,0.00,VWS V14.01,2013-01-25 12:52:00,
2013-01-25 07:53:00,31.9,30.1,30.10,WNW,283,0.0,0.0,93,0.00,,---,0.00,VWS V14.01,2013-01-25 12:53:00,
2013-01-25 07:54:00,31.9,30.1,30.10,WNW,283,0.0,0.0,93,0.00,,---,0.00,VWS V14.01,2013-01-25 12:54:00,
2013-01-25 07:55:00,31.9,30.1,30.10,WNW,283,0.0,0.0,93,0.00,,---,0.00,VWS V14.01,2013-01-25 12:55:00,
2013-01-25 07:56:00,31.9,30.1,30.10,WNW,283,0.0,0.0,93,0.00,,---,0.00,VWS V14.01,2013-01-25 12:56:00,
2013-01-25 07:57:00,31.9,30.1,30.10,WNW,283,0.0,0.0,93,0.00,,---,0.00,VWS V14.01,2013-01-25 12:57:00,
2013-01-25 07:58:00,31.9,30.1,30.10,WNW,283,0.0,0.0,93,0.00,,---,0.00,VWS V14.01,2013-01-25 12:58:00,
2013-01-25 07:59:00,31.9,30.1,30.10,WNW,283,0.0,0.0,93,0.00,,---,0.00,VWS V14.01,2013-01-25 12:59:00,
2013-01-25 08:00:00,31.9,30.1,30.10,WNW,283,0.0,0.0,93,0.00,,---,0.00,VWS V14.01,2013-01-25 13:00:00,
2013-01-25 08:01:00,31.9,30.1,30.10,WNW,283,0.0,0.0,93,0.00,,---,0.00,VWS V14.01,2013-01-25 13:01:00,
2013-01-25 08:02:00,31.9,30.1,30.10,WNW,283,0.0,0.0,93,0.00,,---,0.00,VWS V14.01,2013-01-25 13:02:00,
2013-01-25 08:03:00,31.9,30.1,30.10,WNW,283,0.0,0.0,93,0.00,,---,0.00,VWS V14.01,2013-01-25 13:03:00,
2013-01-25 08:04:00,31.9,30.1,30.10,WNW,283,0.0,0.0,93,0.00,,---,0.00,VWS V14.01,2013-01-25 13:04:00,
2013-01-25 08:05:00,31.9,30.1,30.10,WNW,283,0.0,0.0,93,0.00,,---,0.00,VWS V14.01,2013-01-25 13:05:00,
2013-01-25 08:06:00,31.9,30.1,30.10,WNW,283,0.0,0.0,93,0.00,,---,0.00,VWS V14.01,2013-01-25 13:06:00,
2013-01-25 08:07:00,31.9,30.1,30.10,WNW,283,0.0,0.0,93,0.00,,---,0.00,VWS V14.01,2013-01-25 13:07:00,
2013-01-25 08:08:00,31.9,30.1,30.10,WNW,283,0.0,0.0,93,0.00,,---,0.00,VWS V14.01,2013-01-25 13:08:00,
2013-01-25 08:09:00,31.9,30.1,30.10,WNW,283,0.0,0.0,93,0.00,,---,0.00,VWS V14.01,2013-01-25 13:09:00,
2013-01-25 08:10:00,31.9,30.1,30.10,WNW,283,0.0,0.0,93,0.00,,---,0.00,VWS V14.01,2013-01-25 13:10:00,
2013-01-25 08:11:00,31.9,30.1,30.10,WNW,283,0.0,0.0,93,0.00,,---,0.00,VWS V14.01,2013-01-25 13:11:00,
2013-01-25 08:12:00,31.9,30.1,30.10,WNW,283,0.0,0.0,93,0.00,,---,0.00,VWS V14.01,2013-01-25 13:12:00,
2013-01-25 08:13:00,31.9,30.1,30.10,WNW,283,0.0,0.0,93,0.00,,---,0.00,VWS V14.01,2013-01-25 13:13:00,
2013-01-25 08:14:00,32.1,30.3,30.10,WNW,283,0.0,0.0,93,0.00,,---,0.00,VWS V14.01,2013-01-25 13:14:00,
2013-01-25 08:15:00,32.1,30.3,30.11,WNW,283,0.0,0.0,93,0.00,,---,0.00,VWS V14.01,2013-01-25 13:15:00,
2013-01-25 08:16:00,32.1,30.3,30.11,WNW,283,0.0,0.0,93,0.00,,---,0.00,VWS V14.01,2013-01-25 13:16:00,
2013-01-25 08:17:00,32.1,30.3,30.11,WNW,283,0.0,0.0,93,0.00,,---,0.00,VWS V14.01,2013-01-25 13:17:00,
2013-01-25 08:18:00,32.1,30.3,30.11,WNW,283,0.0,0.0,93,0.00,,---,0.00,VWS V14.01,2013-01-25 13:18:00,
2013-01-25 08:19:00,32.1,30.3,30.11,WNW,283,0.0,1.0,93,0.00,,---,0.00,VWS V14.01,2013-01-25 13:19:00,
2013-01-25 08:20:00,32.1,30.3,30.11,WNW,283,2.0,2.0,93,0.00,,---,0.00,VWS V14.01,2013-01-25 13:20:00,
2013-01-25 08:21:00,32.1,30.3,30.11,WNW,283,0.0,1.0,93,0.00,,---,0.00,VWS V14.01,2013-01-25 13:21:00,
2013-01-25 08:22:00,32.2,30.4,30.11,WNW,283,0.0,1.0,93,0.00,,---,0.00,VWS V14.01,2013-01-25 13:22:00,
2013-01-25 08:23:00,32.2,30.4,30.11,WNW,283,0.0,1.0,93,0.00,,---,0.00,VWS V14.01,2013-01-25 13:23:00,
2013-01-25 08:24:00,32.2,30.4,30.11,WNW,283,0.0,1.0,93,0.00,,---,0.00,VWS V14.01,2013-01-25 13:24:00,
2013-01-25 08:25:00,32.4,30.9,30.11,WNW,283,1.0,1.0,94,0.00,,---,0.00,VWS V14.01,2013-01-25 13:25:00,
2013-01-25 08:26:00,32.4,30.9,30.11,WNW,283,0.0,1.0,94,0.00,,---,0.00,VWS V14.01,2013-01-25 13:26:00,
2013-01-25 08:27:00,32.4,30.9,30.11,WNW,283,0.0,1.0,94,0.00,,---,0.00,VWS V14.01,2013-01-25 13:27:00,
2013-01-25 08:28:00,32.4,30.9,30.11,WNW,283,1.0,1.0,94,0.00,,---,0.00,VWS V14.01,2013-01-25 13:28:00,
2013-01-25 08:29:00,32.5,31.0,30.11,WNW,283,2.0,2.0,94,0.00,,---,0.00,VWS V14.01,2013-01-25 13:29:00,
2013-01-25 08:30:00,32.7,31.2,30.10,WNW,283,2.0,2.0,94,0.00,,---,0.00,VWS V14.01,2013-01-25 13:30:00,
2013-01-25 08:31:00,32.8,31.3,30.10,West,264,4.0,6.0,94,0.00,,---,0.00,VWS V14.01,2013-01-25 13:31:00,
2013-01-25 08:32:00,32.9,31.4,30.10,West,262,0.0,6.0,94,0.00,,---,0.00,VWS V14.01,2013-01-25 13:32:00,
2013-01-25 08:33:00,33.2,31.7,30.10,West,262,0.0,6.0,94,0.00,,---,0.00,VWS V14.01,2013-01-25 13:33:00,
2013-01-25 08:34:00,33.2,31.7,30.10,SW,227,3.0,6.0,94,0.00,,---,0.00,VWS V14.01,2013-01-25 13:34:00,
2013-01-25 08:35:00,33.4,31.9,30.10,SW,227,0.0,6.0,94,0.00,,---,0.00,VWS V14.01,2013-01-25 13:35:00,
2013-01-25 08:36:00,33.5,32.0,30.10,SW,233,0.0,6.0,94,0.00,,---,0.00,VWS V14.01,2013-01-25 13:36:00,
2013-01-25 08:37:00,33.7,32.2,30.10,SW,234,0.0,6.0,94,0.00,,---,0.00,VWS V14.01,2013-01-25 13:37:00,
2013-01-25 08:38:00,33.8,32.3,30.10,SW,234,0.0,6.0,94,0.00,,---,0.00,VWS V14.01,2013-01-25 13:38:00,
2013-01-25 08:39:00,33.8,32.3,30.10,WNW,282,4.0,6.0,94,0.00,,---,0.00,VWS V14.01,2013-01-25 13:39:00,
2013-01-25 08:40:00,34.0,32.5,30.10,WNW,285,2.0,6.0,94,0.00,,---,0.00,VWS V14.01,2013-01-25 13:40:00,
2013-01-25 08:41:00,34.1,32.8,30.10,WNW,285,1.0,5.0,95,0.00,,---,0.00,VWS V14.01,2013-01-25 13:41:00,
2013-01-25 08:42:00,34.3,33.0,30.10,WNW,285,1.0,5.0,95,0.00,,---,0.00,VWS V14.01,2013-01-25 13:42:00,
2013-01-25 08:43:00,34.4,33.1,30.10,WNW,299,3.0,5.0,95,0.00,,---,0.00,VWS V14.01,2013-01-25 13:43:00,
2013-01-25 08:44:00,34.9,33.6,30.10,WNW,295,2.0,5.0,95,0.00,,---,0.00,VWS V14.01,2013-01-25 13:44:00,
2013-01-25 08:45:00,35.0,33.7,30.09,WNW,295,0.0,5.0,95,0.00,,---,0.00,VWS V14.01,2013-01-25 13:45:00,
2013-01-25 08:46:00,35.3,34.0,30.09,WNW,293,6.0,6.0,95,0.00,,---,0.00,VWS V14.01,2013-01-25 13:46:00,
2013-01-25 08:47:00,35.5,34.2,30.09,West,269,1.0,6.0,95,0.00,,---,0.00,VWS V14.01,2013-01-25 13:47:00,
2013-01-25 08:48:00,35.8,34.5,30.09,SW,217,2.0,6.0,95,0.00,,---,0.00,VWS V14.01,2013-01-25 13:48:00,
2013-01-25 08:49:00,35.9,34.6,30.09,NW,317,7.0,7.0,95,0.00,,---,0.00,VWS V14.01,2013-01-25 13:49:00,
2013-01-25 08:50:00,36.3,35.0,30.09,WNW,282,2.0,8.0,95,0.00,,---,0.00,VWS V14.01,2013-01-25 13:50:00,
2013-01-25 08:51:00,36.5,35.2,30.09,WNW,295,8.0,12.0,95,0.00,,---,0.00,VWS V14.01,2013-01-25 13:51:00,
2013-01-25 08:52:00,36.8,35.5,30.09,WNW,282,6.0,12.0,95,0.00,,---,0.00,VWS V14.01,2013-01-25 13:52:00,
2013-01-25 08:53:00,37.0,35.7,30.09,WNW,282,2.0,12.0,95,0.00,,---,0.00,VWS V14.01,2013-01-25 13:53:00,
2013-01-25 08:54:00,37.2,35.9,30.09,WNW,282,5.0,12.0,95,0.00,,---,0.00,VWS V14.01,2013-01-25 13:54:00,
2013-01-25 08:55:00,37.3,36.0,30.09,WNW,283,2.0,12.0,95,0.00,,---,0.00,VWS V14.01,2013-01-25 13:55:00,
2013-01-25 08:56:00,37.3,36.0,30.09,WNW,295,3.0,12.0,95,0.00,,---,0.00,VWS V14.01,2013-01-25 13:56:00,
2013-01-25 08:57:00,37.5,36.2,30.09,WNW,283,7.0,12.0,95,0.00,,---,0.00,VWS V14.01,2013-01-25 13:57:00,
2013-01-25 08:58:00,37.5,36.2,30.09,SW,235,6.0,12.0,95,0.00,,---,0.00,VWS V14.01,2013-01-25 13:58:00,
2013-01-25 08:59:00,37.8,36.5,30.09,WNW,296,7.0,12.0,95,0.00,,---,0.00,VWS V14.01,2013-01-25 13:59:00,
2013-01-25 09:00:00,37.8,36.5,30.08,NW,309,9.0,12.0,95,0.00,,---,0.00,VWS V14.01,2013-01-25 14:00:00,
2013-01-25 09:01:00,37.9,36.6,30.08,WNW,299,6.0,9.0,95,0.00,,---,0.00,VWS V14.01,2013-01-25 14:01:00,
2013-01-25 09:02:00,38.0,36.7,30.08,WNW,283,5.0,11.0,95,0.00,,---,0.00,VWS V14.01,2013-01-25 14:02:00,
2013-01-25 09:03:00,38.2,36.9,30.08,West,265,3.0,11.0,95,0.00,,---,0.00,VWS V14.01,2013-01-25 14:03:00,
2013-01-25 09:04:00,38.2,36.9,30.08,West,266,4.0,11.0,95,0.00,,---,0.00,VWS V14.01,2013-01-25 14:04:00,
2013-01-25 09:05:00,38.3,37.0,30.08,West,276,6.0,11.0,95,0.00,,---,0.00,VWS V14.01,2013-01-25 14:05:00,
2013-01-25 09:06:00,38.3,37.0,30.08,West,266,6.0,11.0,95,0.00,,---,0.00,VWS V14.01,2013-01-25 14:06:00,
2013-01-25 09:07:00,38.5,37.2,30.08,NNW,329,13.0,13.0,95,0.00,,---,0.00,VWS V14.01,2013-01-25 14:07:00,
2013-01-25 09:08:00,38.5,37.2,30.08,NW,305,2.0,13.0,95,0.00,,---,0.00,VWS V14.01,2013-01-25 14:08:00,
2013-01-25 09:09:00,38.6,37.3,30.08,WNW,303,7.0,13.0,95,0.00,,---,0.00,VWS V14.01,2013-01-25 14:09:00,
2013-01-25 09:10:00,38.6,37.3,30.08,West,278,8.0,13.0,95,0.00,,---,0.00,VWS V14.01,2013-01-25 14:10:00,
2013-01-25 09:11:00,38.8,37.5,30.08,WNW,293,7.0,8.0,95,0.00,,---,0.00,VWS V14.01,2013-01-25 14:11:00,
2013-01-25 09:12:00,38.8,37.5,30.08,West,276,6.0,8.0,95,0.00,,---,0.00,VWS V14.01,2013-01-25 14:12:00,
2013-01-25 09:13:00,38.8,37.5,30.08,NW,306,2.0,8.0,95,0.00,,---,0.00,VWS V14.01,2013-01-25 14:13:00,
2013-01-25 09:14:00,38.8,37.5,30.08,WNW,296,2.0,8.0,95,0.00,,---,0.00,VWS V14.01,2013-01-25 14:14:00,
2013-01-25 09:15:00,38.9,37.6,30.07,WNW,288,11.0,11.0,95,0.00,,---,0.00,VWS V14.01,2013-01-25 14:15:00,
2013-01-25 09:16:00,38.9,37.6,30.07,West,268,10.0,11.0,95,0.00,,---,0.00,VWS V14.01,2013-01-25 14:16:00,
2013-01-25 09:17:00,38.9,37.6,30.07,WNW,295,7.0,11.0,95,0.00,,---,0.00,VWS V14.01,2013-01-25 14:17:00,
2013-01-25 09:18:00,39.1,37.8,30.07,NW,313,9.0,11.0,95,0.00,,---,0.00,VWS V14.01,2013-01-25 14:18:00,
2013-01-25 09:19:00,39.1,37.8,30.07,WNW,298,2.0,11.0,95,0.00,,---,0.00,VWS V14.01,2013-01-25 14:19:00,
2013-01-25 09:20:00,39.1,37.8,30.07,West,265,10.0,11.0,95,0.00,,---,0.00,VWS V14.01,2013-01-25 14:20:00,
2013-01-25 09:21:00,39.2,37.9,30.07,WNW,293,8.0,10.0,95,0.00,,---,0.00,VWS V14.01,2013-01-25 14:21:00,
2013-01-25 09:22:00,39.2,37.9,30.07,West,279,6.0,13.0,95,0.00,,---,0.00,VWS V14.01,2013-01-25 14:22:00,
2013-01-25 09:23:00,39.2,37.6,30.07,WNW,300,5.0,13.0,94,0.00,,---,0.00,VWS V14.01,2013-01-25 14:23:00,
2013-01-25 09:24:00,39.2,37.6,30.07,WSW,258,5.0,13.0,94,0.00,,---,0.00,VWS V14.01,2013-01-25 14:24:00,
2013-01-25 09:25:00,39.3,37.7,30.07,WNW,282,2.0,13.0,94,0.00,,---,0.00,VWS V14.01,2013-01-25 14:25:00,
2013-01-25 09:26:00,39.3,37.7,30.07,West,261,11.0,13.0,94,0.00,,---,0.00,VWS V14.01,2013-01-25 14:26:00,
2013-01-25 09:27:00,39.3,37.7,30.07,WNW,283,6.0,13.0,94,0.00,,---,0.00,VWS V14.01,2013-01-25 14:27:00,
2013-01-25 09:28:00,39.3,37.7,30.07,West,279,5.0,13.0,94,0.00,,---,0.00,VWS V14.01,2013-01-25 14:28:00,
2013-01-25 09:29:00,39.3,37.7,30.07,NW,305,3.0,13.0,94,0.00,,---,0.00,VWS V14.01,2013-01-25 14:29:00,
2013-01-25 09:30:00,39.3,37.7,30.08,NW,317,5.0,13.0,94,0.00,,---,0.00,VWS V14.01,2013-01-25 14:30:00,
2013-01-25 09:31:00,39.3,37.7,30.08,West,278,3.0,5.0,94,0.00,,---,0.00,VWS V14.01,2013-01-25 14:31:00,
2013-01-25 09:32:00,39.5,37.9,30.08,WNW,298,3.0,8.0,94,0.00,,---,0.00,VWS V14.01,2013-01-25 14:32:00,
2013-01-25 09:33:00,39.5,37.9,30.08,WNW,295,5.0,9.0,94,0.00,,---,0.00,VWS V14.01,2013-01-25 14:33:00,
2013-01-25 09:34:00,39.5,37.9,30.08,WNW,288,4.0,9.0,94,0.00,,---,0.00,VWS V14.01,2013-01-25 14:34:00,
2013-01-25 09:35:00,39.5,37.9,30.08,West,274,5.0,9.0,94,0.00,,---,0.00,VWS V14.01,2013-01-25 14:35:00,
2013-01-25 09:36:00,39.5,37.9,30.08,WNW,283,8.0,11.0,94,0.00,,---,0.00,VWS V14.01,2013-01-25 14:36:00,
2013-01-25 09:37:00,39.5,37.7,30.08,West,274,6.0,11.0,93,0.00,,---,0.00,VWS V14.01,2013-01-25 14:37:00,
2013-01-25 09:38:00,39.5,37.7,30.08,West,279,2.0,11.0,93,0.00,,---,0.00,VWS V14.01,2013-01-25 14:38:00,
2013-01-25 09:39:00,39.5,37.7,30.08,West,276,8.0,11.0,93,0.00,,---,0.00,VWS V14.01,2013-01-25 14:39:00,
2013-01-25 09:40:00,39.5,37.7,30.08,WNW,282,5.0,11.0,93,0.00,,---,0.00,VWS V14.01,2013-01-25 14:40:00,
2013-01-25 09:41:00,39.5,37.7,30.08,West,274,5.0,7.0,93,0.00,,---,0.00,VWS V14.01,2013-01-25 14:41:00,
2013-01-25 09:42:00,39.5,37.7,30.08,WNW,288,7.0,7.0,93,0.00,,---,0.00,VWS V14.01,2013-01-25 14:42:00,
2013-01-25 09:43:00,39.5,37.7,30.08,WNW,298,6.0,12.0,93,0.00,,---,0.00,VWS V14.01,2013-01-25 14:43:00,
2013-01-25 09:44:00,39.6,37.8,30.08,NNW,333,8.0,12.0,93,0.00,,---,0.00,VWS V14.01,2013-01-25 14:44:00,
2013-01-25 09:45:00,39.6,37.8,30.08,WNW,299,5.0,12.0,93,0.00,,---,0.00,VWS V14.01,2013-01-25 14:45:00,
2013-01-25 09:46:00,39.6,37.8,30.08,WNW,288,6.0,12.0,93,0.00,,---,0.00,VWS V14.01,2013-01-25 14:46:00,
2013-01-25 09:47:00,39.6,37.8,30.08,West,264,13.0,13.0,93,0.00,,---,0.00,VWS V14.01,2013-01-25 14:47:00,
2013-01-25 09:48:00,39.6,37.8,30.08,WNW,289,6.0,13.0,93,0.00,,---,0.00,VWS V14.01,2013-01-25 14:48:00,
2013-01-25 09:49:00,39.6,37.8,30.08,WNW,300,6.0,13.0,93,0.00,,---,0.00,VWS V14.01,2013-01-25 14:49:00,
2013-01-25 09:50:00,39.6,37.5,30.08,WNW,299,5.0,13.0,92,0.00,,---,0.00,VWS V14.01,2013-01-25 14:50:00,
2013-01-25 09:51:00,39.6,37.5,30.08,WNW,299,2.0,6.0,92,0.00,,---,0.00,VWS V14.01,2013-01-25 14:51:00,
2013-01-25 09:52:00,39.6,37.5,30.08,WNW,300,3.0,6.0,92,0.00,,---,0.00,VWS V14.01,2013-01-25 14:52:00,
2013-01-25 09:53:00,39.6,37.5,30.08,West,265,6.0,11.0,92,0.00,,---,0.00,VWS V14.01,2013-01-25 14:53:00,
2013-01-25 09:54:00,39.6,37.5,30.08,WNW,288,5.0,11.0,92,0.00,,---,0.00,VWS V14.01,2013-01-25 14:54:00,
2013-01-25 09:55:00,39.6,37.5,30.08,WNW,299,5.0,11.0,92,0.00,,---,0.00,VWS V14.01,2013-01-25 14:55:00,
2013-01-25 09:56:00,39.6,37.5,30.08,NW,309,3.0,11.0,92,0.00,,---,0.00,VWS V14.01,2013-01-25 14:56:00,
2013-01-25 09:57:00,39.6,37.5,30.08,WNW,286,4.0,11.0,92,0.00,,---,0.00,VWS V14.01,2013-01-25 14:57:00,
2013-01-25 09:58:00,39.6,37.5,30.08,West,265,8.0,11.0,92,0.00,,---,0.00,VWS V14.01,2013-01-25 14:58:00,
2013-01-25 09:59:00,39.6,37.5,30.08,West,272,7.0,16.0,92,0.00,,---,0.00,VWS V14.01,2013-01-25 14:59:00,
2013-01-25 10:00:00,39.6,37.5,30.08,WNW,288,3.0,16.0,92,0.00,,---,0.00,VWS V14.01,2013-01-25 15:00:00,
2013-01-25 10:01:00,39.6,37.5,30.08,NW,323,6.0,10.0,92,0.00,,---,0.00,VWS V14.01,2013-01-25 15:01:00,
2013-01-25 10:02:00,39.6,37.5,30.08,WNW,303,5.0,10.0,92,0.00,,---,0.00,VWS V14.01,2013-01-25 15:02:00,
2013-01-25 10:03:00,39.8,37.4,30.08,WSW,257,4.0,10.0,91,0.00,,---,0.00,VWS V14.01,2013-01-25 15:03:00,
2013-01-25 10:04:00,39.8,37.4,30.08,NW,306,2.0,10.0,91,0.00,,---,0.00,VWS V14.01,2013-01-25 15:04:00,
2013-01-25 10:05:00,39.8,37.4,30.08,NW,316,3.0,10.0,91,0.00,,---,0.00,VWS V14.01,2013-01-25 15:05:00,
2013-01-25 10:06:00,39.8,37.4,30.08,WNW,286,5.0,10.0,91,0.00,,---,0.00,VWS V14.01,2013-01-25 15:06:00,
2013-01-25 10:07:00,39.8,37.4,30.08,WNW,285,6.0,10.0,91,0.00,,---,0.00,VWS V14.01,2013-01-25 15:07:00,
2013-01-25 10:08:00,39.8,37.4,30.08,West,269,7.0,10.0,91,0.00,,---,0.00,VWS V14.01,2013-01-25 15:08:00,
2013-01-25 10:09:00,39.8,37.4,30.08,NW,305,2.0,10.0,91,0.00,,---,0.00,VWS V14.01,2013-01-25 15:09:00,
2013-01-25 10:10:00,39.8,37.4,30.08,NW,305,1.0,10.0,91,0.00,,---,0.00,VWS V14.01,2013-01-25 15:10:00,
2013-01-25 10:11:00,39.8,37.4,30.08,WSW,244,6.0,7.0,91,0.00,,---,0.00,VWS V14.01,2013-01-25 15:11:00,
2013-01-25 10:12:00,39.8,37.4,30.08,WNW,285,5.0,7.0,91,0.00,,---,0.00,VWS V14.01,2013-01-25 15:12:00,
2013-01-25 10:13:00,39.8,37.1,30.08,WNW,299,5.0,10.0,90,0.00,,---,0.00,VWS V14.01,2013-01-25 15:13:00,
2013-01-25 10:14:00,39.8,37.1,30.08,North,350,8.0,10.0,90,0.00,,---,0.00,VWS V14.01,2013-01-25 15:14:00,
2013-01-25 10:15:00,39.8,37.1,30.07,NNW,327,0.0,10.0,90,0.00,,---,0.00,VWS V14.01,2013-01-25 15:15:00,
2013-01-25 10:16:00,39.8,37.1,30.07,WSW,257,5.0,10.0,90,0.00,,---,0.00,VWS V14.01,2013-01-25 15:16:00,
2013-01-25 10:17:00,39.8,37.1,30.07,WNW,292,1.0,10.0,90,0.00,,---,0.00,VWS V14.01,2013-01-25 15:17:00,
2013-01-25 10:18:00,39.8,37.1,30.07,West,279,3.0,10.0,90,0.00,,---,0.00,VWS V14.01,2013-01-25 15:18:00,
2013-01-25 10:19:00,39.8,37.1,30.07,West,272,1.0,10.0,90,0.00,,---,0.00,VWS V14.01,2013-01-25 15:19:00,
2013-01-25 10:20:00,39.8,37.1,30.07,WNW,296,6.0,10.0,90,0.00,,---,0.00,VWS V14.01,2013-01-25 15:20:00,
2013-01-25 10:21:00,39.8,37.1,30.07,WNW,296,6.0,6.0,90,0.00,,---,0.00,VWS V14.01,2013-01-25 15:21:00,
2013-01-25 10:22:00,39.8,37.1,30.07,NNW,336,0.0,7.0,90,0.00,,---,0.00,VWS V14.01,2013-01-25 15:22:00,
2013-01-25 10:23:00,39.8,36.8,30.07,NNW,336,0.0,7.0,89,0.00,,---,0.00,VWS V14.01,2013-01-25 15:23:00,
2013-01-25 10:24:00,39.8,36.8,30.07,West,276,0.0,7.0,89,0.00,,---,0.00,VWS V14.01,2013-01-25 15:24:00,
2013-01-25 10:25:00,39.8,36.8,30.07,West,276,0.0,7.0,89,0.00,,---,0.00,VWS V14.01,2013-01-25 15:25:00,
2013-01-25 10:26:00,39.6,36.6,30.07,West,276,2.0,7.0,89,0.00,,---,0.00,VWS V14.01,2013-01-25 15:26:00,
2013-01-25 10:27:00,39.6,36.6,30.07,West,276,0.0,7.0,89,0.00,,---,0.00,VWS V14.01,2013-01-25 15:27:00,
2013-01-25 10:28:00,39.6,36.6,30.07,WNW,285,3.0,7.0,89,0.00,,---,0.00,VWS V14.01,2013-01-25 15:28:00,
2013-01-25 10:29:00,39.6,36.6,30.07,NW,306,6.0,8.0,89,0.00,,---,0.00,VWS V14.01,2013-01-25 15:29:00,
2013-01-25 10:30:00,39.6,36.6,30.08,WSW,242,3.0,8.0,89,0.00,,---,0.00,VWS V14.01,2013-01-25 15:30:00,
2013-01-25 10:31:00,39.6,36.6,30.08,WSW,242,2.0,3.0,89,0.00,,---,0.00,VWS V14.01,2013-01-25 15:31:00,
2013-01-25 10:32:00,39.6,36.6,30.08,West,275,5.0,6.0,89,0.00,,---,0.00,VWS V14.01,2013-01-25 15:32:00,
2013-01-25 10:33:00,39.6,36.6,30.08,West,275,6.0,8.0,89,0.00,,---,0.00,VWS V14.01,2013-01-25 15:33:00,
2013-01-25 10:34:00,39.6,36.6,30.08,NW,305,5.0,8.0,89,0.00,,---,0.00,VWS V14.01,2013-01-25 15:34:00,
2013-01-25 10:35:00,39.6,36.6,30.08,WSW,251,5.0,8.0,89,0.00,,---,0.00,VWS V14.01,2013-01-25 15:35:00,
2013-01-25 10:36:00,39.6,36.3,30.08,WNW,296,3.0,8.0,88,0.00,,---,0.00,VWS V14.01,2013-01-25 15:36:00,
2013-01-25 10:37:00,39.6,36.3,30.08,WNW,302,3.0,8.0,88,0.00,,---,0.00,VWS V14.01,2013-01-25 15:37:00,
2013-01-25 10:38:00,39.6,36.3,30.08,WNW,293,3.0,8.0,88,0.00,,---,0.00,VWS V14.01,2013-01-25 15:38:00,
2013-01-25 10:39:00,39.6,36.3,30.08,West,259,5.0,8.0,88,0.00,,---,0.00,VWS V14.01,2013-01-25 15:39:00,
2013-01-25 10:40:00,39.6,36.3,30.08,WNW,296,6.0,13.0,88,0.00,,---,0.00,VWS V14.01,2013-01-25 15:40:00,
2013-01-25 10:41:00,39.5,36.2,30.08,NNW,333,8.0,8.0,88,0.00,,---,0.00,VWS V14.01,2013-01-25 15:41:00,
2013-01-25 10:42:00,39.5,36.2,30.08,NW,305,4.0,8.0,88,0.00,,---,0.00,VWS V14.01,2013-01-25 15:42:00,
2013-01-25 10:43:00,39.5,36.2,30.08,SW,227,5.0,8.0,88,0.00,,---,0.00,VWS V14.01,2013-01-25 15:43:00,
2013-01-25 10:44:00,39.5,36.2,30.08,WNW,282,6.0,8.0,88,0.00,,---,0.00,VWS V14.01,2013-01-25 15:44:00,
2013-01-25 10:45:00,39.5,36.2,30.07,NNW,340,3.0,8.0,88,0.00,,---,0.00,VWS V14.01,2013-01-25 15:45:00,
2013-01-25 10:46:00,39.5,36.0,30.07,WNW,302,11.0,13.0,87,0.00,,---,0.00,VWS V14.01,2013-01-25 15:46:00,
2013-01-25 10:47:00,39.5,36.0,30.07,WNW,298,10.0,13.0,87,0.00,,---,0.00,VWS V14.01,2013-01-25 15:47:00,
2013-01-25 10:48:00,39.5,36.0,30.07,WNW,285,3.0,13.0,87,0.00,,---,0.00,VWS V14.01,2013-01-25 15:48:00,
2013-01-25 10:49:00,39.5,36.0,30.07,WNW,300,6.0,13.0,87,0.00,,---,0.00,VWS V14.01,2013-01-25 15:49:00,
2013-01-25 10:50:00,39.5,36.0,30.07,West,272,6.0,13.0,87,0.00,,---,0.00,VWS V14.01,2013-01-25 15:50:00,
2013-01-25 10:51:00,39.5,36.0,30.07,West,275,5.0,7.0,87,0.00,,---,0.00,VWS V14.01,2013-01-25 15:51:00,
2013-01-25 10:52:00,39.5,36.0,30.07,WNW,296,11.0,11.0,87,0.00,,---,0.00,VWS V14.01,2013-01-25 15:52:00,
2013-01-25 10:53:00,39.5,36.0,30.07,NW,306,5.0,11.0,87,0.00,,---,0.00,VWS V14.01,2013-01-25 15:53:00,
2013-01-25 10:54:00,39.5,36.0,30.07,WNW,295,12.0,12.0,87,0.00,,---,0.00,VWS V14.01,2013-01-25 15:54:00,
2013-01-25 10:55:00,39.5,36.0,30.07,NW,314,9.0,12.0,87,0.00,,---,0.00,VWS V14.01,2013-01-25 15:55:00,
2013-01-25 10:56:00,39.5,36.0,30.07,West,264,5.0,12.0,87,0.01,,---,0.01,VWS V14.01,2013-01-25 15:56:00,
2013-01-25 10:57:00,39.5,35.7,30.07,West,265,4.0,12.0,86,0.01,,---,0.01,VWS V14.01,2013-01-25 15:57:00,
2013-01-25 10:58:00,39.5,35.7,30.07,West,262,3.0,12.0,86,0.01,,---,0.01,VWS V14.01,2013-01-25 15:58:00,
2013-01-25 10:59:00,39.5,35.7,30.07,WNW,285,6.0,12.0,86,0.01,,---,0.01,VWS V14.01,2013-01-25 15:59:00,
2013-01-25 11:00:00,39.5,35.7,30.08,West,278,3.0,12.0,86,0.01,,---,0.01,VWS V14.01,2013-01-25 16:00:00,
2013-01-25 11:01:00,39.3,35.5,30.08,West,265,8.0,10.0,86,0.01,,---,0.01,VWS V14.01,2013-01-25 16:01:00,
2013-01-25 11:02:00,39.3,35.5,30.08,NW,309,2.0,10.0,86,0.01,,---,0.01,VWS V14.01,2013-01-25 16:02:00,
2013-01-25 11:03:00,39.3,35.5,30.08,WSW,251,2.0,10.0,86,0.01,,---,0.01,VWS V14.01,2013-01-25 16:03:00,
2013-01-25 11:04:00,39.3,35.5,30.08,WSW,252,3.0,10.0,86,0.01,,---,0.01,VWS V14.01,2013-01-25 16:04:00,
2013-01-25 11:05:00,39.3,35.5,30.08,NW,310,11.0,17.0,86,0.01,,---,0.01,VWS V14.01,2013-01-25 16:05:00,
2013-01-25 11:06:00,39.3,35.5,30.08,WNW,288,2.0,17.0,86,0.01,,---,0.01,VWS V14.01,2013-01-25 16:06:00,
2013-01-25 11:07:00,39.3,35.5,30.08,WSW,245,5.0,17.0,86,0.01,,---,0.01,VWS V14.01,2013-01-25 16:07:00,
2013-01-25 11:08:00,39.3,35.5,30.08,WSW,254,0.0,17.0,86,0.01,,---,0.01,VWS V14.01,2013-01-25 16:08:00,
2013-01-25 11:09:00,39.3,35.5,30.08,NW,309,0.0,17.0,86,0.01,,---,0.01,VWS V14.01,2013-01-25 16:09:00,
2013-01-25 11:10:00,39.3,35.5,30.08,NW,309,0.0,17.0,86,0.01,,---,0.01,VWS V14.01,2013-01-25 16:10:00,
2013-01-25 11:11:00,39.3,35.5,30.08,WNW,288,6.0,10.0,86,0.01,,---,0.01,VWS V14.01,2013-01-25 16:11:00,
2013-01-25 11:12:00,39.2,35.4,30.08,WNW,302,2.0,10.0,86,0.01,,---,0.01,VWS V14.01,2013-01-25 16:12:00,
2013-01-25 11:13:00,39.2,35.4,30.08,West,281,4.0,10.0,86,0.01,,---,0.01,VWS V14.01,2013-01-25 16:13:00,
2013-01-25 11:14:00,39.2,35.4,30.08,SW,231,1.0,10.0,86,0.01,,---,0.01,VWS V14.01,2013-01-25 16:14:00,
2013-01-25 11:15:00,39.2,35.4,30.07,NNW,346,2.0,10.0,86,0.01,,---,0.01,VWS V14.01,2013-01-25 16:15:00,
2013-01-25 11:16:00,39.2,35.4,30.07,NNW,346,0.0,10.0,86,0.01,,---,0.01,VWS V14.01,2013-01-25 16:16:00,
2013-01-25 11:17:00,39.2,35.4,30.07,West,276,2.0,10.0,86,0.01,,---,0.01,VWS V14.01,2013-01-25 16:17:00,
2013-01-25 11:18:00,39.2,35.4,30.07,West,276,0.0,10.0,86,0.01,,---,0.01,VWS V14.01,2013-01-25 16:18:00,
2013-01-25 11:19:00,39.1,35.3,30.07,West,276,1.0,10.0,86,0.01,,---,0.01,VWS V14.01,2013-01-25 16:19:00,
2013-01-25 11:20:00,39.1,35.3,30.07,West,276,0.0,10.0,86,0.01,,---,0.01,VWS V14.01,2013-01-25 16:20:00,
2013-01-25 11:21:00,39.1,35.3,30.07,West,259,0.0,6.0,86,0.01,,---,0.01,VWS V14.01,2013-01-25 16:21:00,
2013-01-25 11:22:00,39.1,35.3,30.07,WNW,290,2.0,10.0,86,0.01,,---,0.01,VWS V14.01,2013-01-25 16:22:00,
2013-01-25 11:23:00,39.1,35.3,30.07,WNW,286,5.0,10.0,86,0.01,,---,0.01,VWS V14.01,2013-01-25 16:23:00,
2013-01-25 11:24:00,39.1,35.3,30.07,WNW,295,3.0,10.0,86,0.01,,---,0.01,VWS V14.01,2013-01-25 16:24:00,
2013-01-25 11:25:00,39.1,35.0,30.07,West,281,1.0,10.0,85,0.01,,---,0.01,VWS V14.01,2013-01-25 16:25:00,
2013-01-25 11:26:00,39.1,35.0,30.07,West,281,5.0,10.0,85,0.01,,---,0.01,VWS V14.01,2013-01-25 16:26:00,
2013-01-25 11:27:00,39.1,35.0,30.07,North,353,1.0,10.0,85,0.01,,---,0.01,VWS V14.01,2013-01-25 16:27:00,
2013-01-25 11:28:00,38.9,34.8,30.07,NW,316,3.0,10.0,85,0.01,,---,0.01,VWS V14.01,2013-01-25 16:28:00,
2013-01-25 11:29:00,38.9,34.8,30.07,WNW,296,5.0,10.0,85,0.01,,---,0.01,VWS V14.01,2013-01-25 16:29:00,
2013-01-25 11:30:00,38.9,34.8,30.08,WNW,285,6.0,13.0,85,0.01,,---,0.01,VWS V14.01,2013-01-25 16:30:00,
2013-01-25 11:31:00,38.9,34.8,30.08,WSW,250,4.0,7.0,85,0.01,,---,0.01,VWS V14.01,2013-01-25 16:31:00,
2013-01-25 11:32:00,38.9,34.8,30.08,WSW,251,0.0,7.0,85,0.01,,---,0.01,VWS V14.01,2013-01-25 16:32:00,
2013-01-25 11:33:00,38.9,34.8,30.08,West,281,5.0,7.0,85,0.01,,---,0.01,VWS V14.01,2013-01-25 16:33:00,
2013-01-25 11:34:00,38.9,34.8,30.08,West,278,5.0,7.0,85,0.01,,---,0.01,VWS V14.01,2013-01-25 16:34:00,
2013-01-25 11:35:00,38.9,34.8,30.08,West,259,11.0,13.0,85,0.01,,---,0.01,VWS V14.01,2013-01-25 16:35:00,
2013-01-25 11:36:00,38.9,34.8,30.08,West,272,6.0,13.0,85,0.01,,---,0.01,VWS V14.01,2013-01-25 16:36:00,
2013-01-25 11:37:00,38.9,34.8,30.08,WNW,302,1.0,13.0,85,0.01,,---,0.01,VWS V14.01,2013-01-25 16:37:00,
2013-01-25 11:38:00,38.9,34.8,30.08,NNW,329,2.0,13.0,85,0.01,,---,0.01,VWS V14.01,2013-01-25 16:38:00,
2013-01-25 11:39:00,38.9,34.8,30.08,WNW,283,5.0,13.0,85,0.01,,---,0.01,VWS V14.01,2013-01-25 16:39:00,
2013-01-25 11:40:00,38.9,34.8,30.08,WNW,283,6.0,13.0,85,0.01,,---,0.01,VWS V14.01,2013-01-25 16:40:00,
2013-01-25 11:41:00,38.9,34.8,30.08,NW,316,5.0,6.0,85,0.01,,---,0.01,VWS V14.01,2013-01-25 16:41:00,
2013-01-25 11:42:00,38.9,34.8,30.08,NW,316,3.0,6.0,85,0.01,,---,0.01,VWS V14.01,2013-01-25 16:42:00,
2013-01-25 11:43:00,38.9,34.8,30.08,NW,309,6.0,6.0,85,0.01,,---,0.01,VWS V14.01,2013-01-25 16:43:00,
2013-01-25 11:44:00,38.9,34.8,30.08,NNE,17,2.0,6.0,85,0.01,,---,0.01,VWS V14.01,2013-01-25 16:44:00,
2013-01-25 11:45:00,38.9,34.8,30.08,West,274,6.0,6.0,85,0.01,,---,0.01,VWS V14.01,2013-01-25 16:45:00,
2013-01-25 11:46:00,38.9,34.8,30.08,WNW,286,8.0,8.0,85,0.01,,---,0.01,VWS V14.01,2013-01-25 16:46:00,
2013-01-25 11:47:00,38.9,34.5,30.08,WSW,248,10.0,10.0,84,0.01,,---,0.01,VWS V14.01,2013-01-25 16:47:00,
2013-01-25 11:48:00,38.9,34.5,30.08,West,268,9.0,11.0,84,0.01,,---,0.01,VWS V14.01,2013-01-25 16:48:00,
2013-01-25 11:49:00,38.9,34.5,30.08,NNE,26,4.0,11.0,84,0.01,,---,0.01,VWS V14.01,2013-01-25 16:49:00,
2013-01-25 11:50:00,38.9,34.5,30.08,WNW,295,3.0,11.0,84,0.01,,---,0.01,VWS V14.01,2013-01-25 16:50:00,
2013-01-25 11:51:00,38.9,34.5,30.08,West,279,5.0,6.0,84,0.01,,---,0.01,VWS V14.01,2013-01-25 16:51:00,
2013-01-25 11:52:00,38.8,34.4,30.08,West,279,2.0,6.0,84,0.01,,---,0.01,VWS V14.01,2013-01-25 16:52:00,
2013-01-25 11:53:00,38.8,34.4,30.08,NW,324,0.0,8.0,84,0.01,,---,0.01,VWS V14.01,2013-01-25 16:53:00,
2013-01-25 11:54:00,38.8,34.4,30.08,NW,324,0.0,8.0,84,0.01,,---,0.01,VWS V14.01,2013-01-25 16:54:00,
2013-01-25 11:55:00,38.8,34.4,30.08,WNW,285,4.0,8.0,84,0.01,,---,0.01,VWS V14.01,2013-01-25 16:55:00,
2013-01-25 11:56:00,38.8,34.4,30.08,WNW,285,0.0,8.0,84,0.01,,---,0.01,VWS V14.01,2013-01-25 16:56:00,
2013-01-25 11:57:00,38.8,34.4,30.08,WNW,286,7.0,8.0,84,0.01,,---,0.01,VWS V14.01,2013-01-25 16:57:00,
2013-01-25 11:58:00,38.8,34.4,30.08,SW,221,6.0,13.0,84,0.01,,---,0.01,VWS V14.01,2013-01-25 16:58:00,
2013-01-25 11:59:00,38.8,34.4,30.08,West,274,8.0,13.0,84,0.01,,---,0.01,VWS V14.01,2013-01-25 16:59:00,
2013-01-25 12:00:00,38.8,34.4,30.09,WNW,300,4.0,13.0,84,0.01,,---,0.01,VWS V14.01,2013-01-25 17:00:00,
2013-01-25 12:01:00,38.8,34.1,30.09,WNW,298,2.0,4.0,83,0.00,,---,0.01,VWS V14.01,2013-01-25 17:01:00,
2013-01-25 12:02:00,38.8,34.1,30.09,SW,231,8.0,8.0,83,0.00,,---,0.01,VWS V14.01,2013-01-25 17:02:00,
2013-01-25 12:03:00,38.6,33.9,30.09,WNW,286,7.0,8.0,83,0.00,,---,0.01,VWS V14.01,2013-01-25 17:03:00,
2013-01-25 12:04:00,38.6,33.9,30.09,WNW,289,13.0,14.0,83,0.00,,---,0.01,VWS V14.01,2013-01-25 17:04:00,
2013-01-25 12:05:00,38.6,33.9,30.09,WNW,300,5.0,14.0,83,0.00,,---,0.01,VWS V14.01,2013-01-25 17:05:00,
2013-01-25 12:06:00,38.6,33.9,30.09,WNW,296,6.0,14.0,83,0.00,,---,0.01,VWS V14.01,2013-01-25 17:06:00,
2013-01-25 12:07:00,38.6,33.9,30.09,WNW,293,3.0,14.0,83,0.00,,---,0.01,VWS V14.01,2013-01-25 17:07:00,
2013-01-25 12:08:00,38.6,33.9,30.09,WNW,296,3.0,14.0,83,0.00,,---,0.01,VWS V14.01,2013-01-25 17:08:00,
2013-01-25 12:09:00,38.6,33.9,30.09,North,11,2.0,14.0,83,0.00,,---,0.01,VWS V14.01,2013-01-25 17:09:00,
2013-01-25 12:10:00,38.6,33.9,30.09,WNW,292,2.0,14.0,83,0.00,,---,0.01,VWS V14.01,2013-01-25 17:10:00,
2013-01-25 12:11:00,38.6,33.9,30.09,WNW,282,5.0,5.0,83,0.00,,---,0.01,VWS V14.01,2013-01-25 17:11:00,
2013-01-25 12:12:00,38.6,33.9,30.09,SSW,211,3.0,6.0,83,0.00,,---,0.01,VWS V14.01,2013-01-25 17:12:00,
2013-01-25 12:13:00,38.6,33.9,30.09,WNW,298,2.0,6.0,83,0.00,,---,0.01,VWS V14.01,2013-01-25 17:13:00,
2013-01-25 12:14:00,38.6,33.9,30.09,West,279,5.0,8.0,83,0.00,,---,0.01,VWS V14.01,2013-01-25 17:14:00,
2013-01-25 12:15:00,38.6,33.9,30.08,WNW,303,5.0,8.0,83,0.00,,---,0.01,VWS V14.01,2013-01-25 17:15:00,
2013-01-25 12:16:00,38.6,33.9,30.08,WNW,293,8.0,8.0,83,0.00,,---,0.01,VWS V14.01,2013-01-25 17:16:00,
2013-01-25 12:17:00,38.6,33.9,30.08,NW,307,2.0,8.0,83,0.00,,---,0.01,VWS V14.01,2013-01-25 17:17:00,
2013-01-25 12:18:00,38.6,33.9,30.08,WNW,285,1.0,8.0,83,0.00,,---,0.01,VWS V14.01,2013-01-25 17:18:00,
2013-01-25 12:19:00,38.6,33.9,30.08,West,275,3.0,8.0,83,0.00,,---,0.01,VWS V14.01,2013-01-25 17:19:00,
2013-01-25 12:20:00,38.6,33.9,30.08,SW,230,5.0,8.0,83,0.00,,---,0.01,VWS V14.01,2013-01-25 17:20:00,
2013-01-25 12:21:00,38.5,33.8,30.08,NW,314,12.0,14.0,83,0.00,,---,0.01,VWS V14.01,2013-01-25 17:21:00,
2013-01-25 12:22:00,38.5,33.8,30.08,West,281,6.0,14.0,83,0.00,,---,0.01,VWS V14.01,2013-01-25 17:22:00,
2013-01-25 12:23:00,38.5,33.8,30.08,West,272,6.0,14.0,83,0.00,,---,0.01,VWS V14.01,2013-01-25 17:23:00,
2013-01-25 12:24:00,38.5,33.8,30.08,West,261,7.0,14.0,83,0.00,,---,0.01,VWS V14.01,2013-01-25 17:24:00,
2013-01-25 12:25:00,38.5,33.8,30.08,West,279,6.0,14.0,83,0.00,,---,0.01,VWS V14.01,2013-01-25 17:25:00,
2013-01-25 12:26:00,38.5,33.5,30.08,WSW,252,8.0,14.0,82,0.00,,---,0.01,VWS V14.01,2013-01-25 17:26:00,
2013-01-25 12:27:00,38.5,33.8,30.08,WNW,300,4.0,14.0,83,0.00,,---,0.01,VWS V14.01,2013-01-25 17:27:00,
2013-01-25 12:28:00,38.5,33.5,30.08,WNW,282,4.0,14.0,82,0.00,,---,0.01,VWS V14.01,2013-01-25 17:28:00,
2013-01-25 12:29:00,38.5,33.5,30.08,WNW,282,4.0,14.0,82,0.00,,---,0.01,VWS V14.01,2013-01-25 17:29:00,
2013-01-25 12:30:00,38.5,33.5,30.08,WSW,244,7.0,14.0,82,0.00,,---,0.01,VWS V14.01,2013-01-25 17:30:00,
2013-01-25 12:31:00,38.5,33.5,30.08,WSW,251,6.0,10.0,82,0.00,,---,0.01,VWS V14.01,2013-01-25 17:31:00,
2013-01-25 12:32:00,38.5,33.5,30.08,WSW,252,8.0,10.0,82,0.00,,---,0.01,VWS V14.01,2013-01-25 17:32:00,
2013-01-25 12:33:00,38.5,33.5,30.08,West,278,13.0,13.0,82,0.00,,---,0.01,VWS V14.01,2013-01-25 17:33:00,
2013-01-25 12:34:00,38.5,33.5,30.08,West,281,6.0,13.0,82,0.00,,---,0.01,VWS V14.01,2013-01-25 17:34:00,
2013-01-25 12:35:00,38.5,33.5,30.08,NW,320,4.0,13.0,82,0.00,,---,0.01,VWS V14.01,2013-01-25 17:35:00,
2013-01-25 12:36:00,38.5,33.5,30.08,West,271,0.0,13.0,82,0.00,,---,0.01,VWS V14.01,2013-01-25 17:36:00,
2013-01-25 12:37:00,38.5,33.5,30.08,West,261,4.0,13.0,82,0.00,,---,0.01,VWS V14.01,2013-01-25 17:37:00,
2013-01-25 12:38:00,38.5,33.5,30.08,WNW,289,7.0,13.0,82,0.00,,---,0.01,VWS V14.01,2013-01-25 17:38:00,
2013-01-25 12:39:00,38.3,33.3,30.08,WNW,285,6.0,13.0,82,0.00,,---,0.01,VWS V14.01,2013-01-25 17:39:00,
2013-01-25 12:40:00,38.3,33.3,30.08,West,268,2.0,13.0,82,0.00,,---,0.01,VWS V14.01,2013-01-25 17:40:00,
2013-01-25 12:41:00,38.3,33.3,30.08,SW,233,2.0,5.0,82,0.00,,---,0.01,VWS V14.01,2013-01-25 17:41:00,
2013-01-25 12:42:00,38.3,33.3,30.08,WNW,288,3.0,5.0,82,0.00,,---,0.01,VWS V14.01,2013-01-25 17:42:00,
2013-01-25 12:43:00,38.3,33.3,30.08,NNW,331,10.0,10.0,82,0.00,,---,0.01,VWS V14.01,2013-01-25 17:43:00,
2013-01-25 12:44:00,38.3,33.3,30.08,SW,226,10.0,10.0,82,0.00,,---,0.01,VWS V14.01,2013-01-25 17:44:00,
2013-01-25 12:45:00,38.3,33.3,30.09,West,271,7.0,10.0,82,0.00,,---,0.01,VWS V14.01,2013-01-25 17:45:00,
2013-01-25 12:46:00,38.2,33.2,30.09,NW,310,6.0,12.0,82,0.00,,---,0.01,VWS V14.01,2013-01-25 17:46:00,
2013-01-25 12:47:00,38.2,33.2,30.09,SW,218,9.0,12.0,82,0.00,,---,0.01,VWS V14.01,2013-01-25 17:47:00,
2013-01-25 12:48:00,38.2,33.2,30.09,West,272,9.0,12.0,82,0.00,,---,0.01,VWS V14.01,2013-01-25 17:48:00,
2013-01-25 12:49:00,38.2,33.2,30.09,West,265,10.0,17.0,82,0.00,,---,0.01,VWS V14.01,2013-01-25 17:49:00,
2013-01-25 12:50:00,38.0,33.0,30.09,WSW,248,6.0,17.0,82,0.00,,---,0.01,VWS V14.01,2013-01-25 17:50:00,
2013-01-25 12:51:00,38.0,33.0,30.09,West,281,7.0,10.0,82,0.00,,---,0.01,VWS V14.01,2013-01-25 17:51:00,
2013-01-25 12:52:00,38.0,33.0,30.09,West,259,3.0,10.0,82,0.00,,---,0.01,VWS V14.01,2013-01-25 17:52:00,
2013-01-25 12:53:00,38.0,33.3,30.09,WSW,240,2.0,10.0,83,0.00,,---,0.01,VWS V14.01,2013-01-25 17:53:00,
2013-01-25 12:54:00,38.0,33.3,30.09,SSW,210,1.0,10.0,83,0.00,,---,0.01,VWS V14.01,2013-01-25 17:54:00,
2013-01-25 12:55:00,37.9,33.2,30.09,SSW,210,0.0,10.0,83,0.00,,---,0.01,VWS V14.01,2013-01-25 17:55:00,
2013-01-25 12:56:00,37.9,33.2,30.09,SSW,210,1.0,10.0,83,0.00,,---,0.01,VWS V14.01,2013-01-25 17:56:00,
2013-01-25 12:57:00,37.9,33.2,30.09,WNW,296,1.0,11.0,83,0.00,,---,0.01,VWS V14.01,2013-01-25 17:57:00,
2013-01-25 12:58:00,37.9,33.2,30.09,West,268,0.0,11.0,83,0.00,,---,0.01,VWS V14.01,2013-01-25 17:58:00,
2013-01-25 12:59:00,37.9,33.2,30.09,West,269,2.0,11.0,83,0.00,,---,0.01,VWS V14.01,2013-01-25 17:59:00,
2013-01-25 13:00:00,37.9,33.2,30.10,West,272,0.0,11.0,83,0.00,,---,0.01,VWS V14.01,2013-01-25 18:00:00,
2013-01-25 13:01:00,37.8,33.1,30.10,SW,227,3.0,10.0,83,0.00,,---,0.01,VWS V14.01,2013-01-25 18:01:00,
2013-01-25 13:02:00,37.8,33.1,30.10,West,278,5.0,10.0,83,0.00,,---,0.01,VWS V14.01,2013-01-25 18:02:00,
2013-01-25 13:03:00,37.8,33.1,30.10,WNW,289,4.0,10.0,83,0.00,,---,0.01,VWS V14.01,2013-01-25 18:03:00,
2013-01-25 13:04:00,37.8,33.1,30.10,WNW,289,2.0,10.0,83,0.00,,---,0.01,VWS V14.01,2013-01-25 18:04:00,
2013-01-25 13:05:00,37.8,33.1,30.10,WNW,289,2.0,10.0,83,0.00,,---,0.01,VWS V14.01,2013-01-25 18:05:00,
2013-01-25 13:06:00,37.8,33.1,30.10,WNW,289,6.0,10.0,83,0.00,,---,0.01,VWS V14.01,2013-01-25 18:06:00,
2013-01-25 13:07:00,37.6,32.9,30.10,West,276,8.0,10.0,83,0.00,,---,0.01,VWS V14.01,2013-01-25 18:07:00,
2013-01-25 13:08:00,37.6,32.9,30.10,WNW,283,7.0,10.0,83,0.00,,---,0.01,VWS V14.01,2013-01-25 18:08:00,
2013-01-25 13:09:00,37.6,32.9,30.10,West,271,5.0,11.0,83,0.00,,---,0.01,VWS V14.01,2013-01-25 18:09:00,
2013-01-25 13:10:00,37.6,32.9,30.10,West,271,2.0,11.0,83,0.00,,---,0.01,VWS V14.01,2013-01-25 18:10:00,
2013-01-25 13:11:00,37.6,32.9,30.10,WNW,299,2.0,6.0,83,0.00,,---,0.01,VWS V14.01,2013-01-25 18:11:00,
2013-01-25 13:12:00,37.6,32.9,30.10,NNW,337,5.0,6.0,83,0.00,,---,0.01,VWS V14.01,2013-01-25 18:12:00,
2013-01-25 13:13:00,37.6,32.9,30.10,NNW,340,0.0,6.0,83,0.00,,---,0.01,VWS V14.01,2013-01-25 18:13:00,
2013-01-25 13:14:00,37.5,32.8,30.10,WSW,244,7.0,7.0,83,0.00,,---,0.01,VWS V14.01,2013-01-25 18:14:00,
2013-01-25 13:15:00,37.5,32.8,30.08,WSW,242,2.0,7.0,83,0.00,,---,0.01,VWS V14.01,2013-01-25 18:15:00,
2013-01-25 13:16:00,37.5,32.8,30.08,West,268,3.0,7.0,83,0.00,,---,0.01,VWS V14.01,2013-01-25 18:16:00,
2013-01-25 13:17:00,37.5,32.8,30.08,West,268,3.0,7.0,83,0.00,,---,0.01,VWS V14.01,2013-01-25 18:17:00,
2013-01-25 13:18:00,37.5,32.8,30.08,WSW,244,10.0,10.0,83,0.00,,---,0.01,VWS V14.01,2013-01-25 18:18:00,
2013-01-25 13:19:00,37.5,32.8,30.08,NW,305,3.0,10.0,83,0.00,,---,0.01,VWS V14.01,2013-01-25 18:19:00,
2013-01-25 13:20:00,37.5,32.8,30.08,WNW,293,4.0,10.0,83,0.00,,---,0.01,VWS V14.01,2013-01-25 18:20:00,
2013-01-25 13:21:00,37.5,32.8,30.08,WSW,258,2.0,6.0,83,0.00,,---,0.01,VWS V14.01,2013-01-25 18:21:00,
2013-01-25 13:22:00,37.3,32.6,30.08,WNW,285,6.0,7.0,83,0.00,,---,0.01,VWS V14.01,2013-01-25 18:22:00,
2013-01-25 13:23:00,37.3,32.6,30.08,NW,307,7.0,7.0,83,0.00,,---,0.01,VWS V14.01,2013-01-25 18:23:00,
2013-01-25 13:24:00,37.3,32.6,30.08,West,275,2.0,7.0,83,0.00,,---,0.01,VWS V14.01,2013-01-25 18:24:00,
2013-01-25 13:25:00,37.3,32.6,30.08,WNW,288,1.0,7.0,83,0.00,,---,0.01,VWS V14.01,2013-01-25 18:25:00,
2013-01-25 13:26:00,37.3,32.6,30.08,WNW,302,5.0,7.0,83,0.00,,---,0.01,VWS V14.01,2013-01-25 18:26:00,
2013-01-25 13:27:00,37.3,32.6,30.08,West,269,6.0,7.0,83,0.00,,---,0.01,VWS V14.01,2013-01-25 18:27:00,
2013-01-25 13:28:00,37.3,32.6,30.08,West,274,3.0,7.0,83,0.00,,---,0.01,VWS V14.01,2013-01-25 18:28:00,
2013-01-25 13:29:00,37.3,32.6,30.08,West,278,4.0,7.0,83,0.00,,---,0.01,VWS V14.01,2013-01-25 18:29:00,
2013-01-25 13:30:00,37.3,32.6,30.08,West,278,1.0,7.0,83,0.00,,---,0.01,VWS V14.01,2013-01-25 18:30:00,
2013-01-25 13:31:00,37.2,32.5,30.08,WNW,283,3.0,5.0,83,0.00,,---,0.01,VWS V14.01,2013-01-25 18:31:00,
2013-01-25 13:32:00,37.2,32.5,30.08,WSW,248,6.0,6.0,83,0.00,,---,0.01,VWS V14.01,2013-01-25 18:32:00,
2013-01-25 13:33:00,37.2,32.5,30.08,WSW,237,2.0,7.0,83,0.00,,---,0.01,VWS V14.01,2013-01-25 18:33:00,
2013-01-25 13:34:00,37.2,32.5,30.08,West,268,2.0,7.0,83,0.00,,---,0.01,VWS V14.01,2013-01-25 18:34:00,
2013-01-25 13:35:00,37.2,32.5,30.08,WNW,298,11.0,11.0,83,0.00,,---,0.01,VWS V14.01,2013-01-25 18:35:00,
2013-01-25 13:36:00,37.2,32.5,30.08,WNW,288,6.0,11.0,83,0.00,,---,0.01,VWS V14.01,2013-01-25 18:36:00,
2013-01-25 13:37:00,37.2,32.5,30.08,West,259,5.0,11.0,83,0.00,,---,0.01,VWS V14.01,2013-01-25 18:37:00,
2013-01-25 13:38:00,37.0,32.3,30.08,WNW,300,12.0,12.0,83,0.00,,---,0.01,VWS V14.01,2013-01-25 18:38:00,
2013-01-25 13:39:00,37.0,32.3,30.08,WSW,245,2.0,12.0,83,0.00,,---,0.01,VWS V14.01,2013-01-25 18:39:00,
2013-01-25 13:40:00,37.0,32.3,30.08,West,259,3.0,12.0,83,0.00,,---,0.01,VWS V14.01,2013-01-25 18:40:00,
2013-01-25 13:41:00,37.0,32.3,30.08,WNW,283,4.0,8.0,83,0.00,,---,0.01,VWS V14.01,2013-01-25 18:41:00,
2013-01-25 13:42:00,37.0,32.3,30.08,WSW,252,5.0,8.0,83,0.00,,---,0.01,VWS V14.01,2013-01-25 18:42:00,
2013-01-25 13:43:00,37.0,32.3,30.08,West,271,7.0,8.0,83,0.00,,---,0.01,VWS V14.01,2013-01-25 18:43:00,
2013-01-25 13:44:00,37.0,32.3,30.08,West,271,6.0,11.0,83,0.00,,---,0.01,VWS V14.01,2013-01-25 18:44:00,
2013-01-25 13:45:00,37.0,32.3,30.08,West,261,3.0,11.0,83,0.00,,---,0.01,VWS V14.01,2013-01-25 18:45:00,
2013-01-25 13:46:00,36.9,32.2,30.08,SW,223,7.0,11.0,83,0.00,,---,0.01,VWS V14.01,2013-01-25 18:46:00,
2013-01-25 13:47:00,36.9,32.2,30.08,WSW,258,4.0,11.0,83,0.00,,---,0.01,VWS V14.01,2013-01-25 18:47:00,
2013-01-25 13:48:00,36.9,32.2,30.08,SW,227,4.0,11.0,83,0.00,,---,0.01,VWS V14.01,2013-01-25 18:48:00,
2013-01-25 13:49:00,36.9,32.2,30.08,SW,230,6.0,11.0,83,0.00,,---,0.01,VWS V14.01,2013-01-25 18:49:00,
2013-01-25 13:50:00,36.9,32.2,30.08,SW,231,6.0,11.0,83,0.00,,---,0.01,VWS V14.01,2013-01-25 18:50:00,
2013-01-25 13:51:00,36.9,32.2,30.08,West,262,5.0,6.0,83,0.00,,---,0.01,VWS V14.01,2013-01-25 18:51:00,
2013-01-25 13:52:00,36.9,32.2,30.08,West,262,2.0,6.0,83,0.00,,---,0.01,VWS V14.01,2013-01-25 18:52:00,
2013-01-25 13:53:00,36.9,32.2,30.08,WNW,283,1.0,6.0,83,0.00,,---,0.01,VWS V14.01,2013-01-25 18:53:00,
2013-01-25 13:54:00,36.9,32.2,30.08,West,268,1.0,6.0,83,0.00,,---,0.01,VWS V14.01,2013-01-25 18:54:00,
2013-01-25 13:55:00,36.9,32.2,30.08,NW,309,3.0,6.0,83,0.00,,---,0.01,VWS V14.01,2013-01-25 18:55:00,
2013-01-25 13:56:00,36.8,32.1,30.08,WSW,238,5.0,6.0,83,0.00,,---,0.01,VWS V14.01,2013-01-25 18:56:00,
2013-01-25 13:57:00,36.8,32.1,30.08,WNW,295,1.0,6.0,83,0.00,,---,0.01,VWS V14.01,2013-01-25 18:57:00,
2013-01-25 13:58:00,36.8,32.1,30.08,SW,223,2.0,6.0,83,0.00,,---,0.01,VWS V14.01,2013-01-25 18:58:00,
2013-01-25 13:59:00,36.8,32.1,30.08,WSW,240,6.0,6.0,83,0.00,,---,0.01,VWS V14.01,2013-01-25 18:59:00,
2013-01-25 14:00:00,36.8,32.1,30.08,West,276,0.0,8.0,83,0.00,,---,0.01,VWS V14.01,2013-01-25 19:00:00,
2013-01-25 14:01:00,36.8,32.1,30.08,NW,326,0.0,5.0,83,0.00,,---,0.01,VWS V14.01,2013-01-25 19:01:00,
2013-01-25 14:02:00,36.8,32.1,30.08,WSW,238,3.0,6.0,83,0.00,,---,0.01,VWS V14.01,2013-01-25 19:02:00,
2013-01-25 14:03:00,36.8,32.1,30.08,WNW,290,2.0,6.0,83,0.00,,---,0.01,VWS V14.01,2013-01-25 19:03:00,
2013-01-25 14:04:00,36.8,32.1,30.08,West,279,7.0,7.0,83,0.00,,---,0.01,VWS V14.01,2013-01-25 19:04:00,
2013-01-25 14:05:00,36.8,32.1,30.08,WNW,288,3.0,8.0,83,0.00,,---,0.01,VWS V14.01,2013-01-25 19:05:00,
2013-01-25 14:06:00,36.8,32.1,30.08,WNW,292,4.0,8.0,83,0.00,,---,0.01,VWS V14.01,2013-01-25 19:06:00,
2013-01-25 14:07:00,36.8,32.1,30.08,WSW,240,6.0,8.0,83,0.00,,---,0.01,VWS V14.01,2013-01-25 19:07:00,
2013-01-25 14:08:00,36.8,32.1,30.08,WNW,282,2.0,8.0,83,0.00,,---,0.01,VWS V14.01,2013-01-25 19:08:00,
2013-01-25 14:09:00,36.8,32.1,30.08,West,271,4.0,8.0,83,0.00,,---,0.01,VWS V14.01,2013-01-25 19:09:00,
2013-01-25 14:10:00,36.8,32.1,30.08,NW,312,2.0,8.0,83,0.00,,---,0.01,VWS V14.01,2013-01-25 19:10:00,
2013-01-25 14:11:00,36.8,32.1,30.08,NNW,337,7.0,10.0,83,0.00,,---,0.01,VWS V14.01,2013-01-25 19:11:00,
2013-01-25 14:12:00,36.8,32.1,30.08,SW,216,0.0,10.0,83,0.00,,---,0.01,VWS V14.01,2013-01-25 19:12:00,
2013-01-25 14:13:00,36.8,32.1,30.08,West,264,5.0,10.0,83,0.00,,---,0.01,VWS V14.01,2013-01-25 19:13:00,
2013-01-25 14:14:00,36.8,32.1,30.08,WNW,288,6.0,10.0,83,0.00,,---,0.01,VWS V14.01,2013-01-25 19:14:00,
2013-01-25 14:15:00,36.8,32.1,30.09,WNW,300,3.0,10.0,83,0.00,,---,0.01,VWS V14.01,2013-01-25 19:15:00,
2013-01-25 14:16:00,36.8,32.1,30.09,WSW,241,5.0,10.0,83,0.00,,---,0.01,VWS V14.01,2013-01-25 19:16:00,
2013-01-25 14:17:00,36.6,31.9,30.09,WNW,286,11.0,11.0,83,0.00,,---,0.01,VWS V14.01,2013-01-25 19:17:00,
2013-01-25 14:18:00,36.6,31.9,30.09,West,279,2.0,11.0,83,0.00,,---,0.01,VWS V14.01,2013-01-25 19:18:00,
2013-01-25 14:19:00,36.6,31.9,30.09,West,274,3.0,11.0,83,0.00,,---,0.01,VWS V14.01,2013-01-25 19:19:00,
2013-01-25 14:20:00,36.6,31.9,30.09,West,262,3.0,11.0,83,0.00,,---,0.01,VWS V14.01,2013-01-25 19:20:00,
2013-01-25 14:21:00,36.6,31.9,30.09,WNW,293,6.0,11.0,83,0.00,,---,0.01,VWS V14.01,2013-01-25 19:21:00,
2013-01-25 14:22:00,36.6,31.9,30.09,NW,320,7.0,11.0,83,0.00,,---,0.01,VWS V14.01,2013-01-25 19:22:00,
2013-01-25 14:23:00,36.6,31.9,30.09,WSW,242,3.0,11.0,83,0.00,,---,0.01,VWS V14.01,2013-01-25 19:23:00,
2013-01-25 14:24:00,36.6,31.9,30.09,West,259,12.0,12.0,83,0.00,,---,0.01,VWS V14.01,2013-01-25 19:24:00,
2013-01-25 14:25:00,36.5,31.8,30.09,WNW,292,5.0,12.0,83,0.00,,---,0.01,VWS V14.01,2013-01-25 19:25:00,
2013-01-25 14:26:00,36.5,31.8,30.09,NW,306,5.0,12.0,83,0.00,,---,0.01,VWS V14.01,2013-01-25 19:26:00,
2013-01-25 14:27:00,36.5,31.8,30.09,West,278,0.0,12.0,83,0.00,,---,0.01,VWS V14.01,2013-01-25 19:27:00,
2013-01-25 14:28:00,36.5,31.8,30.09,West,261,6.0,12.0,83,0.00,,---,0.01,VWS V14.01,2013-01-25 19:28:00,
2013-01-25 14:29:00,36.5,31.8,30.09,West,279,5.0,12.0,83,0.00,,---,0.01,VWS V14.01,2013-01-25 19:29:00,
2013-01-25 14:30:00,36.5,31.8,30.09,West,274,5.0,12.0,83,0.00,,---,0.01,VWS V14.01,2013-01-25 19:30:00,
2013-01-25 14:31:00,36.3,31.6,30.09,SW,230,7.0,7.0,83,0.00,,---,0.01,VWS V14.01,2013-01-25 19:31:00,
2013-01-25 14:32:00,36.3,31.6,30.09,West,279,7.0,8.0,83,0.00,,---,0.01,VWS V14.01,2013-01-25 19:32:00,
2013-01-25 14:33:00,36.3,31.6,30.09,WNW,286,2.0,8.0,83,0.00,,---,0.01,VWS V14.01,2013-01-25 19:33:00,
2013-01-25 14:34:00,36.3,31.9,30.09,WNW,299,1.0,8.0,84,0.00,,---,0.01,VWS V14.01,2013-01-25 19:34:00,
2013-01-25 14:35:00,36.3,31.6,30.09,NW,312,6.0,8.0,83,0.00,,---,0.01,VWS V14.01,2013-01-25 19:35:00,
2013-01-25 14:36:00,36.3,31.9,30.09,WNW,288,2.0,10.0,84,0.00,,---,0.01,VWS V14.01,2013-01-25 19:36:00,
2013-01-25 14:37:00,36.2,31.5,30.09,West,261,6.0,10.0,83,0.00,,---,0.01,VWS V14.01,2013-01-25 19:37:00,
2013-01-25 14:38:00,36.2,31.5,30.09,WSW,241,7.0,10.0,83,0.00,,---,0.01,VWS V14.01,2013-01-25 19:38:00,
2013-01-25 14:39:00,36.2,31.5,30.09,West,278,6.0,10.0,83,0.00,,---,0.01,VWS V14.01,2013-01-25 19:39:00,
2013-01-25 14:40:00,36.2,31.5,30.09,WSW,247,6.0,11.0,83,0.00,,---,0.01,VWS V14.01,2013-01-25 19:40:00,
2013-01-25 14:41:00,36.2,31.5,30.09,WNW,282,6.0,6.0,83,0.00,,---,0.01,VWS V14.01,2013-01-25 19:41:00,
2013-01-25 14:42:00,36.2,31.5,30.09,West,269,4.0,8.0,83,0.00,,---,0.01,VWS V14.01,2013-01-25 19:42:00,
2013-01-25 14:43:00,36.2,31.5,30.09,WNW,288,7.0,8.0,83,0.00,,---,0.01,VWS V14.01,2013-01-25 19:43:00,
2013-01-25 14:44:00,36.0,31.6,30.09,WSW,237,5.0,8.0,84,0.00,,---,0.01,VWS V14.01,2013-01-25 19:44:00,
2013-01-25 14:45:00,36.0,31.6,30.09,WSW,240,11.0,11.0,84,0.00,,---,0.01,VWS V14.01,2013-01-25 19:45:00,
2013-01-25 14:46:00,36.0,31.6,30.09,WSW,241,8.0,11.0,84,0.00,,---,0.01,VWS V14.01,2013-01-25 19:46:00,
2013-01-25 14:47:00,36.0,31.6,30.09,WSW,252,4.0,11.0,84,0.00,,---,0.01,VWS V14.01,2013-01-25 19:47:00,
2013-01-25 14:48:00,36.0,31.6,30.09,West,262,6.0,11.0,84,0.00,,---,0.01,VWS V14.01,2013-01-25 19:48:00,
2013-01-25 14:49:00,35.9,31.5,30.09,West,278,5.0,11.0,84,0.00,,---,0.01,VWS V14.01,2013-01-25 19:49:00,
2013-01-25 14:50:00,35.9,31.5,30.09,WNW,286,6.0,12.0,84,0.00,,---,0.01,VWS V14.01,2013-01-25 19:50:00,
2013-01-25 14:51:00,35.9,31.5,30.09,West,259,4.0,5.0,84,0.00,,---,0.01,VWS V14.01,2013-01-25 19:51:00,
2013-01-25 14:52:00,35.9,31.5,30.09,WSW,245,6.0,8.0,84,0.00,,---,0.01,VWS V14.01,2013-01-25 19:52:00,
2013-01-25 14:53:00,35.9,31.5,30.09,West,259,3.0,8.0,84,0.00,,---,0.01,VWS V14.01,2013-01-25 19:53:00,
2013-01-25 14:54:00,35.9,31.5,30.09,WNW,302,4.0,12.0,84,0.00,,---,0.01,VWS V14.01,2013-01-25 19:54:00,
2013-01-25 14:55:00,35.8,31.5,30.09,West,281,2.0,12.0,84,0.00,,---,0.01,VWS V14.01,2013-01-25 19:55:00,
2013-01-25 14:56:00,35.8,31.5,30.09,WSW,247,11.0,12.0,84,0.00,,---,0.01,VWS V14.01,2013-01-25 19:56:00,
2013-01-25 14:57:00,35.8,31.5,30.09,WSW,250,6.0,12.0,84,0.00,,---,0.01,VWS V14.01,2013-01-25 19:57:00,
2013-01-25 14:58:00,35.8,31.5,30.09,SW,231,7.0,12.0,84,0.00,,---,0.01,VWS V14.01,2013-01-25 19:58:00,
2013-01-25 14:59:00,35.8,31.1,30.09,WSW,240,7.0,12.0,83,0.00,,---,0.01,VWS V14.01,2013-01-25 19:59:00,
2013-01-25 15:00:00,35.8,31.1,30.09,WNW,283,12.0,12.0,83,0.00,,---,0.01,VWS V14.01,2013-01-25 20:00:00,
2013-01-25 15:01:00,35.6,31.0,30.09,WNW,282,6.0,7.0,83,0.00,,---,0.01,VWS V14.01,2013-01-25 20:01:00,
2013-01-25 15:02:00,35.6,31.0,30.09,WNW,282,2.0,7.0,83,0.00,,---,0.01,VWS V14.01,2013-01-25 20:02:00,
2013-01-25 15:03:00,35.6,31.0,30.09,WSW,251,3.0,7.0,83,0.00,,---,0.01,VWS V14.01,2013-01-25 20:03:00,
2013-01-25 15:04:00,35.6,31.0,30.09,WSW,252,6.0,7.0,83,0.00,,---,0.01,VWS V14.01,2013-01-25 20:04:00,
2013-01-25 15:05:00,35.6,31.0,30.09,WSW,245,6.0,8.0,83,0.00,,---,0.01,VWS V14.01,2013-01-25 20:05:00,
2013-01-25 15:06:00,35.5,30.9,30.09,WSW,250,10.0,16.0,83,0.00,,---,0.01,VWS V14.01,2013-01-25 20:06:00,
2013-01-25 15:07:00,35.5,30.9,30.09,West,259,6.0,16.0,83,0.00,,---,0.01,VWS V14.01,2013-01-25 20:07:00,
2013-01-25 15:08:00,35.5,30.9,30.09,SW,217,1.0,16.0,83,0.00,,---,0.01,VWS V14.01,2013-01-25 20:08:00,
2013-01-25 15:09:00,35.5,30.9,30.09,NW,306,7.0,16.0,83,0.00,,---,0.01,VWS V14.01,2013-01-25 20:09:00,
2013-01-25 15:10:00,35.3,30.7,30.09,West,274,1.0,16.0,83,0.00,,---,0.01,VWS V14.01,2013-01-25 20:10:00,
2013-01-25 15:11:00,35.3,30.7,30.09,West,275,4.0,5.0,83,0.00,,---,0.01,VWS V14.01,2013-01-25 20:11:00,
2013-01-25 15:12:00,35.3,30.7,30.09,WSW,242,7.0,7.0,83,0.00,,---,0.01,VWS V14.01,2013-01-25 20:12:00,
2013-01-25 15:13:00,35.3,30.7,30.09,WSW,254,3.0,7.0,83,0.00,,---,0.01,VWS V14.01,2013-01-25 20:13:00,
2013-01-25 15:14:00,35.3,30.7,30.09,WSW,250,5.0,7.0,83,0.00,,---,0.01,VWS V14.01,2013-01-25 20:14:00,
2013-01-25 15:15:00,35.3,30.4,30.09,West,262,3.0,7.0,82,0.00,,---,0.01,VWS V14.01,2013-01-25 20:15:00,
2013-01-25 15:16:00,35.2,30.3,30.09,WNW,296,7.0,7.0,82,0.00,,---,0.01,VWS V14.01,2013-01-25 20:16:00,
2013-01-25 15:17:00,35.2,30.3,30.09,WSW,250,5.0,10.0,82,0.00,,---,0.01,VWS V14.01,2013-01-25 20:17:00,
2013-01-25 15:18:00,35.2,30.3,30.09,WSW,241,5.0,10.0,82,0.00,,---,0.01,VWS V14.01,2013-01-25 20:18:00,
2013-01-25 15:19:00,35.2,30.3,30.09,WSW,258,3.0,10.0,82,0.00,,---,0.01,VWS V14.01,2013-01-25 20:19:00,
2013-01-25 15:20:00,35.0,30.1,30.09,WSW,240,6.0,10.0,82,0.00,,---,0.01,VWS V14.01,2013-01-25 20:20:00,
2013-01-25 15:21:00,35.0,30.1,30.09,WSW,241,6.0,11.0,82,0.00,,---,0.01,VWS V14.01,2013-01-25 20:21:00,
2013-01-25 15:22:00,35.0,30.1,30.09,SW,228,8.0,11.0,82,0.00,,---,0.01,VWS V14.01,2013-01-25 20:22:00,
2013-01-25 15:23:00,35.0,30.1,30.09,SW,221,1.0,11.0,82,0.00,,---,0.01,VWS V14.01,2013-01-25 20:23:00,
2013-01-25 15:24:00,35.0,30.1,30.09,West,279,8.0,11.0,82,0.00,,---,0.01,VWS V14.01,2013-01-25 20:24:00,
2013-01-25 15:25:00,35.0,30.1,30.09,West,275,6.0,11.0,82,0.00,,---,0.01,VWS V14.01,2013-01-25 20:25:00,
2013-01-25 15:26:00,34.9,30.0,30.09,WNW,285,5.0,11.0,82,0.00,,---,0.01,VWS V14.01,2013-01-25 20:26:00,
2013-01-25 15:27:00,34.9,30.0,30.09,WNW,293,7.0,14.0,82,0.00,,---,0.01,VWS V14.01,2013-01-25 20:27:00,
2013-01-25 15:28:00,34.9,30.0,30.09,West,279,7.0,14.0,82,0.00,,---,0.01,VWS V14.01,2013-01-25 20:28:00,
2013-01-25 15:29:00,34.9,29.7,30.09,WSW,244,6.0,14.0,81,0.00,,---,0.01,VWS V14.01,2013-01-25 20:29:00,
2013-01-25 15:30:00,34.9,29.7,30.08,WSW,257,8.0,14.0,81,0.00,,---,0.01,VWS V14.01,2013-01-25 20:30:00,
2013-01-25 15:31:00,34.9,29.7,30.08,WSW,237,8.0,10.0,81,0.00,,---,0.01,VWS V14.01,2013-01-25 20:31:00,
2013-01-25 15:32:00,34.9,29.7,30.08,WSW,248,6.0,10.0,81,0.00,,---,0.01,VWS V14.01,2013-01-25 20:32:00,
2013-01-25 15:33:00,34.9,29.7,30.08,SW,234,8.0,10.0,81,0.00,,---,0.01,VWS V14.01,2013-01-25 20:33:00,
2013-01-25 15:34:00,34.9,29.4,30.08,WSW,240,9.0,12.0,80,0.00,,---,0.01,VWS V14.01,2013-01-25 20:34:00,
2013-01-25 15:35:00,34.9,29.4,30.08,West,278,8.0,12.0,80,0.00,,---,0.01,VWS V14.01,2013-01-25 20:35:00,
2013-01-25 15:36:00,34.9,29.4,30.08,West,266,6.0,14.0,80,0.00,,---,0.01,VWS V14.01,2013-01-25 20:36:00,
2013-01-25 15:37:00,34.9,29.4,30.08,WSW,250,6.0,14.0,80,0.00,,---,0.01,VWS V14.01,2013-01-25 20:37:00,
2013-01-25 15:38:00,34.7,28.9,30.08,West,279,6.0,14.0,79,0.00,,---,0.01,VWS V14.01,2013-01-25 20:38:00,
2013-01-25 15:39:00,34.7,28.9,30.08,WNW,290,5.0,14.0,79,0.00,,---,0.01,VWS V14.01,2013-01-25 20:39:00,
2013-01-25 15:40:00,34.7,28.9,30.08,West,278,7.0,14.0,79,0.00,,---,0.01,VWS V14.01,2013-01-25 20:40:00,
2013-01-25 15:41:00,34.7,28.9,30.08,WSW,250,8.0,12.0,79,0.00,,---,0.01,VWS V14.01,2013-01-25 20:41:00,
2013-01-25 15:42:00,34.7,28.9,30.08,WSW,244,10.0,12.0,79,0.00,,---,0.01,VWS V14.01,2013-01-25 20:42:00,
2013-01-25 15:43:00,34.7,28.9,30.08,WSW,255,8.0,12.0,79,0.00,,---,0.01,VWS V14.01,2013-01-25 20:43:00,
2013-01-25 15:44:00,34.7,28.9,30.08,WSW,254,9.0,12.0,79,0.00,,---,0.01,VWS V14.01,2013-01-25 20:44:00,
2013-01-25 15:45:00,34.7,28.9,30.08,West,268,5.0,12.0,79,0.00,,---,0.01,VWS V14.01,2013-01-25 20:45:00,
2013-01-25 15:46:00,34.7,28.9,30.08,WNW,282,8.0,12.0,79,0.00,,---,0.01,VWS V14.01,2013-01-25 20:46:00,
2013-01-25 15:47:00,34.7,28.9,30.08,WSW,258,7.0,13.0,79,0.00,,---,0.01,VWS V14.01,2013-01-25 20:47:00,
2013-01-25 15:48:00,34.7,28.9,30.08,WSW,240,3.0,13.0,79,0.00,,---,0.01,VWS V14.01,2013-01-25 20:48:00,
2013-01-25 15:49:00,34.7,28.9,30.08,SW,234,7.0,13.0,79,0.00,,---,0.01,VWS V14.01,2013-01-25 20:49:00,
2013-01-25 15:50:00,34.6,28.8,30.08,West,279,10.0,13.0,79,0.00,,---,0.01,VWS V14.01,2013-01-25 20:50:00,
2013-01-25 15:51:00,34.6,28.8,30.08,WSW,255,7.0,11.0,79,0.00,,---,0.01,VWS V14.01,2013-01-25 20:51:00,
2013-01-25 15:52:00,34.6,28.8,30.08,SW,233,6.0,11.0,79,0.00,,---,0.01,VWS V14.01,2013-01-25 20:52:00,
2013-01-25 15:53:00,34.6,28.5,30.08,WNW,289,12.0,12.0,78,0.00,,---,0.01,VWS V14.01,2013-01-25 20:53:00,
2013-01-25 15:54:00,34.6,28.5,30.08,West,274,6.0,13.0,78,0.00,,---,0.01,VWS V14.01,2013-01-25 20:54:00,
2013-01-25 15:55:00,34.6,28.5,30.08,WSW,247,5.0,13.0,78,0.00,,---,0.01,VWS V14.01,2013-01-25 20:55:00,
2013-01-25 15:56:00,34.6,28.5,30.08,WNW,285,12.0,13.0,78,0.00,,---,0.01,VWS V14.01,2013-01-25 20:56:00,
2013-01-25 15:57:00,34.6,28.5,30.08,WSW,244,6.0,13.0,78,0.00,,---,0.01,VWS V14.01,2013-01-25 20:57:00,
2013-01-25 15:58:00,34.6,28.5,30.08,NW,306,3.0,13.0,78,0.00,,---,0.01,VWS V14.01,2013-01-25 20:58:00,
2013-01-25 15:59:00,34.6,28.5,30.08,SSW,211,7.0,13.0,78,0.00,,---,0.01,VWS V14.01,2013-01-25 20:59:00,
2013-01-25 16:00:00,34.6,28.5,30.09,WSW,248,12.0,13.0,78,0.00,,---,0.01,VWS V14.01,2013-01-25 21:00:00,
2013-01-25 16:01:00,34.6,28.5,30.09,WSW,257,2.0,10.0,78,0.00,,---,0.01,VWS V14.01,2013-01-25 21:01:00,
2013-01-25 16:02:00,34.6,28.5,30.09,SSW,199,12.0,12.0,78,0.00,,---,0.01,VWS V14.01,2013-01-25 21:02:00,
2013-01-25 16:03:00,34.6,28.5,30.09,West,274,9.0,12.0,78,0.00,,---,0.01,VWS V14.01,2013-01-25 21:03:00,
2013-01-25 16:04:00,34.4,28.3,30.09,WNW,288,4.0,12.0,78,0.00,,---,0.01,VWS V14.01,2013-01-25 21:04:00,
2013-01-25 16:05:00,34.4,28.3,30.09,WSW,255,8.0,12.0,78,0.00,,---,0.01,VWS V14.01,2013-01-25 21:05:00,
2013-01-25 16:06:00,34.4,28.3,30.09,West,259,3.0,12.0,78,0.00,,---,0.01,VWS V14.01,2013-01-25 21:06:00,
2013-01-25 16:07:00,34.4,28.3,30.09,West,259,8.0,12.0,78,0.00,,---,0.01,VWS V14.01,2013-01-25 21:07:00,
2013-01-25 16:08:00,34.4,28.3,30.09,WSW,252,6.0,12.0,78,0.00,,---,0.01,VWS V14.01,2013-01-25 21:08:00,
2013-01-25 16:09:00,34.4,28.3,30.09,West,261,7.0,12.0,78,0.00,,---,0.01,VWS V14.01,2013-01-25 21:09:00,
2013-01-25 16:10:00,34.3,28.2,30.09,WSW,258,9.0,12.0,78,0.00,,---,0.01,VWS V14.01,2013-01-25 21:10:00,
2013-01-25 16:11:00,34.3,28.2,30.09,WSW,251,11.0,16.0,78,0.00,,---,0.01,VWS V14.01,2013-01-25 21:11:00,
2013-01-25 16:12:00,34.3,28.2,30.09,SW,233,12.0,16.0,78,0.00,,---,0.01,VWS V14.01,2013-01-25 21:12:00,
2013-01-25 16:13:00,34.3,28.2,30.09,SW,221,7.0,16.0,78,0.00,,---,0.01,VWS V14.01,2013-01-25 21:13:00,
2013-01-25 16:14:00,34.3,28.2,30.09,WSW,254,7.0,16.0,78,0.00,,---,0.01,VWS V14.01,2013-01-25 21:14:00,
2013-01-25 16:15:00,34.3,28.2,30.09,WSW,247,5.0,16.0,78,0.00,,---,0.01,VWS V14.01,2013-01-25 21:15:00,
2013-01-25 16:16:00,34.1,28.0,30.09,WNW,286,8.0,16.0,78,0.00,,---,0.01,VWS V14.01,2013-01-25 21:16:00,
2013-01-25 16:17:00,34.1,28.0,30.09,NE,53,3.0,16.0,78,0.00,,---,0.01,VWS V14.01,2013-01-25 21:17:00,
2013-01-25 16:18:00,34.1,28.0,30.09,WSW,237,6.0,16.0,78,0.00,,---,0.01,VWS V14.01,2013-01-25 21:18:00,
2013-01-25 16:19:00,34.1,28.0,30.09,SW,234,6.0,16.0,78,0.00,,---,0.01,VWS V14.01,2013-01-25 21:19:00,
2013-01-25 16:20:00,34.1,28.0,30.09,WSW,244,2.0,16.0,78,0.00,,---,0.01,VWS V14.01,2013-01-25 21:20:00,
2013-01-25 16:21:00,34.1,28.0,30.09,WSW,245,6.0,13.0,78,0.00,,---,0.01,VWS V14.01,2013-01-25 21:21:00,
2013-01-25 16:22:00,34.1,28.0,30.09,WSW,240,7.0,13.0,78,0.00,,---,0.01,VWS V14.01,2013-01-25 21:22:00,
2013-01-25 16:23:00,34.1,28.0,30.09,West,266,4.0,13.0,78,0.00,,---,0.01,VWS V14.01,2013-01-25 21:23:00,
2013-01-25 16:24:00,34.1,28.0,30.09,SW,223,6.0,13.0,78,0.00,,---,0.01,VWS V14.01,2013-01-25 21:24:00,
2013-01-25 16:25:00,34.1,28.0,30.09,WSW,247,9.0,13.0,78,0.00,,---,0.01,VWS V14.01,2013-01-25 21:25:00,
2013-01-25 16:26:00,34.0,27.9,30.09,WSW,241,7.0,13.0,78,0.00,,---,0.01,VWS V14.01,2013-01-25 21:26:00,
2013-01-25 16:27:00,34.0,27.6,30.09,West,274,7.0,14.0,77,0.00,,---,0.01,VWS V14.01,2013-01-25 21:27:00,
2013-01-25 16:28:00,34.0,27.6,30.09,West,261,2.0,14.0,77,0.00,,---,0.01,VWS V14.01,2013-01-25 21:28:00,
2013-01-25 16:29:00,34.0,27.6,30.09,WNW,282,8.0,14.0,77,0.00,,---,0.01,VWS V14.01,2013-01-25 21:29:00,
2013-01-25 16:30:00,34.0,27.6,30.09,West,278,4.0,14.0,77,0.00,,---,0.01,VWS V14.01,2013-01-25 21:30:00,
2013-01-25 16:31:00,34.0,27.6,30.09,WSW,258,8.0,11.0,77,0.00,,---,0.01,VWS V14.01,2013-01-25 21:31:00,
2013-01-25 16:32:00,34.0,27.6,30.09,WNW,295,12.0,12.0,77,0.00,,---,0.01,VWS V14.01,2013-01-25 21:32:00,
2013-01-25 16:33:00,34.0,27.6,30.09,West,264,6.0,12.0,77,0.00,,---,0.01,VWS V14.01,2013-01-25 21:33:00,
2013-01-25 16:34:00,33.8,27.4,30.09,West,261,3.0,12.0,77,0.00,,---,0.01,VWS V14.01,2013-01-25 21:34:00,
2013-01-25 16:35:00,33.8,27.4,30.09,WSW,247,0.0,12.0,77,0.00,,---,0.01,VWS V14.01,2013-01-25 21:35:00,
2013-01-25 16:36:00,33.8,27.4,30.09,NW,313,8.0,12.0,77,0.00,,---,0.01,VWS V14.01,2013-01-25 21:36:00,
2013-01-25 16:37:00,33.8,27.4,30.09,West,271,3.0,12.0,77,0.00,,---,0.01,VWS V14.01,2013-01-25 21:37:00,
2013-01-25 16:38:00,33.8,27.4,30.09,West,278,10.0,12.0,77,0.00,,---,0.01,VWS V14.01,2013-01-25 21:38:00,
2013-01-25 16:39:00,33.8,27.4,30.09,WSW,250,3.0,12.0,77,0.00,,---,0.01,VWS V14.01,2013-01-25 21:39:00,
2013-01-25 16:40:00,33.8,27.4,30.09,NW,316,5.0,12.0,77,0.00,,---,0.01,VWS V14.01,2013-01-25 21:40:00,
2013-01-25 16:41:00,33.8,27.4,30.09,West,275,2.0,4.0,77,0.00,,---,0.01,VWS V14.01,2013-01-25 21:41:00,
2013-01-25 16:42:00,33.8,27.4,30.09,WSW,255,7.0,10.0,77,0.00,,---,0.01,VWS V14.01,2013-01-25 21:42:00,
2013-01-25 16:43:00,33.7,27.3,30.09,WSW,244,7.0,10.0,77,0.00,,---,0.01,VWS V14.01,2013-01-25 21:43:00,
2013-01-25 16:44:00,33.7,27.3,30.09,WSW,254,7.0,11.0,77,0.00,,---,0.01,VWS V14.01,2013-01-25 21:44:00,
2013-01-25 16:45:00,33.7,27.3,30.09,WSW,254,10.0,11.0,77,0.00,,---,0.01,VWS V14.01,2013-01-25 21:45:00,
2013-01-25 16:46:00,33.7,27.3,30.09,West,262,3.0,11.0,77,0.00,,---,0.01,VWS V14.01,2013-01-25 21:46:00,
2013-01-25 16:47:00,33.7,27.0,30.09,West,262,5.0,11.0,76,0.00,,---,0.01,VWS V14.01,2013-01-25 21:47:00,
2013-01-25 16:48:00,33.7,27.0,30.09,WSW,245,6.0,11.0,76,0.00,,---,0.01,VWS V14.01,2013-01-25 21:48:00,
2013-01-25 16:49:00,33.7,27.0,30.09,West,268,5.0,11.0,76,0.00,,---,0.01,VWS V14.01,2013-01-25 21:49:00,
2013-01-25 16:50:00,33.7,27.0,30.09,WSW,248,5.0,11.0,76,0.00,,---,0.01,VWS V14.01,2013-01-25 21:50:00,
2013-01-25 16:51:00,33.7,27.0,30.09,West,264,4.0,7.0,76,0.00,,---,0.01,VWS V14.01,2013-01-25 21:51:00,
2013-01-25 16:52:00,33.7,27.0,30.09,WSW,251,6.0,10.0,76,0.00,,---,0.01,VWS V14.01,2013-01-25 21:52:00,
2013-01-25 16:53:00,33.5,26.8,30.09,WSW,248,7.0,10.0,76,0.00,,---,0.01,VWS V14.01,2013-01-25 21:53:00,
2013-01-25 16:54:00,33.5,26.8,30.09,WSW,250,7.0,10.0,76,0.00,,---,0.01,VWS V14.01,2013-01-25 21:54:00,
2013-01-25 16:55:00,33.5,26.8,30.09,WSW,242,5.0,10.0,76,0.00,,---,0.01,VWS V14.01,2013-01-25 21:55:00,
2013-01-25 16:56:00,33.5,26.8,30.09,WSW,251,7.0,10.0,76,0.00,,---,0.01,VWS V14.01,2013-01-25 21:56:00,
2013-01-25 16:57:00,33.5,26.4,30.09,WNW,282,5.0,10.0,75,0.00,,---,0.01,VWS V14.01,2013-01-25 21:57:00,
2013-01-25 16:58:00,33.5,26.4,30.09,WNW,282,2.0,10.0,75,0.00,,---,0.01,VWS V14.01,2013-01-25 21:58:00,
2013-01-25 16:59:00,33.5,26.8,30.09,WSW,242,6.0,10.0,76,0.00,,---,0.01,VWS V14.01,2013-01-25 21:59:00,
2013-01-25 17:00:00,33.5,26.8,30.10,NW,305,1.0,10.0,76,0.00,,---,0.01,VWS V14.01,2013-01-25 22:00:00,
2013-01-25 17:01:00,33.5,26.8,30.10,West,259,3.0,5.0,76,0.00,,---,0.01,VWS V14.01,2013-01-25 22:01:00,
2013-01-25 17:02:00,33.5,26.8,30.10,WSW,248,1.0,5.0,76,0.00,,---,0.01,VWS V14.01,2013-01-25 22:02:00,
2013-01-25 17:03:00,33.5,26.8,30.10,NNW,336,7.0,7.0,76,0.00,,---,0.01,VWS V14.01,2013-01-25 22:03:00,
2013-01-25 17:04:00,33.5,26.8,30.10,West,261,3.0,7.0,76,0.00,,---,0.01,VWS V14.01,2013-01-25 22:04:00,
2013-01-25 17:05:00,33.5,26.8,30.10,West,265,5.0,7.0,76,0.00,,---,0.01,VWS V14.01,2013-01-25 22:05:00,
2013-01-25 17:06:00,33.5,26.8,30.10,West,265,9.0,10.0,76,0.00,,---,0.01,VWS V14.01,2013-01-25 22:06:00,
2013-01-25 17:07:00,33.4,26.7,30.10,WNW,285,1.0,10.0,76,0.00,,---,0.01,VWS V14.01,2013-01-25 22:07:00,
2013-01-25 17:08:00,33.4,26.7,30.10,WSW,244,6.0,10.0,76,0.00,,---,0.01,VWS V14.01,2013-01-25 22:08:00,
2013-01-25 17:09:00,33.4,26.7,30.10,SW,231,7.0,11.0,76,0.00,,---,0.01,VWS V14.01,2013-01-25 22:09:00,
2013-01-25 17:10:00,33.4,26.7,30.10,West,278,7.0,11.0,76,0.00,,---,0.01,VWS V14.01,2013-01-25 22:10:00,
2013-01-25 17:11:00,33.4,26.7,30.10,West,262,5.0,7.0,76,0.00,,---,0.01,VWS V14.01,2013-01-25 22:11:00,
2013-01-25 17:12:00,33.4,26.3,30.10,WNW,283,7.0,7.0,75,0.00,,---,0.01,VWS V14.01,2013-01-25 22:12:00,
2013-01-25 17:13:00,33.4,26.3,30.10,WSW,255,7.0,7.0,75,0.00,,---,0.01,VWS V14.01,2013-01-25 22:13:00,
2013-01-25 17:14:00,33.2,26.1,30.10,West,269,12.0,12.0,75,0.00,,---,0.01,VWS V14.01,2013-01-25 22:14:00,
2013-01-25 17:15:00,33.2,26.1,30.10,WNW,286,5.0,12.0,75,0.00,,---,0.01,VWS V14.01,2013-01-25 22:15:00,
2013-01-25 17:16:00,33.2,26.1,30.10,WSW,250,4.0,12.0,75,0.00,,---,0.01,VWS V14.01,2013-01-25 22:16:00,
2013-01-25 17:17:00,33.2,26.1,30.10,West,276,2.0,12.0,75,0.00,,---,0.01,VWS V14.01,2013-01-25 22:17:00,
2013-01-25 17:18:00,33.2,26.5,30.10,West,278,5.0,12.0,76,0.00,,---,0.01,VWS V14.01,2013-01-25 22:18:00,
2013-01-25 17:19:00,33.2,26.5,30.10,WSW,258,4.0,12.0,76,0.00,,---,0.01,VWS V14.01,2013-01-25 22:19:00,
2013-01-25 17:20:00,33.2,26.5,30.10,WNW,289,12.0,12.0,76,0.00,,---,0.01,VWS V14.01,2013-01-25 22:20:00,
2013-01-25 17:21:00,33.2,26.5,30.10,West,281,3.0,7.0,76,0.00,,---,0.01,VWS V14.01,2013-01-25 22:21:00,
2013-01-25 17:22:00,33.2,26.5,30.10,West,261,2.0,7.0,76,0.00,,---,0.01,VWS V14.01,2013-01-25 22:22:00,
2013-01-25 17:23:00,33.1,26.4,30.10,WSW,257,4.0,7.0,76,0.00,,---,0.01,VWS V14.01,2013-01-25 22:23:00,
2013-01-25 17:24:00,33.1,26.4,30.10,WSW,258,6.0,7.0,76,0.00,,---,0.01,VWS V14.01,2013-01-25 22:24:00,
2013-01-25 17:25:00,33.1,26.4,30.10,WSW,255,6.0,10.0,76,0.00,,---,0.01,VWS V14.01,2013-01-25 22:25:00,
2013-01-25 17:26:00,33.1,26.4,30.10,West,276,5.0,10.0,76,0.00,,---,0.01,VWS V14.01,2013-01-25 22:26:00,
2013-01-25 17:27:00,33.1,26.4,30.10,WSW,254,5.0,10.0,76,0.00,,---,0.01,VWS V14.01,2013-01-25 22:27:00,
2013-01-25 17:28:00,33.1,26.4,30.10,West,264,5.0,10.0,76,0.00,,---,0.01,VWS V14.01,2013-01-25 22:28:00,
2013-01-25 17:29:00,32.9,26.2,30.10,WSW,255,5.0,10.0,76,0.00,,---,0.01,VWS V14.01,2013-01-25 22:29:00,
2013-01-25 17:30:00,32.9,26.2,30.10,WSW,245,6.0,10.0,76,0.00,,---,0.01,VWS V14.01,2013-01-25 22:30:00,
2013-01-25 17:31:00,32.9,26.2,30.10,WSW,242,5.0,7.0,76,0.00,,---,0.01,VWS V14.01,2013-01-25 22:31:00,
2013-01-25 17:32:00,32.9,26.2,30.10,WSW,244,7.0,7.0,76,0.00,,---,0.01,VWS V14.01,2013-01-25 22:32:00,
2013-01-25 17:33:00,32.9,26.2,30.10,SW,233,7.0,10.0,76,0.00,,---,0.01,VWS V14.01,2013-01-25 22:33:00,
2013-01-25 17:34:00,32.9,26.2,30.10,West,275,5.0,10.0,76,0.00,,---,0.01,VWS V14.01,2013-01-25 22:34:00,
2013-01-25 17:35:00,32.9,26.2,30.10,West,278,2.0,10.0,76,0.00,,---,0.01,VWS V14.01,2013-01-25 22:35:00,
2013-01-25 17:36:00,32.8,26.1,30.10,WSW,240,7.0,10.0,76,0.00,,---,0.01,VWS V14.01,2013-01-25 22:36:00,
2013-01-25 17:37:00,32.8,26.1,30.10,SW,234,1.0,10.0,76,0.00,,---,0.01,VWS V14.01,2013-01-25 22:37:00,
2013-01-25 17:38:00,32.8,26.1,30.10,WSW,254,8.0,10.0,76,0.00,,---,0.01,VWS V14.01,2013-01-25 22:38:00,
2013-01-25 17:39:00,32.8,26.1,30.10,West,271,8.0,16.0,76,0.00,,---,0.01,VWS V14.01,2013-01-25 22:39:00,
2013-01-25 17:40:00,32.8,26.1,30.10,West,275,7.0,16.0,76,0.00,,---,0.01,VWS V14.01,2013-01-25 22:40:00,
2013-01-25 17:41:00,32.8,26.1,30.10,WSW,257,6.0,11.0,76,0.00,,---,0.01,VWS V14.01,2013-01-25 22:41:00,
2013-01-25 17:42:00,32.7,26.0,30.10,WSW,238,6.0,11.0,76,0.00,,---,0.01,VWS V14.01,2013-01-25 22:42:00,
2013-01-25 17:43:00,32.7,26.3,30.10,WSW,242,6.0,11.0,77,0.00,,---,0.01,VWS V14.01,2013-01-25 22:43:00,
2013-01-25 17:44:00,32.7,26.3,30.10,SW,230,9.0,11.0,77,0.00,,---,0.01,VWS V14.01,2013-01-25 22:44:00,
2013-01-25 17:45:00,32.7,26.3,30.10,West,268,7.0,11.0,77,0.00,,---,0.01,VWS V14.01,2013-01-25 22:45:00,
2013-01-25 17:46:00,32.7,26.3,30.10,WSW,250,8.0,11.0,77,0.00,,---,0.01,VWS V14.01,2013-01-25 22:46:00,
2013-01-25 17:47:00,32.7,26.3,30.10,SW,233,16.0,16.0,77,0.00,,---,0.01,VWS V14.01,2013-01-25 22:47:00,
2013-01-25 17:48:00,32.5,25.8,30.10,WSW,241,7.0,18.0,76,0.00,,---,0.01,VWS V14.01,2013-01-25 22:48:00,
2013-01-25 17:49:00,32.5,25.8,30.10,West,261,11.0,18.0,76,0.00,,---,0.01,VWS V14.01,2013-01-25 22:49:00,
2013-01-25 17:50:00,32.5,25.8,30.10,WNW,282,9.0,18.0,76,0.00,,---,0.01,VWS V14.01,2013-01-25 22:50:00,
2013-01-25 17:51:00,32.5,25.8,30.10,WSW,240,11.0,11.0,76,0.00,,---,0.01,VWS V14.01,2013-01-25 22:51:00,
2013-01-25 17:52:00,32.5,25.8,30.10,WSW,252,7.0,12.0,76,0.00,,---,0.01,VWS V14.01,2013-01-25 22:52:00,
2013-01-25 17:53:00,32.5,25.8,30.10,SW,234,7.0,14.0,76,0.00,,---,0.01,VWS V14.01,2013-01-25 22:53:00,
2013-01-25 17:54:00,32.5,25.8,30.10,West,281,12.0,14.0,76,0.00,,---,0.01,VWS V14.01,2013-01-25 22:54:00,
2013-01-25 17:55:00,32.5,25.8,30.10,West,268,7.0,14.0,76,0.00,,---,0.01,VWS V14.01,2013-01-25 22:55:00,
2013-01-25 17:56:00,32.5,25.8,30.10,WNW,303,10.0,14.0,76,0.00,,---,0.01,VWS V14.01,2013-01-25 22:56:00,
2013-01-25 17:57:00,32.5,25.8,30.10,WSW,257,7.0,14.0,76,0.00,,---,0.01,VWS V14.01,2013-01-25 22:57:00,
2013-01-25 17:58:00,32.5,25.8,30.10,SW,235,10.0,14.0,76,0.00,,---,0.01,VWS V14.01,2013-01-25 22:58:00,
2013-01-25 17:59:00,32.5,25.8,30.10,WSW,248,9.0,14.0,76,0.00,,---,0.01,VWS V14.01,2013-01-25 22:59:00,
2013-01-25 18:00:00,32.4,25.7,30.11,West,268,7.0,21.0,76,0.00,,---,0.01,VWS V14.01,2013-01-25 23:00:00,
2013-01-25 18:01:00,32.4,25.7,30.11,WSW,238,10.0,10.0,76,0.00,,---,0.01,VWS V14.01,2013-01-25 23:01:00,
2013-01-25 18:02:00,32.4,25.4,30.11,SW,235,7.0,12.0,75,0.00,,---,0.01,VWS V14.01,2013-01-25 23:02:00,
2013-01-25 18:03:00,32.4,25.4,30.11,West,262,8.0,12.0,75,0.00,,---,0.01,VWS V14.01,2013-01-25 23:03:00,
2013-01-25 18:04:00,32.4,25.4,30.11,WSW,245,11.0,12.0,75,0.00,,---,0.01,VWS V14.01,2013-01-25 23:04:00,
2013-01-25 18:05:00,32.4,25.4,30.11,West,265,10.0,13.0,75,0.00,,---,0.01,VWS V14.01,2013-01-25 23:05:00,
2013-01-25 18:06:00,32.4,25.4,30.11,WSW,257,8.0,13.0,75,0.00,,---,0.01,VWS V14.01,2013-01-25 23:06:00,
2013-01-25 18:07:00,32.4,25.4,30.11,SW,224,12.0,13.0,75,0.00,,---,0.01,VWS V14.01,2013-01-25 23:07:00,
2013-01-25 18:08:00,32.4,25.4,30.11,West,268,6.0,13.0,75,0.00,,---,0.01,VWS V14.01,2013-01-25 23:08:00,
2013-01-25 18:09:00,32.4,25.4,30.11,WSW,241,6.0,13.0,75,0.00,,---,0.01,VWS V14.01,2013-01-25 23:09:00,
2013-01-25 18:10:00,32.4,25.4,30.11,WNW,286,4.0,13.0,75,0.00,,---,0.01,VWS V14.01,2013-01-25 23:10:00,
2013-01-25 18:11:00,32.4,25.4,30.11,WSW,241,10.0,10.0,75,0.00,,---,0.01,VWS V14.01,2013-01-25 23:11:00,
2013-01-25 18:12:00,32.4,25.4,30.11,WSW,257,6.0,11.0,75,0.00,,---,0.01,VWS V14.01,2013-01-25 23:12:00,
2013-01-25 18:13:00,32.4,25.4,30.11,WNW,295,7.0,11.0,75,0.00,,---,0.01,VWS V14.01,2013-01-25 23:13:00,
2013-01-25 18:14:00,32.4,25.4,30.11,WSW,244,8.0,11.0,75,0.00,,---,0.01,VWS V14.01,2013-01-25 23:14:00,
2013-01-25 18:15:00,32.4,25.4,30.12,NW,320,8.0,12.0,75,0.00,,---,0.01,VWS V14.01,2013-01-25 23:15:00,
2013-01-25 18:16:00,32.4,25.4,30.12,SSW,199,8.0,12.0,75,0.00,,---,0.01,VWS V14.01,2013-01-25 23:16:00,
2013-01-25 18:17:00,32.2,25.2,30.12,SW,224,1.0,12.0,75,0.00,,---,0.01,VWS V14.01,2013-01-25 23:17:00,
2013-01-25 18:18:00,32.2,25.2,30.12,West,278,8.0,12.0,75,0.00,,---,0.01,VWS V14.01,2013-01-25 23:18:00,
2013-01-25 18:19:00,32.2,25.2,30.12,WNW,288,5.0,12.0,75,0.00,,---,0.01,VWS V14.01,2013-01-25 23:19:00,
2013-01-25 18:20:00,32.2,25.2,30.12,West,266,5.0,12.0,75,0.00,,---,0.01,VWS V14.01,2013-01-25 23:20:00,
2013-01-25 18:21:00,32.2,25.2,30.12,WNW,298,3.0,7.0,75,0.00,,---,0.01,VWS V14.01,2013-01-25 23:21:00,
2013-01-25 18:22:00,32.2,25.2,30.12,WNW,288,12.0,12.0,75,0.00,,---,0.01,VWS V14.01,2013-01-25 23:22:00,
2013-01-25 18:23:00,32.2,25.2,30.12,WSW,237,10.0,12.0,75,0.00,,---,0.01,VWS V14.01,2013-01-25 23:23:00,
2013-01-25 18:24:00,32.1,25.1,30.12,WSW,252,7.0,12.0,75,0.00,,---,0.01,VWS V14.01,2013-01-25 23:24:00,
2013-01-25 18:25:00,32.1,25.1,30.12,SW,224,12.0,12.0,75,0.00,,---,0.01,VWS V14.01,2013-01-25 23:25:00,
2013-01-25 18:26:00,32.1,25.1,30.12,WSW,251,5.0,12.0,75,0.00,,---,0.01,VWS V14.01,2013-01-25 23:26:00,
2013-01-25 18:27:00,32.1,25.1,30.12,WNW,293,7.0,12.0,75,0.00,,---,0.01,VWS V14.01,2013-01-25 23:27:00,
2013-01-25 18:28:00,32.1,25.1,30.12,WNW,286,7.0,12.0,75,0.00,,---,0.01,VWS V14.01,2013-01-25 23:28:00,
2013-01-25 18:29:00,32.1,25.1,30.12,WSW,247,6.0,12.0,75,0.00,,---,0.01,VWS V14.01,2013-01-25 23:29:00,
2013-01-25 18:30:00,32.1,25.1,30.12,WNW,300,6.0,12.0,75,0.00,,---,0.01,VWS V14.01,2013-01-25 23:30:00,
2013-01-25 18:31:00,31.9,24.9,30.12,West,279,8.0,8.0,75,0.00,,---,0.01,VWS V14.01,2013-01-25 23:31:00,
2013-01-25 18:32:00,31.9,24.9,30.12,West,268,7.0,10.0,75,0.00,,---,0.01,VWS V14.01,2013-01-25 23:32:00,
2013-01-25 18:33:00,31.9,24.9,30.12,WNW,299,6.0,10.0,75,0.00,,---,0.01,VWS V14.01,2013-01-25 23:33:00,
2013-01-25 18:34:00,31.9,24.9,30.12,WSW,247,6.0,10.0,75,0.00,,---,0.01,VWS V14.01,2013-01-25 23:34:00,
2013-01-25 18:35:00,31.9,24.9,30.12,WSW,241,8.0,10.0,75,0.00,,---,0.01,VWS V14.01,2013-01-25 23:35:00,
2013-01-25 18:36:00,31.9,24.9,30.12,West,262,6.0,10.0,75,0.00,,---,0.01,VWS V14.01,2013-01-25 23:36:00,
2013-01-25 18:37:00,31.9,24.9,30.12,SW,235,4.0,10.0,75,0.00,,---,0.01,VWS V14.01,2013-01-25 23:37:00,
2013-01-25 18:38:00,31.9,24.6,30.12,West,268,8.0,13.0,74,0.00,,---,0.01,VWS V14.01,2013-01-25 23:38:00,
2013-01-25 18:39:00,31.9,24.6,30.12,WNW,298,7.0,13.0,74,0.00,,---,0.01,VWS V14.01,2013-01-25 23:39:00,
2013-01-25 18:40:00,31.9,24.6,30.12,NW,305,7.0,13.0,74,0.00,,---,0.01,VWS V14.01,2013-01-25 23:40:00,
2013-01-25 18:41:00,31.9,24.6,30.12,WSW,257,8.0,11.0,74,0.00,,---,0.01,VWS V14.01,2013-01-25 23:41:00,
2013-01-25 18:42:00,31.9,24.6,30.12,West,268,7.0,11.0,74,0.00,,---,0.01,VWS V14.01,2013-01-25 23:42:00,
2013-01-25 18:43:00,31.9,24.2,30.12,West,265,5.0,11.0,73,0.00,,---,0.01,VWS V14.01,2013-01-25 23:43:00,
2013-01-25 18:44:00,31.9,24.2,30.12,SW,235,9.0,11.0,73,0.00,,---,0.01,VWS V14.01,2013-01-25 23:44:00,
2013-01-25 18:45:00,31.9,24.6,30.14,WSW,241,5.0,11.0,74,0.00,,---,0.01,VWS V14.01,2013-01-25 23:45:00,
2013-01-25 18:46:00,31.9,24.6,30.14,WSW,245,7.0,11.0,74,0.00,,---,0.01,VWS V14.01,2013-01-25 23:46:00,
2013-01-25 18:47:00,31.9,24.6,30.14,West,269,4.0,11.0,74,0.00,,---,0.01,VWS V14.01,2013-01-25 23:47:00,
2013-01-25 18:48:00,31.9,24.6,30.14,West,265,4.0,11.0,74,0.00,,---,0.01,VWS V14.01,2013-01-25 23:48:00,
2013-01-25 18:49:00,31.9,24.6,30.14,West,276,3.0,11.0,74,0.00,,---,0.01,VWS V14.01,2013-01-25 23:49:00,
2013-01-25 18:50:00,31.9,24.6,30.14,West,266,6.0,11.0,74,0.00,,---,0.01,VWS V14.01,2013-01-25 23:50:00,
2013-01-25 18:51:00,31.9,24.6,30.14,WNW,303,5.0,7.0,74,0.00,,---,0.01,VWS V14.01,2013-01-25 23:51:00,
2013-01-25 18:52:00,31.9,23.9,30.14,WNW,303,3.0,7.0,72,0.00,,---,0.01,VWS V14.01,2013-01-25 23:52:00,
2013-01-25 18:53:00,31.9,23.9,30.14,WSW,254,6.0,7.0,72,0.00,,---,0.01,VWS V14.01,2013-01-25 23:53:00,
2013-01-25 18:54:00,31.9,23.9,30.14,WSW,242,5.0,7.0,72,0.00,,---,0.01,VWS V14.01,2013-01-25 23:54:00,
2013-01-25 18:55:00,31.9,23.9,30.14,SW,226,7.0,7.0,72,0.00,,---,0.01,VWS V14.01,2013-01-25 23:55:00,
2013-01-25 18:56:00,31.9,23.6,30.14,WNW,295,13.0,13.0,71,0.00,,---,0.01,VWS V14.01,2013-01-25 23:56:00,
2013-01-25 18:57:00,31.9,23.6,30.14,WSW,248,5.0,16.0,71,0.00,,---,0.01,VWS V14.01,2013-01-25 23:57:00,
2013-01-25 18:58:00,32.1,23.4,30.14,West,278,7.0,16.0,70,0.00,,---,0.01,VWS V14.01,2013-01-25 23:58:00,
2013-01-25 18:59:00,32.1,23.4,30.14,West,275,4.0,16.0,70,0.00,,---,0.01,VWS V14.01,2013-01-25 23:59:00,
2013-01-25 19:00:00,32.1,23.4,30.14,WSW,251,6.0,16.0,70,0.00,,---,0.01,VWS V14.01,2013-01-26 00:00:00,
2013-01-25 19:01:00,32.1,23.4,30.14,West,266,4.0,8.0,70,0.00,,---,0.01,VWS V14.01,2013-01-26 00:01:00,
2013-01-25 19:02:00,32.1,23.1,30.14,WSW,238,6.0,9.0,69,0.00,,---,0.01,VWS V14.01,2013-01-26 00:02:00,
2013-01-25 19:03:00,32.2,23.2,30.14,SSW,206,6.0,11.0,69,0.00,,---,0.01,VWS V14.01,2013-01-26 00:03:00,
2013-01-25 19:04:00,32.2,23.2,30.14,WNW,288,3.0,11.0,69,0.00,,---,0.01,VWS V14.01,2013-01-26 00:04:00,
2013-01-25 19:05:00,32.2,23.5,30.14,West,259,3.0,11.0,70,0.00,,---,0.01,VWS V14.01,2013-01-26 00:05:00,
2013-01-25 19:06:00,32.2,23.5,30.14,WSW,257,5.0,11.0,70,0.00,,---,0.01,VWS V14.01,2013-01-26 00:06:00,
2013-01-25 19:07:00,32.2,23.5,30.14,West,266,5.0,11.0,70,0.00,,---,0.01,VWS V14.01,2013-01-26 00:07:00,
2013-01-25 19:08:00,32.2,23.5,30.14,WSW,244,8.0,11.0,70,0.00,,---,0.01,VWS V14.01,2013-01-26 00:08:00,
2013-01-25 19:09:00,32.2,23.5,30.14,WNW,285,5.0,11.0,70,0.00,,---,0.01,VWS V14.01,2013-01-26 00:09:00,
2013-01-25 19:10:00,32.2,23.5,30.14,West,271,9.0,11.0,70,0.00,,---,0.01,VWS V14.01,2013-01-26 00:10:00,
2013-01-25 19:11:00,32.2,23.2,30.14,SW,231,6.0,7.0,69,0.00,,---,0.01,VWS V14.01,2013-01-26 00:11:00,
2013-01-25 19:12:00,32.2,23.2,30.14,WNW,299,2.0,8.0,69,0.00,,---,0.01,VWS V14.01,2013-01-26 00:12:00,
2013-01-25 19:13:00,32.2,23.2,30.14,WSW,240,6.0,8.0,69,0.00,,---,0.01,VWS V14.01,2013-01-26 00:13:00,
2013-01-25 19:14:00,32.2,23.5,30.14,WSW,257,7.0,10.0,70,0.00,,---,0.01,VWS V14.01,2013-01-26 00:14:00,
2013-01-25 19:15:00,32.2,23.2,30.14,West,259,5.0,10.0,69,0.00,,---,0.01,VWS V14.01,2013-01-26 00:15:00,
2013-01-25 19:16:00,32.2,23.2,30.14,West,266,2.0,10.0,69,0.00,,---,0.01,VWS V14.01,2013-01-26 00:16:00,
2013-01-25 19:17:00,32.2,23.2,30.14,West,266,0.0,10.0,69,0.00,,---,0.01,VWS V14.01,2013-01-26 00:17:00,
2013-01-25 19:18:00,32.2,23.2,30.14,West,266,5.0,10.0,69,0.00,,---,0.01,VWS V14.01,2013-01-26 00:18:00,
2013-01-25 19:19:00,32.2,23.2,30.14,West,272,6.0,10.0,69,0.00,,---,0.01,VWS V14.01,2013-01-26 00:19:00,
2013-01-25 19:20:00,32.2,23.2,30.14,West,276,5.0,10.0,69,0.00,,---,0.01,VWS V14.01,2013-01-26 00:20:00,
2013-01-25 19:21:00,32.2,23.2,30.14,West,279,3.0,5.0,69,0.00,,---,0.01,VWS V14.01,2013-01-26 00:21:00,
2013-01-25 19:22:00,32.2,23.2,30.14,WSW,252,3.0,6.0,69,0.00,,---,0.01,VWS V14.01,2013-01-26 00:22:00,
2013-01-25 19:23:00,32.1,23.1,30.14,NW,312,5.0,6.0,69,0.00,,---,0.01,VWS V14.01,2013-01-26 00:23:00,
2013-01-25 19:24:00,32.1,23.1,30.14,West,261,3.0,6.0,69,0.00,,---,0.01,VWS V14.01,2013-01-26 00:24:00,
2013-01-25 19:25:00,32.1,22.8,30.14,WNW,300,6.0,11.0,68,0.00,,---,0.01,VWS V14.01,2013-01-26 00:25:00,
2013-01-25 19:26:00,32.1,22.8,30.14,SW,230,7.0,11.0,68,0.00,,---,0.01,VWS V14.01,2013-01-26 00:26:00,
2013-01-25 19:27:00,32.2,22.8,30.14,WSW,238,7.0,11.0,68,0.00,,---,0.01,VWS V14.01,2013-01-26 00:27:00,
2013-01-25 19:28:00,32.2,22.8,30.14,WSW,241,6.0,11.0,68,0.00,,---,0.01,VWS V14.01,2013-01-26 00:28:00,
2013-01-25 19:29:00,32.2,22.5,30.14,WNW,283,5.0,11.0,67,0.00,,---,0.01,VWS V14.01,2013-01-26 00:29:00,
2013-01-25 19:30:00,32.2,22.5,30.15,WNW,289,8.0,11.0,67,0.00,,---,0.01,VWS V14.01,2013-01-26 00:30:00,
2013-01-25 19:31:00,32.2,22.5,30.15,WSW,241,6.0,9.0,67,0.00,,---,0.01,VWS V14.01,2013-01-26 00:31:00,
2013-01-25 19:32:00,32.2,22.1,30.15,SW,235,7.0,10.0,66,0.00,,---,0.01,VWS V14.01,2013-01-26 00:32:00,
2013-01-25 19:33:00,32.2,22.1,30.15,WSW,240,6.0,10.0,66,0.00,,---,0.01,VWS V14.01,2013-01-26 00:33:00,
2013-01-25 19:34:00,32.4,22.7,30.15,West,281,4.0,10.0,67,0.00,,---,0.01,VWS V14.01,2013-01-26 00:34:00,
2013-01-25 19:35:00,32.4,22.7,30.15,West,274,3.0,10.0,67,0.00,,---,0.01,VWS V14.01,2013-01-26 00:35:00,
2013-01-25 19:36:00,32.4,22.7,30.15,West,261,3.0,10.0,67,0.00,,---,0.01,VWS V14.01,2013-01-26 00:36:00,
2013-01-25 19:37:00,32.4,22.7,30.15,WSW,250,3.0,10.0,67,0.00,,---,0.01,VWS V14.01,2013-01-26 00:37:00,
2013-01-25 19:38:00,32.4,22.7,30.15,SW,234,5.0,10.0,67,0.00,,---,0.01,VWS V14.01,2013-01-26 00:38:00,
2013-01-25 19:39:00,32.4,23.0,30.15,SW,234,3.0,10.0,68,0.00,,---,0.01,VWS V14.01,2013-01-26 00:39:00,
2013-01-25 19:40:00,32.4,23.0,30.15,WSW,245,2.0,10.0,68,0.00,,---,0.01,VWS V14.01,2013-01-26 00:40:00,
2013-01-25 19:41:00,32.4,23.0,30.15,West,264,6.0,6.0,68,0.00,,---,0.01,VWS V14.01,2013-01-26 00:41:00,
2013-01-25 19:42:00,32.4,23.0,30.15,West,264,5.0,6.0,68,0.00,,---,0.01,VWS V14.01,2013-01-26 00:42:00,
2013-01-25 19:43:00,32.4,22.7,30.15,West,268,4.0,7.0,67,0.00,,---,0.01,VWS V14.01,2013-01-26 00:43:00,
2013-01-25 19:44:00,32.4,22.7,30.15,SW,231,7.0,8.0,67,0.00,,---,0.01,VWS V14.01,2013-01-26 00:44:00,
2013-01-25 19:45:00,32.4,22.7,30.15,SW,231,5.0,8.0,67,0.00,,---,0.01,VWS V14.01,2013-01-26 00:45:00,
2013-01-25 19:46:00,32.4,22.7,30.15,SW,231,3.0,8.0,67,0.00,,---,0.01,VWS V14.01,2013-01-26 00:46:00,
2013-01-25 19:47:00,32.4,22.7,30.15,WNW,295,2.0,8.0,67,0.00,,---,0.01,VWS V14.01,2013-01-26 00:47:00,
2013-01-25 19:48:00,32.4,22.3,30.15,West,279,5.0,8.0,66,0.00,,---,0.01,VWS V14.01,2013-01-26 00:48:00,
2013-01-25 19:49:00,32.4,22.3,30.15,West,259,4.0,8.0,66,0.00,,---,0.01,VWS V14.01,2013-01-26 00:49:00,
2013-01-25 19:50:00,32.4,22.3,30.15,West,266,4.0,8.0,66,0.00,,---,0.01,VWS V14.01,2013-01-26 00:50:00,
2013-01-25 19:51:00,32.4,22.3,30.15,WNW,290,2.0,7.0,66,0.00,,---,0.01,VWS V14.01,2013-01-26 00:51:00,
2013-01-25 19:52:00,32.4,22.0,30.15,WNW,290,3.0,7.0,65,0.00,,---,0.01,VWS V14.01,2013-01-26 00:52:00,
2013-01-25 19:53:00,32.4,22.0,30.15,WNW,290,5.0,7.0,65,0.00,,---,0.01,VWS V14.01,2013-01-26 00:53:00,
2013-01-25 19:54:00,32.4,22.0,30.15,WNW,283,3.0,7.0,65,0.00,,---,0.01,VWS V14.01,2013-01-26 00:54:00,
2013-01-25 19:55:00,32.5,22.1,30.15,WSW,252,3.0,7.0,65,0.00,,---,0.01,VWS V14.01,2013-01-26 00:55:00,
2013-01-25 19:56:00,32.5,22.1,30.15,WNW,289,1.0,7.0,65,0.00,,---,0.01,VWS V14.01,2013-01-26 00:56:00,
2013-01-25 19:57:00,32.5,21.7,30.15,WNW,289,3.0,7.0,64,0.00,,---,0.01,VWS V14.01,2013-01-26 00:57:00,
2013-01-25 19:58:00,32.5,22.1,30.15,West,264,5.0,7.0,65,0.00,,---,0.01,VWS V14.01,2013-01-26 00:58:00,
2013-01-25 19:59:00,32.5,22.1,30.15,WNW,290,6.0,11.0,65,0.00,,---,0.01,VWS V14.01,2013-01-26 00:59:00,
2013-01-25 20:00:00,32.5,21.7,30.16,WSW,247,7.0,11.0,64,0.00,,---,0.01,VWS V14.01,2013-01-26 01:00:00,
2013-01-25 20:01:00,32.7,21.9,30.16,West,281,6.0,10.0,64,0.00,,---,0.01,VWS V14.01,2013-01-26 01:01:00,
2013-01-25 20:02:00,32.7,21.5,30.16,SW,230,3.0,10.0,63,0.00,,---,0.01,VWS V14.01,2013-01-26 01:02:00,
2013-01-25 20:03:00,32.7,21.5,30.16,WNW,283,5.0,10.0,63,0.00,,---,0.01,VWS V14.01,2013-01-26 01:03:00,
2013-01-25 20:04:00,32.7,21.5,30.16,WNW,303,3.0,10.0,63,0.00,,---,0.01,VWS V14.01,2013-01-26 01:04:00,
2013-01-25 20:05:00,32.8,21.2,30.16,NW,309,3.0,10.0,62,0.00,,---,0.01,VWS V14.01,2013-01-26 01:05:00,
2013-01-25 20:06:00,32.8,21.2,30.16,West,272,2.0,10.0,62,0.00,,---,0.01,VWS V14.01,2013-01-26 01:06:00,
2013-01-25 20:07:00,32.8,21.2,30.16,WNW,286,7.0,10.0,62,0.00,,---,0.01,VWS V14.01,2013-01-26 01:07:00,
2013-01-25 20:08:00,32.8,21.2,30.16,West,278,5.0,11.0,62,0.00,,---,0.01,VWS V14.01,2013-01-26 01:08:00,
2013-01-25 20:09:00,32.8,21.2,30.16,WSW,247,6.0,11.0,62,0.00,,---,0.01,VWS V14.01,2013-01-26 01:09:00,
2013-01-25 20:10:00,32.9,21.3,30.16,WNW,296,9.0,11.0,62,0.00,,---,0.01,VWS V14.01,2013-01-26 01:10:00,
2013-01-25 20:11:00,32.9,21.3,30.16,West,276,3.0,8.0,62,0.00,,---,0.01,VWS V14.01,2013-01-26 01:11:00,
2013-01-25 20:12:00,32.9,20.9,30.16,WNW,288,2.0,8.0,61,0.00,,---,0.01,VWS V14.01,2013-01-26 01:12:00,
2013-01-25 20:13:00,32.9,20.9,30.16,West,259,7.0,12.0,61,0.00,,---,0.01,VWS V14.01,2013-01-26 01:13:00,
2013-01-25 20:14:00,32.9,20.9,30.16,West,264,5.0,12.0,61,0.00,,---,0.01,VWS V14.01,2013-01-26 01:14:00,
2013-01-25 20:15:00,32.9,20.9,30.13,West,281,2.0,12.0,61,0.00,,---,0.01,VWS V14.01,2013-01-26 01:15:00,
2013-01-25 20:16:00,33.1,21.1,30.13,WNW,296,7.0,12.0,61,0.00,,---,0.01,VWS V14.01,2013-01-26 01:16:00,
2013-01-25 20:17:00,33.1,20.7,30.13,WNW,293,1.0,12.0,60,0.00,,---,0.01,VWS V14.01,2013-01-26 01:17:00,
2013-01-25 20:18:00,33.1,20.4,30.13,West,278,3.0,12.0,59,0.00,,---,0.01,VWS V14.01,2013-01-26 01:18:00,
2013-01-25 20:19:00,33.1,20.4,30.13,WSW,252,1.0,12.0,59,0.00,,---,0.01,VWS V14.01,2013-01-26 01:19:00,
2013-01-25 20:20:00,33.2,20.8,30.13,WNW,290,5.0,12.0,60,0.00,,---,0.01,VWS V14.01,2013-01-26 01:20:00,
2013-01-25 20:21:00,33.2,20.8,30.13,WNW,288,3.0,5.0,60,0.00,,---,0.01,VWS V14.01,2013-01-26 01:21:00,
2013-01-25 20:22:00,33.2,20.8,30.13,West,272,6.0,7.0,60,0.00,,---,0.01,VWS V14.01,2013-01-26 01:22:00,
2013-01-25 20:23:00,33.2,20.4,30.13,WNW,288,4.0,12.0,59,0.00,,---,0.01,VWS V14.01,2013-01-26 01:23:00,
2013-01-25 20:24:00,33.2,20.4,30.13,WNW,290,2.0,12.0,59,0.00,,---,0.01,VWS V14.01,2013-01-26 01:24:00,
2013-01-25 20:25:00,33.4,20.6,30.13,WNW,290,0.0,12.0,59,0.00,,---,0.01,VWS V14.01,2013-01-26 01:25:00,
2013-01-25 20:26:00,33.4,20.6,30.13,WNW,295,6.0,12.0,59,0.00,,---,0.01,VWS V14.01,2013-01-26 01:26:00,
2013-01-25 20:27:00,33.4,20.6,30.13,WNW,283,0.0,12.0,59,0.00,,---,0.01,VWS V14.01,2013-01-26 01:27:00,
2013-01-25 20:28:00,33.4,20.2,30.13,NW,312,6.0,12.0,58,0.00,,---,0.01,VWS V14.01,2013-01-26 01:28:00,
2013-01-25 20:29:00,33.4,20.2,30.13,WSW,254,4.0,12.0,58,0.00,,---,0.01,VWS V14.01,2013-01-26 01:29:00,
2013-01-25 20:30:00,33.5,20.3,30.14,West,272,0.0,12.0,58,0.00,,---,0.01,VWS V14.01,2013-01-26 01:30:00,
2013-01-25 20:31:00,33.5,20.3,30.14,NW,312,3.0,4.0,58,0.00,,---,0.01,VWS V14.01,2013-01-26 01:31:00,
2013-01-25 20:32:00,33.5,20.3,30.14,WNW,296,3.0,9.0,58,0.00,,---,0.01,VWS V14.01,2013-01-26 01:32:00,
2013-01-25 20:33:00,33.5,20.3,30.14,WNW,293,0.0,9.0,58,0.00,,---,0.01,VWS V14.01,2013-01-26 01:33:00,
2013-01-25 20:34:00,33.5,19.9,30.14,WNW,286,5.0,9.0,57,0.00,,---,0.01,VWS V14.01,2013-01-26 01:34:00,
2013-01-25 20:35:00,33.5,19.9,30.14,NW,306,0.0,9.0,57,0.00,,---,0.01,VWS V14.01,2013-01-26 01:35:00,
2013-01-25 20:36:00,33.7,20.1,30.14,West,266,8.0,9.0,57,0.00,,---,0.01,VWS V14.01,2013-01-26 01:36:00,
2013-01-25 20:37:00,33.7,20.1,30.14,WSW,244,2.0,9.0,57,0.00,,---,0.01,VWS V14.01,2013-01-26 01:37:00,
2013-01-25 20:38:00,33.7,19.7,30.14,WSW,241,4.0,9.0,56,0.00,,---,0.01,VWS V14.01,2013-01-26 01:38:00,
2013-01-25 20:39:00,33.7,19.7,30.14,West,281,2.0,9.0,56,0.00,,---,0.01,VWS V14.01,2013-01-26 01:39:00,
2013-01-25 20:40:00,33.8,19.8,30.14,NW,317,3.0,9.0,56,0.00,,---,0.01,VWS V14.01,2013-01-26 01:40:00,
2013-01-25 20:41:00,33.8,19.8,30.14,WNW,288,0.0,6.0,56,0.00,,---,0.01,VWS V14.01,2013-01-26 01:41:00,
2013-01-25 20:42:00,33.8,19.8,30.14,SW,216,2.0,6.0,56,0.00,,---,0.01,VWS V14.01,2013-01-26 01:42:00,
2013-01-25 20:43:00,33.8,19.8,30.14,WNW,286,4.0,6.0,56,0.00,,---,0.01,VWS V14.01,2013-01-26 01:43:00,
2013-01-25 20:44:00,34.0,19.5,30.14,WSW,244,2.0,8.0,55,0.00,,---,0.01,VWS V14.01,2013-01-26 01:44:00,
2013-01-25 20:45:00,34.0,19.5,30.14,West,269,3.0,8.0,55,0.00,,---,0.01,VWS V14.01,2013-01-26 01:45:00,
2013-01-25 20:46:00,34.0,20.0,30.14,West,269,2.0,8.0,56,0.00,,---,0.01,VWS V14.01,2013-01-26 01:46:00,
2013-01-25 20:47:00,34.0,20.0,30.14,WNW,288,4.0,8.0,56,0.00,,---,0.01,VWS V14.01,2013-01-26 01:47:00,
2013-01-25 20:48:00,34.1,19.6,30.14,WSW,245,5.0,8.0,55,0.00,,---,0.01,VWS V14.01,2013-01-26 01:48:00,
2013-01-25 20:49:00,34.1,19.6,30.14,WSW,244,6.0,8.0,55,0.00,,---,0.01,VWS V14.01,2013-01-26 01:49:00,
2013-01-25 20:50:00,34.1,19.6,30.14,WSW,242,2.0,8.0,55,0.00,,---,0.01,VWS V14.01,2013-01-26 01:50:00,
2013-01-25 20:51:00,34.1,19.6,30.14,West,268,4.0,5.0,55,0.00,,---,0.01,VWS V14.01,2013-01-26 01:51:00,
2013-01-25 20:52:00,34.3,19.8,30.14,SW,230,7.0,11.0,55,0.00,,---,0.01,VWS V14.01,2013-01-26 01:52:00,
2013-01-25 20:53:00,34.3,19.8,30.14,WSW,248,6.0,11.0,55,0.00,,---,0.01,VWS V14.01,2013-01-26 01:53:00,
2013-01-25 20:54:00,34.3,19.8,30.14,SW,234,12.0,12.0,55,0.00,,---,0.01,VWS V14.01,2013-01-26 01:54:00,
2013-01-25 20:55:00,34.3,20.7,30.14,SW,226,5.0,12.0,57,0.00,,---,0.01,VWS V14.01,2013-01-26 01:55:00,
2013-01-25 20:56:00,34.3,21.1,30.14,WSW,257,6.0,12.0,58,0.00,,---,0.01,VWS V14.01,2013-01-26 01:56:00,
2013-01-25 20:57:00,34.3,20.7,30.14,West,279,3.0,12.0,57,0.00,,---,0.01,VWS V14.01,2013-01-26 01:57:00,
2013-01-25 20:58:00,34.3,20.7,30.14,WNW,296,5.0,12.0,57,0.00,,---,0.01,VWS V14.01,2013-01-26 01:58:00,
2013-01-25 20:59:00,34.3,20.7,30.14,West,259,3.0,12.0,57,0.00,,---,0.01,VWS V14.01,2013-01-26 01:59:00,
2013-01-25 21:00:00,34.3,20.2,30.15,WSW,251,6.0,12.0,56,0.00,,---,0.01,VWS V14.01,2013-01-26 02:00:00,
2013-01-25 21:01:00,34.3,21.1,30.15,WSW,244,5.0,6.0,58,0.00,,---,0.01,VWS V14.01,2013-01-26 02:01:00,
2013-01-25 21:02:00,34.1,21.3,30.15,WSW,244,2.0,6.0,59,0.00,,---,0.01,VWS V14.01,2013-01-26 02:02:00,
2013-01-25 21:03:00,34.1,21.7,30.15,WSW,244,2.0,6.0,60,0.00,,---,0.01,VWS V14.01,2013-01-26 02:03:00,
2013-01-25 21:04:00,34.1,21.7,30.15,WSW,244,6.0,6.0,60,0.00,,---,0.01,VWS V14.01,2013-01-26 02:04:00,
2013-01-25 21:05:00,34.1,21.3,30.15,WSW,244,4.0,6.0,59,0.00,,---,0.01,VWS V14.01,2013-01-26 02:05:00,
2013-01-25 21:06:00,34.1,21.3,30.15,SW,233,2.0,7.0,59,0.00,,---,0.01,VWS V14.01,2013-01-26 02:06:00,
2013-01-25 21:07:00,34.1,21.3,30.15,SW,235,6.0,7.0,59,0.00,,---,0.01,VWS V14.01,2013-01-26 02:07:00,
2013-01-25 21:08:00,34.0,21.2,30.15,SSW,204,3.0,8.0,59,0.00,,---,0.01,VWS V14.01,2013-01-26 02:08:00,
2013-01-25 21:09:00,34.0,21.6,30.15,SSW,204,1.0,8.0,60,0.00,,---,0.01,VWS V14.01,2013-01-26 02:09:00,
2013-01-25 21:10:00,34.0,21.6,30.15,WNW,295,4.0,8.0,60,0.00,,---,0.01,VWS V14.01,2013-01-26 02:10:00,
2013-01-25 21:11:00,34.0,21.6,30.15,WSW,241,2.0,6.0,60,0.00,,---,0.01,VWS V14.01,2013-01-26 02:11:00,
2013-01-25 21:12:00,34.0,21.6,30.15,SW,230,4.0,7.0,60,0.00,,---,0.01,VWS V14.01,2013-01-26 02:12:00,
2013-01-25 21:13:00,34.0,21.6,30.15,SW,223,9.0,9.0,60,0.00,,---,0.01,VWS V14.01,2013-01-26 02:13:00,
2013-01-25 21:14:00,34.0,21.2,30.15,West,281,8.0,9.0,59,0.00,,---,0.01,VWS V14.01,2013-01-26 02:14:00,
2013-01-25 21:15:00,34.0,20.8,30.15,WSW,258,7.0,12.0,58,0.00,,---,0.01,VWS V14.01,2013-01-26 02:15:00,
2013-01-25 21:16:00,34.0,20.8,30.15,WNW,295,3.0,12.0,58,0.00,,---,0.01,VWS V14.01,2013-01-26 02:16:00,
2013-01-25 21:17:00,34.0,20.8,30.15,WSW,254,5.0,12.0,58,0.00,,---,0.01,VWS V14.01,2013-01-26 02:17:00,
2013-01-25 21:18:00,34.0,20.8,30.15,WNW,293,10.0,12.0,58,0.00,,---,0.01,VWS V14.01,2013-01-26 02:18:00,
2013-01-25 21:19:00,34.0,20.4,30.15,WNW,293,5.0,12.0,57,0.00,,---,0.01,VWS V14.01,2013-01-26 02:19:00,
2013-01-25 21:20:00,34.1,20.5,30.15,SW,226,6.0,12.0,57,0.00,,---,0.01,VWS V14.01,2013-01-26 02:20:00,
2013-01-25 21:21:00,34.1,20.5,30.15,WNW,285,4.0,6.0,57,0.00,,---,0.01,VWS V14.01,2013-01-26 02:21:00,
2013-01-25 21:22:00,34.1,20.9,30.15,WNW,285,0.0,6.0,58,0.00,,---,0.01,VWS V14.01,2013-01-26 02:22:00,
2013-01-25 21:23:00,34.1,20.5,30.15,WSW,252,3.0,8.0,57,0.00,,---,0.01,VWS V14.01,2013-01-26 02:23:00,
2013-01-25 21:24:00,34.1,20.1,30.15,WSW,242,6.0,8.0,56,0.00,,---,0.01,VWS V14.01,2013-01-26 02:24:00,
2013-01-25 21:25:00,34.3,20.7,30.15,WNW,283,3.0,8.0,57,0.00,,---,0.01,VWS V14.01,2013-01-26 02:25:00,
2013-01-25 21:26:00,34.3,20.7,30.15,West,271,5.0,8.0,57,0.00,,---,0.01,VWS V14.01,2013-01-26 02:26:00,
2013-01-25 21:27:00,34.3,20.7,30.15,WSW,240,8.0,8.0,57,0.00,,---,0.01,VWS V14.01,2013-01-26 02:27:00,
2013-01-25 21:28:00,34.3,20.2,30.15,WNW,282,2.0,8.0,56,0.00,,---,0.01,VWS V14.01,2013-01-26 02:28:00,
2013-01-25 21:29:00,34.3,20.2,30.15,West,278,3.0,8.0,56,0.00,,---,0.01,VWS V14.01,2013-01-26 02:29:00,
2013-01-25 21:30:00,34.3,20.2,30.16,West,278,7.0,10.0,56,0.00,,---,0.01,VWS V14.01,2013-01-26 02:30:00,
2013-01-25 21:31:00,34.3,19.8,30.16,WNW,290,2.0,7.0,55,0.00,,---,0.01,VWS V14.01,2013-01-26 02:31:00,
2013-01-25 21:32:00,34.3,20.2,30.16,WSW,245,3.0,7.0,56,0.00,,---,0.01,VWS V14.01,2013-01-26 02:32:00,
2013-01-25 21:33:00,34.4,19.9,30.16,NW,322,5.0,7.0,55,0.00,,---,0.01,VWS V14.01,2013-01-26 02:33:00,
2013-01-25 21:34:00,34.4,19.9,30.16,West,259,10.0,11.0,55,0.00,,---,0.01,VWS V14.01,2013-01-26 02:34:00,
2013-01-25 21:35:00,34.4,19.9,30.16,WSW,251,5.0,11.0,55,0.00,,---,0.01,VWS V14.01,2013-01-26 02:35:00,
2013-01-25 21:36:00,34.4,19.9,30.16,WNW,282,7.0,11.0,55,0.00,,---,0.01,VWS V14.01,2013-01-26 02:36:00,
2013-01-25 21:37:00,34.4,19.9,30.16,West,272,5.0,11.0,55,0.00,,---,0.01,VWS V14.01,2013-01-26 02:37:00,
2013-01-25 21:38:00,34.6,20.1,30.16,West,268,3.0,11.0,55,0.00,,---,0.01,VWS V14.01,2013-01-26 02:38:00,
2013-01-25 21:39:00,34.6,20.1,30.16,West,262,4.0,11.0,55,0.00,,---,0.01,VWS V14.01,2013-01-26 02:39:00,
2013-01-25 21:40:00,34.6,20.1,30.16,WSW,237,5.0,11.0,55,0.00,,---,0.01,VWS V14.01,2013-01-26 02:40:00,
2013-01-25 21:41:00,34.6,19.2,30.16,WNW,292,7.0,7.0,53,0.00,,---,0.01,VWS V14.01,2013-01-26 02:41:00,
2013-01-25 21:42:00,34.7,19.3,30.16,WSW,245,6.0,8.0,53,0.00,,---,0.01,VWS V14.01,2013-01-26 02:42:00,
2013-01-25 21:43:00,34.7,19.8,30.16,WSW,237,1.0,8.0,54,0.00,,---,0.01,VWS V14.01,2013-01-26 02:43:00,
2013-01-25 21:44:00,34.7,19.8,30.16,NW,310,5.0,8.0,54,0.00,,---,0.01,VWS V14.01,2013-01-26 02:44:00,
2013-01-25 21:45:00,34.9,20.0,30.17,WSW,257,5.0,8.0,54,0.00,,---,0.01,VWS V14.01,2013-01-26 02:45:00,
2013-01-25 21:46:00,34.9,19.5,30.17,SW,220,3.0,8.0,53,0.00,,---,0.01,VWS V14.01,2013-01-26 02:46:00,
2013-01-25 21:47:00,34.9,19.1,30.17,North,354,5.0,8.0,52,0.00,,---,0.01,VWS V14.01,2013-01-26 02:47:00,
2013-01-25 21:48:00,34.9,20.0,30.17,West,269,0.0,8.0,54,0.00,,---,0.01,VWS V14.01,2013-01-26 02:48:00,
2013-01-25 21:49:00,34.9,20.0,30.17,SW,228,3.0,8.0,54,0.00,,---,0.01,VWS V14.01,2013-01-26 02:49:00,
2013-01-25 21:50:00,35.0,20.0,30.17,SW,231,3.0,8.0,54,0.00,,---,0.01,VWS V14.01,2013-01-26 02:50:00,
2013-01-25 21:51:00,35.0,19.6,30.17,West,272,6.0,6.0,53,0.00,,---,0.01,VWS V14.01,2013-01-26 02:51:00,
2013-01-25 21:52:00,35.0,19.6,30.17,West,262,3.0,6.0,53,0.00,,---,0.01,VWS V14.01,2013-01-26 02:52:00,
2013-01-25 21:53:00,35.0,19.2,30.17,WSW,242,1.0,6.0,52,0.00,,---,0.01,VWS V14.01,2013-01-26 02:53:00,
2013-01-25 21:54:00,35.0,19.2,30.17,West,262,2.0,6.0,52,0.00,,---,0.01,VWS V14.01,2013-01-26 02:54:00,
2013-01-25 21:55:00,35.0,19.6,30.17,WSW,252,5.0,6.0,53,0.00,,---,0.01,VWS V14.01,2013-01-26 02:55:00,
2013-01-25 21:56:00,35.0,19.6,30.17,WNW,292,6.0,6.0,53,0.00,,---,0.01,VWS V14.01,2013-01-26 02:56:00,
2013-01-25 21:57:00,35.0,19.6,30.17,West,269,4.0,6.0,53,0.00,,---,0.01,VWS V14.01,2013-01-26 02:57:00,
2013-01-25 21:58:00,35.0,19.6,30.17,West,269,0.0,6.0,53,0.00,,---,0.01,VWS V14.01,2013-01-26 02:58:00,
2013-01-25 21:59:00,35.0,19.6,30.17,SW,221,4.0,8.0,53,0.00,,---,0.01,VWS V14.01,2013-01-26 02:59:00,
2013-01-25 22:00:00,35.0,19.6,30.18,SW,221,4.0,8.0,53,0.00,,---,0.01,VWS V14.01,2013-01-26 03:00:00,
2013-01-25 22:01:00,35.0,19.6,30.18,West,276,2.0,4.0,53,0.00,,---,0.01,VWS V14.01,2013-01-26 03:01:00,
2013-01-25 22:02:00,35.0,19.6,30.18,SW,218,6.0,6.0,53,0.00,,---,0.01,VWS V14.01,2013-01-26 03:02:00,
2013-01-25 22:03:00,35.0,19.6,30.18,SW,226,2.0,6.0,53,0.00,,---,0.01,VWS V14.01,2013-01-26 03:03:00,
2013-01-25 22:04:00,35.0,19.6,30.18,SW,233,4.0,6.0,53,0.00,,---,0.01,VWS V14.01,2013-01-26 03:04:00,
2013-01-25 22:05:00,35.0,19.6,30.18,SW,233,4.0,6.0,53,0.00,,---,0.01,VWS V14.01,2013-01-26 03:05:00,
2013-01-25 22:06:00,35.0,19.6,30.18,West,262,0.0,6.0,53,0.00,,---,0.01,VWS V14.01,2013-01-26 03:06:00,
2013-01-25 22:07:00,35.0,19.6,30.18,West,279,3.0,6.0,53,0.00,,---,0.01,VWS V14.01,2013-01-26 03:07:00,
2013-01-25 22:08:00,35.0,19.6,30.18,WNW,285,2.0,6.0,53,0.00,,---,0.01,VWS V14.01,2013-01-26 03:08:00,
2013-01-25 22:09:00,35.0,19.6,30.18,West,262,7.0,8.0,53,0.00,,---,0.01,VWS V14.01,2013-01-26 03:09:00,
2013-01-25 22:10:00,35.0,19.2,30.18,WNW,282,2.0,8.0,52,0.00,,---,0.01,VWS V14.01,2013-01-26 03:10:00,
2013-01-25 22:11:00,35.0,19.2,30.18,WSW,237,4.0,7.0,52,0.00,,---,0.01,VWS V14.01,2013-01-26 03:11:00,
2013-01-25 22:12:00,35.0,19.6,30.18,WSW,255,2.0,7.0,53,0.00,,---,0.01,VWS V14.01,2013-01-26 03:12:00,
2013-01-25 22:13:00,35.0,19.6,30.18,WSW,258,2.0,7.0,53,0.00,,---,0.01,VWS V14.01,2013-01-26 03:13:00,
2013-01-25 22:14:00,35.0,19.6,30.18,West,276,5.0,7.0,53,0.00,,---,0.01,VWS V14.01,2013-01-26 03:14:00,
2013-01-25 22:15:00,35.0,19.6,30.18,WSW,258,6.0,7.0,53,0.00,,---,0.01,VWS V14.01,2013-01-26 03:15:00,
2013-01-25 22:16:00,35.0,19.6,30.18,WSW,258,4.0,7.0,53,0.00,,---,0.01,VWS V14.01,2013-01-26 03:16:00,
2013-01-25 22:17:00,35.0,19.6,30.18,West,275,4.0,7.0,53,0.00,,---,0.01,VWS V14.01,2013-01-26 03:17:00,
2013-01-25 22:18:00,35.2,19.8,30.18,WNW,302,2.0,7.0,53,0.00,,---,0.01,VWS V14.01,2013-01-26 03:18:00,
2013-01-25 22:19:00,35.2,19.4,30.18,West,276,1.0,7.0,52,0.00,,---,0.01,VWS V14.01,2013-01-26 03:19:00,
2013-01-25 22:20:00,35.2,19.8,30.18,WSW,247,6.0,8.0,53,0.00,,---,0.01,VWS V14.01,2013-01-26 03:20:00,
2013-01-25 22:21:00,35.2,19.4,30.18,WNW,288,3.0,6.0,52,0.00,,---,0.01,VWS V14.01,2013-01-26 03:21:00,
2013-01-25 22:22:00,35.2,19.4,30.18,WNW,295,5.0,6.0,52,0.00,,---,0.01,VWS V14.01,2013-01-26 03:22:00,
2013-01-25 22:23:00,35.2,18.9,30.18,West,268,3.0,6.0,51,0.00,,---,0.01,VWS V14.01,2013-01-26 03:23:00,
2013-01-25 22:24:00,35.2,18.9,30.18,West,268,7.0,7.0,51,0.00,,---,0.01,VWS V14.01,2013-01-26 03:24:00,
2013-01-25 22:25:00,35.2,18.9,30.18,WSW,238,3.0,7.0,51,0.00,,---,0.01,VWS V14.01,2013-01-26 03:25:00,
2013-01-25 22:26:00,35.2,19.4,30.18,WSW,240,5.0,9.0,52,0.00,,---,0.01,VWS V14.01,2013-01-26 03:26:00,
2013-01-25 22:27:00,35.2,18.9,30.18,West,264,3.0,9.0,51,0.00,,---,0.01,VWS V14.01,2013-01-26 03:27:00,
2013-01-25 22:28:00,35.2,19.4,30.18,WSW,254,5.0,9.0,52,0.00,,---,0.01,VWS V14.01,2013-01-26 03:28:00,
2013-01-25 22:29:00,35.2,18.9,30.18,WNW,302,5.0,9.0,51,0.00,,---,0.01,VWS V14.01,2013-01-26 03:29:00,
2013-01-25 22:30:00,35.2,18.9,30.19,WNW,290,5.0,10.0,51,0.00,,---,0.01,VWS V14.01,2013-01-26 03:30:00,
2013-01-25 22:31:00,35.2,18.9,30.19,WSW,237,3.0,6.0,51,0.00,,---,0.01,VWS V14.01,2013-01-26 03:31:00,
2013-01-25 22:32:00,35.2,18.9,30.19,WSW,237,5.0,6.0,51,0.00,,---,0.01,VWS V14.01,2013-01-26 03:32:00,
2013-01-25 22:33:00,35.2,18.9,30.19,WNW,286,6.0,6.0,51,0.00,,---,0.01,VWS V14.01,2013-01-26 03:33:00,
2013-01-25 22:34:00,35.2,18.9,30.19,WSW,258,5.0,6.0,51,0.00,,---,0.01,VWS V14.01,2013-01-26 03:34:00,
2013-01-25 22:35:00,35.2,18.9,30.19,West,261,6.0,6.0,51,0.00,,---,0.01,VWS V14.01,2013-01-26 03:35:00,
2013-01-25 22:36:00,35.3,19.5,30.19,WSW,250,6.0,8.0,52,0.00,,---,0.01,VWS V14.01,2013-01-26 03:36:00,
2013-01-25 22:37:00,35.3,19.0,30.19,WSW,237,2.0,8.0,51,0.00,,---,0.01,VWS V14.01,2013-01-26 03:37:00,
2013-01-25 22:38:00,35.3,18.5,30.19,WSW,250,6.0,8.0,50,0.00,,---,0.01,VWS V14.01,2013-01-26 03:38:00,
2013-01-25 22:39:00,35.3,19.5,30.19,West,271,5.0,10.0,52,0.00,,---,0.01,VWS V14.01,2013-01-26 03:39:00,
2013-01-25 22:40:00,35.3,18.5,30.19,WNW,282,5.0,10.0,50,0.00,,---,0.01,VWS V14.01,2013-01-26 03:40:00,
2013-01-25 22:41:00,35.3,18.5,30.19,WNW,282,3.0,4.0,50,0.00,,---,0.01,VWS V14.01,2013-01-26 03:41:00,
2013-01-25 22:42:00,35.3,18.5,30.19,WSW,242,6.0,6.0,50,0.00,,---,0.01,VWS V14.01,2013-01-26 03:42:00,
2013-01-25 22:43:00,35.3,18.1,30.19,SSW,213,3.0,8.0,49,0.00,,---,0.01,VWS V14.01,2013-01-26 03:43:00,
2013-01-25 22:44:00,35.5,18.7,30.19,WNW,282,5.0,8.0,50,0.00,,---,0.01,VWS V14.01,2013-01-26 03:44:00,
2013-01-25 22:45:00,35.5,18.7,30.19,West,279,2.0,8.0,50,0.00,,---,0.01,VWS V14.01,2013-01-26 03:45:00,
2013-01-25 22:46:00,35.5,18.7,30.19,West,279,2.0,8.0,50,0.00,,---,0.01,VWS V14.01,2013-01-26 03:46:00,
2013-01-25 22:47:00,35.5,19.2,30.19,WSW,254,2.0,8.0,51,0.00,,---,0.01,VWS V14.01,2013-01-26 03:47:00,
2013-01-25 22:48:00,35.5,18.2,30.19,West,264,5.0,8.0,49,0.00,,---,0.01,VWS V14.01,2013-01-26 03:48:00,
2013-01-25 22:49:00,35.5,18.2,30.19,West,266,6.0,8.0,49,0.00,,---,0.01,VWS V14.01,2013-01-26 03:49:00,
2013-01-25 22:50:00,35.5,17.8,30.19,West,269,6.0,8.0,48,0.00,,---,0.01,VWS V14.01,2013-01-26 03:50:00,
2013-01-25 22:51:00,35.6,18.3,30.19,West,275,3.0,6.0,49,0.00,,---,0.01,VWS V14.01,2013-01-26 03:51:00,
2013-01-25 22:52:00,35.6,17.9,30.19,West,275,2.0,6.0,48,0.00,,---,0.01,VWS V14.01,2013-01-26 03:52:00,
2013-01-25 22:53:00,35.6,18.3,30.19,WNW,286,1.0,7.0,49,0.00,,---,0.01,VWS V14.01,2013-01-26 03:53:00,
2013-01-25 22:54:00,35.6,18.3,30.19,West,276,5.0,7.0,49,0.00,,---,0.01,VWS V14.01,2013-01-26 03:54:00,
2013-01-25 22:55:00,35.8,18.0,30.19,WSW,255,4.0,7.0,48,0.00,,---,0.01,VWS V14.01,2013-01-26 03:55:00,
2013-01-25 22:56:00,35.8,18.0,30.19,WNW,290,4.0,7.0,48,0.00,,---,0.01,VWS V14.01,2013-01-26 03:56:00,
2013-01-25 22:57:00,35.8,18.0,30.19,West,275,3.0,10.0,48,0.00,,---,0.01,VWS V14.01,2013-01-26 03:57:00,
2013-01-25 22:58:00,35.8,18.0,30.19,WNW,293,2.0,10.0,48,0.00,,---,0.01,VWS V14.01,2013-01-26 03:58:00,
2013-01-25 22:59:00,35.9,18.6,30.19,WSW,252,4.0,10.0,49,0.00,,---,0.01,VWS V14.01,2013-01-26 03:59:00,
2013-01-25 23:00:00,35.9,18.1,30.19,WNW,288,5.0,10.0,48,0.00,,---,0.01,VWS V14.01,2013-01-26 04:00:00,
2013-01-25 23:01:00,35.9,17.6,30.19,WSW,242,2.0,6.0,47,0.00,,---,0.01,VWS V14.01,2013-01-26 04:01:00,
2013-01-25 23:02:00,36.0,17.7,30.19,WSW,244,1.0,6.0,47,0.00,,---,0.01,VWS V14.01,2013-01-26 04:02:00,
2013-01-25 23:03:00,36.0,17.7,30.19,WSW,247,0.0,6.0,47,0.00,,---,0.01,VWS V14.01,2013-01-26 04:03:00,
2013-01-25 23:04:00,36.0,17.7,30.19,SSW,211,3.0,6.0,47,0.00,,---,0.01,VWS V14.01,2013-01-26 04:04:00,
2013-01-25 23:05:00,36.2,17.9,30.19,WNW,286,3.0,7.0,47,0.00,,---,0.01,VWS V14.01,2013-01-26 04:05:00,
2013-01-25 23:06:00,36.2,17.9,30.19,WSW,238,5.0,8.0,47,0.00,,---,0.01,VWS V14.01,2013-01-26 04:06:00,
2013-01-25 23:07:00,36.2,17.4,30.19,SW,234,4.0,8.0,46,0.00,,---,0.01,VWS V14.01,2013-01-26 04:07:00,
2013-01-25 23:08:00,36.3,18.0,30.19,SW,235,3.0,8.0,47,0.00,,---,0.01,VWS V14.01,2013-01-26 04:08:00,
2013-01-25 23:09:00,36.3,18.0,30.19,SW,235,3.0,8.0,47,0.00,,---,0.01,VWS V14.01,2013-01-26 04:09:00,
2013-01-25 23:10:00,36.3,18.0,30.19,West,275,5.0,10.0,47,0.00,,---,0.01,VWS V14.01,2013-01-26 04:10:00,
2013-01-25 23:11:00,36.3,17.5,30.19,WSW,245,6.0,7.0,46,0.00,,---,0.01,VWS V14.01,2013-01-26 04:11:00,
2013-01-25 23:12:00,36.5,17.7,30.19,WSW,245,5.0,7.0,46,0.00,,---,0.01,VWS V14.01,2013-01-26 04:12:00,
2013-01-25 23:13:00,36.5,17.7,30.19,WNW,283,4.0,7.0,46,0.00,,---,0.01,VWS V14.01,2013-01-26 04:13:00,
2013-01-25 23:14:00,36.5,18.2,30.19,West,266,2.0,7.0,47,0.00,,---,0.01,VWS V14.01,2013-01-26 04:14:00,
2013-01-25 23:15:00,36.5,18.2,30.20,West,265,4.0,7.0,47,0.00,,---,0.01,VWS V14.01,2013-01-26 04:15:00,
2013-01-25 23:16:00,36.6,18.3,30.20,West,265,5.0,7.0,47,0.00,,---,0.01,VWS V14.01,2013-01-26 04:16:00,
2013-01-25 23:17:00,36.6,18.8,30.20,WSW,250,6.0,7.0,48,0.00,,---,0.01,VWS V14.01,2013-01-26 04:17:00,
2013-01-25 23:18:00,36.6,18.3,30.20,WSW,250,6.0,7.0,47,0.00,,---,0.01,VWS V14.01,2013-01-26 04:18:00,
2013-01-25 23:19:00,36.6,18.3,30.20,WSW,250,3.0,7.0,47,0.00,,---,0.01,VWS V14.01,2013-01-26 04:19:00,
2013-01-25 23:20:00,36.6,18.3,30.20,WSW,250,4.0,7.0,47,0.00,,---,0.01,VWS V14.01,2013-01-26 04:20:00,
2013-01-25 23:21:00,36.6,17.8,30.20,WSW,250,3.0,4.0,46,0.00,,---,0.01,VWS V14.01,2013-01-26 04:21:00,
2013-01-25 23:22:00,36.6,18.3,30.20,WSW,242,7.0,7.0,47,0.00,,---,0.01,VWS V14.01,2013-01-26 04:22:00,
2013-01-25 23:23:00,36.8,18.0,30.20,West,275,5.0,7.0,46,0.00,,---,0.01,VWS V14.01,2013-01-26 04:23:00,
2013-01-25 23:24:00,36.8,18.0,30.20,WSW,257,6.0,7.0,46,0.00,,---,0.01,VWS V14.01,2013-01-26 04:24:00,
2013-01-25 23:25:00,36.8,18.5,30.20,WSW,254,3.0,7.0,47,0.00,,---,0.01,VWS V14.01,2013-01-26 04:25:00,
2013-01-25 23:26:00,36.8,18.0,30.20,West,265,6.0,7.0,46,0.00,,---,0.01,VWS V14.01,2013-01-26 04:26:00,
2013-01-25 23:27:00,36.8,18.0,30.20,WNW,285,3.0,7.0,46,0.00,,---,0.01,VWS V14.01,2013-01-26 04:27:00,
2013-01-25 23:28:00,36.8,18.0,30.20,WNW,285,1.0,7.0,46,0.00,,---,0.01,VWS V14.01,2013-01-26 04:28:00,
2013-01-25 23:29:00,36.9,18.1,30.20,WNW,285,3.0,7.0,46,0.00,,---,0.01,VWS V14.01,2013-01-26 04:29:00,
2013-01-25 23:30:00,36.9,18.1,30.20,West,279,6.0,8.0,46,0.00,,---,0.01,VWS V14.01,2013-01-26 04:30:00,
2013-01-25 23:31:00,36.9,18.1,30.20,WNW,289,2.0,6.0,46,0.00,,---,0.01,VWS V14.01,2013-01-26 04:31:00,
2013-01-25 23:32:00,36.9,17.6,30.20,WNW,288,2.0,6.0,45,0.00,,---,0.01,VWS V14.01,2013-01-26 04:32:00,
2013-01-25 23:33:00,36.9,17.6,30.20,WSW,258,2.0,6.0,45,0.00,,---,0.01,VWS V14.01,2013-01-26 04:33:00,
2013-01-25 23:34:00,36.9,17.6,30.20,West,275,3.0,6.0,45,0.00,,---,0.01,VWS V14.01,2013-01-26 04:34:00,
2013-01-25 23:35:00,37.0,17.6,30.20,West,275,6.0,6.0,45,0.00,,---,0.01,VWS V14.01,2013-01-26 04:35:00,
2013-01-25 23:36:00,37.0,17.6,30.20,West,279,3.0,7.0,45,0.00,,---,0.01,VWS V14.01,2013-01-26 04:36:00,
2013-01-25 23:37:00,37.0,18.2,30.20,West,265,3.0,7.0,46,0.00,,---,0.01,VWS V14.01,2013-01-26 04:37:00,
2013-01-25 23:38:00,37.0,18.2,30.20,West,265,2.0,7.0,46,0.00,,---,0.01,VWS V14.01,2013-01-26 04:38:00,
2013-01-25 23:39:00,37.0,17.6,30.20,West,265,0.0,7.0,45,0.00,,---,0.01,VWS V14.01,2013-01-26 04:39:00,
2013-01-25 23:40:00,37.2,17.8,30.20,West,266,0.0,7.0,45,0.00,,---,0.01,VWS V14.01,2013-01-26 04:40:00,
2013-01-25 23:41:00,37.2,18.3,30.20,West,265,0.0,2.0,46,0.00,,---,0.01,VWS V14.01,2013-01-26 04:41:00,
2013-01-25 23:42:00,37.2,17.8,30.20,West,266,1.0,6.0,45,0.00,,---,0.01,VWS V14.01,2013-01-26 04:42:00,
2013-01-25 23:43:00,37.2,18.3,30.20,WNW,303,1.0,6.0,46,0.00,,---,0.01,VWS V14.01,2013-01-26 04:43:00,
2013-01-25 23:44:00,37.3,18.9,30.20,WNW,303,1.0,6.0,47,0.00,,---,0.01,VWS V14.01,2013-01-26 04:44:00,
2013-01-25 23:45:00,37.3,18.4,30.19,West,265,2.0,6.0,46,0.00,,---,0.01,VWS V14.01,2013-01-26 04:45:00,
2013-01-25 23:46:00,37.3,17.9,30.19,West,265,2.0,6.0,45,0.00,,---,0.01,VWS V14.01,2013-01-26 04:46:00,
2013-01-25 23:47:00,37.3,17.9,30.19,WSW,252,4.0,7.0,45,0.00,,---,0.01,VWS V14.01,2013-01-26 04:47:00,
2013-01-25 23:48:00,37.3,17.4,30.19,WSW,240,6.0,7.0,44,0.00,,---,0.01,VWS V14.01,2013-01-26 04:48:00,
2013-01-25 23:49:00,37.3,16.9,30.19,WSW,240,2.0,7.0,43,0.00,,---,0.01,VWS V14.01,2013-01-26 04:49:00,
2013-01-25 23:50:00,37.5,17.0,30.19,WSW,240,0.0,7.0,43,0.00,,---,0.01,VWS V14.01,2013-01-26 04:50:00,
2013-01-25 23:51:00,37.5,17.0,30.19,WSW,240,3.0,3.0,43,0.00,,---,0.01,VWS V14.01,2013-01-26 04:51:00,
2013-01-25 23:52:00,37.5,17.0,30.19,WSW,240,2.0,3.0,43,0.00,,---,0.01,VWS V14.01,2013-01-26 04:52:00,
2013-01-25 23:53:00,37.5,17.0,30.19,WSW,240,4.0,6.0,43,0.00,,---,0.01,VWS V14.01,2013-01-26 04:53:00,
2013-01-25 23:54:00,37.5,17.0,30.19,WSW,240,6.0,6.0,43,0.00,,---,0.01,VWS V14.01,2013-01-26 04:54:00,
2013-01-25 23:55:00,37.6,17.1,30.19,WSW,240,2.0,6.0,43,0.00,,---,0.01,VWS V14.01,2013-01-26 04:55:00,
2013-01-25 23:56:00,37.6,17.7,30.19,WSW,240,0.0,6.0,44,0.00,,---,0.01,VWS V14.01,2013-01-26 04:56:00,
2013-01-25 23:57:00,37.6,17.7,30.19,WSW,240,0.0,6.0,44,0.00,,---,0.01,VWS V14.01,2013-01-26 04:57:00,
2013-01-25 23:58:00,37.6,17.1,30.19,SW,228,0.0,6.0,43,0.00,,---,0.01,VWS V14.01,2013-01-26 04:58:00,
2013-01-25 23:59:00,37.6,17.7,30.19,SW,228,2.0,6.0,44,0.00,,---,0.01,VWS V14.01,2013-01-26 04:59:00,